<?xml version="1.0" encoding="UTF-8" standalone="no" ?>
<gpx xmlns="http://www.topografix.com/GPX/1/1" xmlns:xsi="http://www.w3.org/2001/XMLSchema-instance" xsi:schemaLocation="http://www.topografix.com/GPX/1/1 http://www.topografix.com/GPX/1/1/gpx.xsd" version="1.1" creator="VisuGPX - https://www.visugpx.com">
  <metadata>
    <name>La Grande Traversée du Vercors VTT - Jour 2</name>
  </metadata>
  <trk>
    <name><![CDATA[trace]]></name>
    <extensions>
      <line xmlns="http://www.topografix.com/GPX/gpx_style/0/2">
        <color>0000FF</color>
        <width>4</width>
      </line>
    </extensions>
    <trkseg>
      <trkpt lat="45.11417" lon="5.33083">
        <ele>244.474648</ele>
        <time>2022-07-23T21:53:01.188Z</time>
      </trkpt>
      <trkpt lat="45.1155" lon="5.332">
        <ele>244.360044</ele>
        <time>2022-07-23T21:53:56.653Z</time>
      </trkpt>
      <trkpt lat="45.11601" lon="5.3325">
        <ele>245.040472</ele>
        <time>2022-07-23T21:54:22.502Z</time>
      </trkpt>
      <trkpt lat="45.11608" lon="5.33254">
        <ele>245.129231</ele>
        <time>2022-07-23T21:54:25.670Z</time>
      </trkpt>
      <trkpt lat="45.11637" lon="5.33268">
        <ele>245.464484</ele>
        <time>2022-07-23T21:54:36.919Z</time>
      </trkpt>
      <trkpt lat="45.11714" lon="5.33328">
        <ele>247.273531</ele>
        <time>2022-07-23T21:55:04.883Z</time>
      </trkpt>
      <trkpt lat="45.11859" lon="5.33457">
        <ele>253.459215</ele>
        <time>2022-07-23T21:56:31.133Z</time>
      </trkpt>
      <trkpt lat="45.11854" lon="5.33479">
        <ele>254.483769</ele>
        <time>2022-07-23T21:56:43.773Z</time>
      </trkpt>
      <trkpt lat="45.11849" lon="5.3349">
        <ele>255.048165</ele>
        <time>2022-07-23T21:56:48.216Z</time>
      </trkpt>
      <trkpt lat="45.11837" lon="5.33505">
        <ele>256.003799</ele>
        <time>2022-07-23T21:56:58.252Z</time>
      </trkpt>
      <trkpt lat="45.11818" lon="5.33523">
        <ele>257.440311</ele>
        <time>2022-07-23T21:57:13.332Z</time>
      </trkpt>
      <trkpt lat="45.11795" lon="5.33566">
        <ele>259.815874</ele>
        <time>2022-07-23T21:57:39.146Z</time>
      </trkpt>
      <trkpt lat="45.11772" lon="5.33596">
        <ele>261.76515</ele>
        <time>2022-07-23T21:58:01.379Z</time>
      </trkpt>
      <trkpt lat="45.11739" lon="5.33631">
        <ele>264.504</ele>
        <time>2022-07-23T21:58:31.868Z</time>
      </trkpt>
      <trkpt lat="45.11734" lon="5.33633">
        <ele>264.848194</ele>
        <time>2022-07-23T21:58:35.385Z</time>
      </trkpt>
      <trkpt lat="45.11728" lon="5.3363">
        <ele>265.253974</ele>
        <time>2022-07-23T21:58:39.129Z</time>
      </trkpt>
      <trkpt lat="45.11636" lon="5.33586">
        <ele>271.608438</ele>
        <time>2022-07-23T21:59:35.289Z</time>
      </trkpt>
      <trkpt lat="45.11621" lon="5.3359">
        <ele>272.626306</ele>
        <time>2022-07-23T21:59:45.870Z</time>
      </trkpt>
      <trkpt lat="45.11614" lon="5.33596">
        <ele>273.19515</ele>
        <time>2022-07-23T21:59:51.550Z</time>
      </trkpt>
      <trkpt lat="45.11599" lon="5.3362">
        <ele>274.880603</ele>
        <time>2022-07-23T22:00:07.698Z</time>
      </trkpt>
      <trkpt lat="45.11567" lon="5.33682">
        <ele>279.58288</ele>
        <time>2022-07-23T22:00:46.910Z</time>
      </trkpt>
      <trkpt lat="45.1154" lon="5.33763">
        <ele>285.034547</ele>
        <time>2022-07-23T22:01:33.853Z</time>
      </trkpt>
      <trkpt lat="45.11522" lon="5.33822">
        <ele>288.920432</ele>
        <time>2022-07-23T22:02:10.116Z</time>
      </trkpt>
      <trkpt lat="45.11508" lon="5.33857">
        <ele>291.48701</ele>
        <time>2022-07-23T22:02:34.831Z</time>
      </trkpt>
      <trkpt lat="45.11493" lon="5.3388">
        <ele>293.483093</ele>
        <time>2022-07-23T22:02:52.718Z</time>
      </trkpt>
      <trkpt lat="45.11485" lon="5.33903">
        <ele>295.107374</ele>
        <time>2022-07-23T22:03:08.455Z</time>
      </trkpt>
      <trkpt lat="45.1149" lon="5.33927">
        <ele>296.728455</ele>
        <time>2022-07-23T22:03:22.302Z</time>
      </trkpt>
      <trkpt lat="45.11487" lon="5.33957">
        <ele>298.698605</ele>
        <time>2022-07-23T22:03:39.432Z</time>
      </trkpt>
      <trkpt lat="45.11474" lon="5.33987">
        <ele>300.912837</ele>
        <time>2022-07-23T22:03:58.101Z</time>
      </trkpt>
      <trkpt lat="45.11502" lon="5.34091">
        <ele>307.640795</ele>
        <time>2022-07-23T22:04:44.423Z</time>
      </trkpt>
      <trkpt lat="45.11541" lon="5.3439">
        <ele>323.025877</ele>
        <time>2022-07-23T22:06:45.300Z</time>
      </trkpt>
      <trkpt lat="45.11569" lon="5.34559">
        <ele>331.42088</ele>
        <time>2022-07-23T22:07:48.840Z</time>
      </trkpt>
      <trkpt lat="45.11561" lon="5.34592">
        <ele>333.539574</ele>
        <time>2022-07-23T22:08:01.384Z</time>
      </trkpt>
      <trkpt lat="45.11566" lon="5.34626">
        <ele>335.654088</ele>
        <time>2022-07-23T22:08:16.638Z</time>
      </trkpt>
      <trkpt lat="45.11577" lon="5.34653">
        <ele>337.554838</ele>
        <time>2022-07-23T22:08:33.722Z</time>
      </trkpt>
      <trkpt lat="45.11577" lon="5.34668">
        <ele>338.41245</ele>
        <time>2022-07-23T22:08:39.965Z</time>
      </trkpt>
      <trkpt lat="45.1157" lon="5.34684">
        <ele>339.577944</ele>
        <time>2022-07-23T22:08:49.953Z</time>
      </trkpt>
      <trkpt lat="45.11556" lon="5.34729">
        <ele>342.513341</ele>
        <time>2022-07-23T22:09:13.452Z</time>
      </trkpt>
      <trkpt lat="45.11549" lon="5.34745">
        <ele>343.679305</ele>
        <time>2022-07-23T22:09:23.094Z</time>
      </trkpt>
      <trkpt lat="45.11523" lon="5.34791">
        <ele>346.840378</ele>
        <time>2022-07-23T22:09:47.786Z</time>
      </trkpt>
      <trkpt lat="45.11498" lon="5.34814">
        <ele>347.778418</ele>
        <time>2022-07-23T22:10:07.139Z</time>
      </trkpt>
      <trkpt lat="45.11494" lon="5.34831">
        <ele>348.166431</ele>
        <time>2022-07-23T22:10:13.233Z</time>
      </trkpt>
      <trkpt lat="45.11494" lon="5.34857">
        <ele>348.738205</ele>
        <time>2022-07-23T22:10:25.806Z</time>
      </trkpt>
      <trkpt lat="45.1148" lon="5.34892">
        <ele>349.60289</ele>
        <time>2022-07-23T22:10:31.993Z</time>
      </trkpt>
      <trkpt lat="45.11475" lon="5.34938">
        <ele>350.622865</ele>
        <time>2022-07-23T22:10:41.923Z</time>
      </trkpt>
      <trkpt lat="45.11472" lon="5.34947">
        <ele>350.84226</ele>
        <time>2022-07-23T22:10:44.990Z</time>
      </trkpt>
      <trkpt lat="45.11457" lon="5.34967">
        <ele>351.496402</ele>
        <time>2022-07-23T22:10:51.576Z</time>
      </trkpt>
      <trkpt lat="45.11422" lon="5.34988">
        <ele>351.415459</ele>
        <time>2022-07-23T22:10:58.088Z</time>
      </trkpt>
      <trkpt lat="45.11417" lon="5.34995">
        <ele>351.093095</ele>
        <time>2022-07-23T22:10:58.892Z</time>
      </trkpt>
      <trkpt lat="45.11414" lon="5.3502">
        <ele>350.204378</ele>
        <time>2022-07-23T22:11:01.770Z</time>
      </trkpt>
      <trkpt lat="45.11416" lon="5.35027">
        <ele>349.941633</ele>
        <time>2022-07-23T22:11:02.421Z</time>
      </trkpt>
      <trkpt lat="45.1143" lon="5.35028">
        <ele>349.23009</ele>
        <time>2022-07-23T22:11:04.194Z</time>
      </trkpt>
      <trkpt lat="45.11463" lon="5.3502">
        <ele>347.60858</ele>
        <time>2022-07-23T22:11:08.512Z</time>
      </trkpt>
      <trkpt lat="45.11487" lon="5.35001">
        <ele>346.233514</ele>
        <time>2022-07-23T22:11:12.381Z</time>
      </trkpt>
      <trkpt lat="45.11514" lon="5.34994">
        <ele>344.890896</ele>
        <time>2022-07-23T22:11:16.447Z</time>
      </trkpt>
      <trkpt lat="45.11543" lon="5.34976">
        <ele>343.327697</ele>
        <time>2022-07-23T22:11:21.095Z</time>
      </trkpt>
      <trkpt lat="45.11552" lon="5.34974">
        <ele>343.435978</ele>
        <time>2022-07-23T22:11:22.255Z</time>
      </trkpt>
      <trkpt lat="45.11555" lon="5.34975">
        <ele>343.490879</ele>
        <time>2022-07-23T22:11:22.718Z</time>
      </trkpt>
      <trkpt lat="45.11572" lon="5.34994">
        <ele>343.817257</ele>
        <time>2022-07-23T22:11:25.824Z</time>
      </trkpt>
      <trkpt lat="45.11597" lon="5.3503">
        <ele>344.368439</ele>
        <time>2022-07-23T22:11:34.163Z</time>
      </trkpt>
      <trkpt lat="45.11658" lon="5.35081">
        <ele>345.462653</ele>
        <time>2022-07-23T22:12:05.881Z</time>
      </trkpt>
      <trkpt lat="45.11684" lon="5.35106">
        <ele>345.946229</ele>
        <time>2022-07-23T22:12:22.028Z</time>
      </trkpt>
      <trkpt lat="45.11739" lon="5.35184">
        <ele>350.822573</ele>
        <time>2022-07-23T22:13:18.948Z</time>
      </trkpt>
      <trkpt lat="45.11753" lon="5.35208">
        <ele>352.336563</ele>
        <time>2022-07-23T22:13:35.006Z</time>
      </trkpt>
      <trkpt lat="45.11773" lon="5.3526">
        <ele>355.242285</ele>
        <time>2022-07-23T22:13:58.269Z</time>
      </trkpt>
      <trkpt lat="45.11817" lon="5.35425">
        <ele>361.907601</ele>
        <time>2022-07-23T22:15:01.063Z</time>
      </trkpt>
      <trkpt lat="45.11828" lon="5.35481">
        <ele>363.729843</ele>
        <time>2022-07-23T22:15:17.658Z</time>
      </trkpt>
      <trkpt lat="45.11842" lon="5.35506">
        <ele>364.759214</ele>
        <time>2022-07-23T22:15:28.177Z</time>
      </trkpt>
      <trkpt lat="45.11895" lon="5.35615">
        <ele>367.072813</ele>
        <time>2022-07-23T22:16:10.609Z</time>
      </trkpt>
      <trkpt lat="45.11943" lon="5.35735">
        <ele>368.145219</ele>
        <time>2022-07-23T22:16:43.860Z</time>
      </trkpt>
      <trkpt lat="45.1196" lon="5.35761">
        <ele>368.415793</ele>
        <time>2022-07-23T22:16:51.446Z</time>
      </trkpt>
      <trkpt lat="45.11972" lon="5.35797">
        <ele>368.19954</ele>
        <time>2022-07-23T22:17:00.423Z</time>
      </trkpt>
      <trkpt lat="45.11972" lon="5.35817">
        <ele>368.05908</ele>
        <time>2022-07-23T22:17:05.900Z</time>
      </trkpt>
      <trkpt lat="45.11977" lon="5.35837">
        <ele>367.910751</ele>
        <time>2022-07-23T22:17:10.433Z</time>
      </trkpt>
      <trkpt lat="45.11975" lon="5.35892">
        <ele>367.52701</ele>
        <time>2022-07-23T22:17:22.805Z</time>
      </trkpt>
      <trkpt lat="45.11989" lon="5.35948">
        <ele>367.106881</ele>
        <time>2022-07-23T22:17:36.959Z</time>
      </trkpt>
      <trkpt lat="45.11981" lon="5.35962">
        <ele>366.984054</ele>
        <time>2022-07-23T22:17:42.857Z</time>
      </trkpt>
      <trkpt lat="45.11971" lon="5.3599">
        <ele>366.763707</ele>
        <time>2022-07-23T22:17:48.433Z</time>
      </trkpt>
      <trkpt lat="45.11969" lon="5.36013">
        <ele>366.287644</ele>
        <time>2022-07-23T22:17:52.150Z</time>
      </trkpt>
      <trkpt lat="45.11956" lon="5.36027">
        <ele>365.311073</ele>
        <time>2022-07-23T22:17:56.135Z</time>
      </trkpt>
      <trkpt lat="45.11946" lon="5.36063">
        <ele>363.606931</ele>
        <time>2022-07-23T22:18:02.409Z</time>
      </trkpt>
      <trkpt lat="45.11911" lon="5.36063">
        <ele>361.485685</ele>
        <time>2022-07-23T22:18:10.302Z</time>
      </trkpt>
      <trkpt lat="45.11885" lon="5.36085">
        <ele>359.634587</ele>
        <time>2022-07-23T22:18:17.347Z</time>
      </trkpt>
      <trkpt lat="45.1188" lon="5.36096">
        <ele>359.09178</ele>
        <time>2022-07-23T22:18:19.501Z</time>
      </trkpt>
      <trkpt lat="45.1188" lon="5.36107">
        <ele>358.587121</ele>
        <time>2022-07-23T22:18:21.665Z</time>
      </trkpt>
      <trkpt lat="45.11887" lon="5.36118">
        <ele>357.948213</ele>
        <time>2022-07-23T22:18:23.752Z</time>
      </trkpt>
      <trkpt lat="45.11932" lon="5.36139">
        <ele>355.455972</ele>
        <time>2022-07-23T22:18:34.930Z</time>
      </trkpt>
      <trkpt lat="45.11972" lon="5.36125">
        <ele>354.571569</ele>
        <time>2022-07-23T22:18:44.429Z</time>
      </trkpt>
      <trkpt lat="45.12004" lon="5.36118">
        <ele>353.889107</ele>
        <time>2022-07-23T22:18:51.929Z</time>
      </trkpt>
      <trkpt lat="45.12043" lon="5.36099">
        <ele>353.010482</ele>
        <time>2022-07-23T22:19:02.237Z</time>
      </trkpt>
      <trkpt lat="45.12063" lon="5.36095">
        <ele>352.589833</ele>
        <time>2022-07-23T22:19:12.310Z</time>
      </trkpt>
      <trkpt lat="45.12078" lon="5.36085">
        <ele>352.23741</ele>
        <time>2022-07-23T22:19:20.308Z</time>
      </trkpt>
      <trkpt lat="45.12093" lon="5.3608">
        <ele>351.904456</ele>
        <time>2022-07-23T22:19:30.001Z</time>
      </trkpt>
      <trkpt lat="45.12102" lon="5.36077">
        <ele>352.243862</ele>
        <time>2022-07-23T22:19:36.248Z</time>
      </trkpt>
      <trkpt lat="45.12117" lon="5.36084">
        <ele>353.193794</ele>
        <time>2022-07-23T22:19:45.845Z</time>
      </trkpt>
      <trkpt lat="45.12106" lon="5.36155">
        <ele>356.364128</ele>
        <time>2022-07-23T22:20:13.747Z</time>
      </trkpt>
      <trkpt lat="45.12062" lon="5.36231">
        <ele>360.62705</ele>
        <time>2022-07-23T22:20:50.683Z</time>
      </trkpt>
      <trkpt lat="45.12058" lon="5.36246">
        <ele>361.318729</ele>
        <time>2022-07-23T22:20:56.707Z</time>
      </trkpt>
      <trkpt lat="45.12058" lon="5.36265">
        <ele>362.146452</ele>
        <time>2022-07-23T22:21:04.208Z</time>
      </trkpt>
      <trkpt lat="45.1212" lon="5.3626">
        <ele>363.649987</ele>
        <time>2022-07-23T22:21:35.024Z</time>
      </trkpt>
      <trkpt lat="45.12135" lon="5.36262">
        <ele>363.878613</ele>
        <time>2022-07-23T22:21:40.570Z</time>
      </trkpt>
      <trkpt lat="45.12162" lon="5.36263">
        <ele>364.296612</ele>
        <time>2022-07-23T22:21:48.916Z</time>
      </trkpt>
      <trkpt lat="45.12169" lon="5.36261">
        <ele>364.408042</ele>
        <time>2022-07-23T22:21:50.613Z</time>
      </trkpt>
      <trkpt lat="45.12175" lon="5.36256">
        <ele>364.510259</ele>
        <time>2022-07-23T22:21:51.763Z</time>
      </trkpt>
      <trkpt lat="45.12202" lon="5.36294">
        <ele>365.102856</ele>
        <time>2022-07-23T22:21:58.312Z</time>
      </trkpt>
      <trkpt lat="45.12204" lon="5.36299">
        <ele>365.168411</ele>
        <time>2022-07-23T22:21:58.977Z</time>
      </trkpt>
      <trkpt lat="45.12237" lon="5.36363">
        <ele>364.940432</ele>
        <time>2022-07-23T22:22:07.173Z</time>
      </trkpt>
      <trkpt lat="45.12261" lon="5.36389">
        <ele>364.125011</ele>
        <time>2022-07-23T22:22:11.403Z</time>
      </trkpt>
      <trkpt lat="45.12297" lon="5.36419">
        <ele>362.991261</ele>
        <time>2022-07-23T22:22:17.333Z</time>
      </trkpt>
      <trkpt lat="45.1231" lon="5.36434">
        <ele>362.54142</ele>
        <time>2022-07-23T22:22:19.585Z</time>
      </trkpt>
      <trkpt lat="45.12321" lon="5.36457">
        <ele>362.013003</ele>
        <time>2022-07-23T22:22:22.308Z</time>
      </trkpt>
      <trkpt lat="45.12338" lon="5.36503">
        <ele>361.012734</ele>
        <time>2022-07-23T22:22:27.818Z</time>
      </trkpt>
      <trkpt lat="45.12345" lon="5.36525">
        <ele>360.910051</ele>
        <time>2022-07-23T22:22:30.554Z</time>
      </trkpt>
      <trkpt lat="45.12363" lon="5.36545">
        <ele>361.329935</ele>
        <time>2022-07-23T22:22:34.974Z</time>
      </trkpt>
      <trkpt lat="45.12389" lon="5.36564">
        <ele>361.853491</ele>
        <time>2022-07-23T22:22:42.832Z</time>
      </trkpt>
      <trkpt lat="45.12423" lon="5.36582">
        <ele>362.523532</ele>
        <time>2022-07-23T22:22:55.427Z</time>
      </trkpt>
      <trkpt lat="45.1243" lon="5.36706">
        <ele>364.126538</ele>
        <time>2022-07-23T22:23:26.425Z</time>
      </trkpt>
      <trkpt lat="45.12432" lon="5.3672">
        <ele>364.280452</ele>
        <time>2022-07-23T22:23:28.583Z</time>
      </trkpt>
      <trkpt lat="45.12441" lon="5.36741">
        <ele>364.562805</ele>
        <time>2022-07-23T22:23:36.996Z</time>
      </trkpt>
      <trkpt lat="45.12471" lon="5.36767">
        <ele>365.134064</ele>
        <time>2022-07-23T22:23:49.707Z</time>
      </trkpt>
      <trkpt lat="45.12535" lon="5.36802">
        <ele>366.255696</ele>
        <time>2022-07-23T22:24:11.066Z</time>
      </trkpt>
      <trkpt lat="45.12557" lon="5.36819">
        <ele>366.655029</ele>
        <time>2022-07-23T22:24:15.472Z</time>
      </trkpt>
      <trkpt lat="45.12629" lon="5.3685">
        <ele>366.2137</ele>
        <time>2022-07-23T22:24:28.488Z</time>
      </trkpt>
      <trkpt lat="45.12645" lon="5.3686">
        <ele>365.973845</ele>
        <time>2022-07-23T22:24:31.896Z</time>
      </trkpt>
      <trkpt lat="45.12655" lon="5.36871">
        <ele>365.807052</ele>
        <time>2022-07-23T22:24:33.713Z</time>
      </trkpt>
      <trkpt lat="45.12665" lon="5.36881">
        <ele>365.63948</ele>
        <time>2022-07-23T22:24:35.880Z</time>
      </trkpt>
      <trkpt lat="45.1267" lon="5.36886">
        <ele>365.563954</ele>
        <time>2022-07-23T22:24:37.660Z</time>
      </trkpt>
      <trkpt lat="45.12687" lon="5.36919">
        <ele>365.165795</ele>
        <time>2022-07-23T22:24:42.495Z</time>
      </trkpt>
      <trkpt lat="45.12706" lon="5.36941">
        <ele>364.83386</ele>
        <time>2022-07-23T22:24:46.658Z</time>
      </trkpt>
      <trkpt lat="45.12752" lon="5.36981">
        <ele>364.22149</ele>
        <time>2022-07-23T22:24:55.904Z</time>
      </trkpt>
      <trkpt lat="45.12774" lon="5.37008">
        <ele>363.931952</ele>
        <time>2022-07-23T22:25:00.624Z</time>
      </trkpt>
      <trkpt lat="45.12793" lon="5.37039">
        <ele>363.633279</ele>
        <time>2022-07-23T22:25:06.477Z</time>
      </trkpt>
      <trkpt lat="45.12823" lon="5.37071">
        <ele>363.257301</ele>
        <time>2022-07-23T22:25:13.186Z</time>
      </trkpt>
      <trkpt lat="45.12839" lon="5.37081">
        <ele>363.079261</ele>
        <time>2022-07-23T22:25:16.571Z</time>
      </trkpt>
      <trkpt lat="45.12871" lon="5.37089">
        <ele>362.748099</ele>
        <time>2022-07-23T22:25:22.452Z</time>
      </trkpt>
      <trkpt lat="45.12903" lon="5.37139">
        <ele>361.703798</ele>
        <time>2022-07-23T22:25:31.420Z</time>
      </trkpt>
      <trkpt lat="45.12933" lon="5.37196">
        <ele>360.587626</ele>
        <time>2022-07-23T22:25:39.787Z</time>
      </trkpt>
      <trkpt lat="45.12936" lon="5.37205">
        <ele>360.429899</ele>
        <time>2022-07-23T22:25:40.838Z</time>
      </trkpt>
      <trkpt lat="45.12935" lon="5.37227">
        <ele>360.083227</ele>
        <time>2022-07-23T22:25:43.738Z</time>
      </trkpt>
      <trkpt lat="45.12935" lon="5.37236">
        <ele>359.937961</ele>
        <time>2022-07-23T22:25:44.693Z</time>
      </trkpt>
      <trkpt lat="45.12945" lon="5.37249">
        <ele>359.642424</ele>
        <time>2022-07-23T22:25:46.568Z</time>
      </trkpt>
      <trkpt lat="45.12972" lon="5.37268">
        <ele>358.95508</ele>
        <time>2022-07-23T22:25:51.414Z</time>
      </trkpt>
      <trkpt lat="45.13011" lon="5.37274">
        <ele>357.04818</ele>
        <time>2022-07-23T22:25:57.060Z</time>
      </trkpt>
      <trkpt lat="45.13029" lon="5.37272">
        <ele>355.908151</ele>
        <time>2022-07-23T22:25:59.834Z</time>
      </trkpt>
      <trkpt lat="45.13081" lon="5.37247">
        <ele>352.578218</ele>
        <time>2022-07-23T22:26:07.204Z</time>
      </trkpt>
      <trkpt lat="45.13185" lon="5.37292">
        <ele>346.177871</ele>
        <time>2022-07-23T22:26:31.871Z</time>
      </trkpt>
      <trkpt lat="45.13199" lon="5.37294">
        <ele>345.433425</ele>
        <time>2022-07-23T22:26:33.637Z</time>
      </trkpt>
      <trkpt lat="45.1321" lon="5.37289">
        <ele>344.815933</ele>
        <time>2022-07-23T22:26:35.256Z</time>
      </trkpt>
      <trkpt lat="45.13225" lon="5.37274">
        <ele>343.782882</ele>
        <time>2022-07-23T22:26:37.802Z</time>
      </trkpt>
      <trkpt lat="45.13228" lon="5.37259">
        <ele>343.190662</ele>
        <time>2022-07-23T22:26:39.319Z</time>
      </trkpt>
      <trkpt lat="45.13223" lon="5.37204">
        <ele>341.091964</ele>
        <time>2022-07-23T22:26:44.769Z</time>
      </trkpt>
      <trkpt lat="45.13206" lon="5.37154">
        <ele>338.979061</ele>
        <time>2022-07-23T22:26:50.428Z</time>
      </trkpt>
      <trkpt lat="45.13202" lon="5.3713">
        <ele>338.026193</ele>
        <time>2022-07-23T22:26:52.985Z</time>
      </trkpt>
      <trkpt lat="45.13257" lon="5.37193">
        <ele>337.388465</ele>
        <time>2022-07-23T22:27:04.338Z</time>
      </trkpt>
      <trkpt lat="45.13257" lon="5.37193">
        <ele>337.388465</ele>
        <time>2022-07-23T22:27:04.340Z</time>
      </trkpt>
      <trkpt lat="45.13271" lon="5.37216">
        <ele>337.193709</ele>
        <time>2022-07-23T22:27:08.569Z</time>
      </trkpt>
      <trkpt lat="45.13276" lon="5.37242">
        <ele>337.023855</ele>
        <time>2022-07-23T22:27:12.122Z</time>
      </trkpt>
      <trkpt lat="45.13264" lon="5.3727">
        <ele>336.817578</ele>
        <time>2022-07-23T22:27:17.745Z</time>
      </trkpt>
      <trkpt lat="45.13227" lon="5.37334">
        <ele>336.046504</ele>
        <time>2022-07-23T22:27:29.598Z</time>
      </trkpt>
      <trkpt lat="45.13203" lon="5.37395">
        <ele>334.626141</ele>
        <time>2022-07-23T22:27:37.923Z</time>
      </trkpt>
      <trkpt lat="45.13187" lon="5.37448">
        <ele>333.443402</ele>
        <time>2022-07-23T22:27:44.514Z</time>
      </trkpt>
      <trkpt lat="45.13187" lon="5.37462">
        <ele>333.148965</ele>
        <time>2022-07-23T22:27:46.982Z</time>
      </trkpt>
      <trkpt lat="45.13191" lon="5.37468">
        <ele>332.995112</ele>
        <time>2022-07-23T22:27:47.749Z</time>
      </trkpt>
      <trkpt lat="45.13203" lon="5.37476">
        <ele>332.619582</ele>
        <time>2022-07-23T22:27:49.608Z</time>
      </trkpt>
      <trkpt lat="45.13212" lon="5.37472">
        <ele>332.325771</ele>
        <time>2022-07-23T22:27:50.836Z</time>
      </trkpt>
      <trkpt lat="45.13226" lon="5.37451">
        <ele>331.734057</ele>
        <time>2022-07-23T22:27:53.654Z</time>
      </trkpt>
      <trkpt lat="45.13254" lon="5.37378">
        <ele>328.205601</ele>
        <time>2022-07-23T22:28:00.832Z</time>
      </trkpt>
      <trkpt lat="45.1326" lon="5.37367">
        <ele>327.488882</ele>
        <time>2022-07-23T22:28:02.006Z</time>
      </trkpt>
      <trkpt lat="45.13267" lon="5.3736">
        <ele>326.822329</ele>
        <time>2022-07-23T22:28:03.088Z</time>
      </trkpt>
      <trkpt lat="45.13279" lon="5.37354">
        <ele>325.867773</ele>
        <time>2022-07-23T22:28:04.563Z</time>
      </trkpt>
      <trkpt lat="45.13354" lon="5.37373">
        <ele>320.152855</ele>
        <time>2022-07-23T22:28:13.885Z</time>
      </trkpt>
      <trkpt lat="45.13368" lon="5.37376">
        <ele>319.03312</ele>
        <time>2022-07-23T22:28:15.813Z</time>
      </trkpt>
      <trkpt lat="45.13428" lon="5.3741">
        <ele>316.883836</ele>
        <time>2022-07-23T22:28:24.162Z</time>
      </trkpt>
      <trkpt lat="45.13498" lon="5.3745">
        <ele>315.597539</ele>
        <time>2022-07-23T22:28:35.315Z</time>
      </trkpt>
      <trkpt lat="45.13505" lon="5.37453">
        <ele>315.473559</ele>
        <time>2022-07-23T22:28:37.297Z</time>
      </trkpt>
      <trkpt lat="45.13523" lon="5.37471">
        <ele>315.10484</ele>
        <time>2022-07-23T22:28:43.658Z</time>
      </trkpt>
      <trkpt lat="45.13539" lon="5.37476">
        <ele>314.828044</ele>
        <time>2022-07-23T22:28:49.573Z</time>
      </trkpt>
      <trkpt lat="45.13642" lon="5.3749">
        <ele>319.807999</ele>
        <time>2022-07-23T22:29:32.352Z</time>
      </trkpt>
      <trkpt lat="45.13611" lon="5.37555">
        <ele>322.958135</ele>
        <time>2022-07-23T22:29:59.081Z</time>
      </trkpt>
      <trkpt lat="45.13567" lon="5.37674">
        <ele>330.64126</ele>
        <time>2022-07-23T22:31:04.059Z</time>
      </trkpt>
      <trkpt lat="45.13531" lon="5.37747">
        <ele>336.594321</ele>
        <time>2022-07-23T22:31:45.588Z</time>
      </trkpt>
      <trkpt lat="45.13526" lon="5.37753">
        <ele>337.231008</ele>
        <time>2022-07-23T22:31:52.924Z</time>
      </trkpt>
      <trkpt lat="45.13524" lon="5.37759">
        <ele>337.691996</ele>
        <time>2022-07-23T22:31:57.026Z</time>
      </trkpt>
      <trkpt lat="45.13522" lon="5.37765">
        <ele>338.108816</ele>
        <time>2022-07-23T22:32:00.767Z</time>
      </trkpt>
      <trkpt lat="45.13579" lon="5.37811">
        <ele>343.687393</ele>
        <time>2022-07-23T22:32:53.848Z</time>
      </trkpt>
      <trkpt lat="45.13592" lon="5.37823">
        <ele>344.772721</ele>
        <time>2022-07-23T22:33:04.435Z</time>
      </trkpt>
      <trkpt lat="45.13618" lon="5.37847">
        <ele>346.88692</ele>
        <time>2022-07-23T22:33:27.665Z</time>
      </trkpt>
      <trkpt lat="45.13615" lon="5.37881">
        <ele>348.518708</ele>
        <time>2022-07-23T22:33:45.439Z</time>
      </trkpt>
      <trkpt lat="45.13641" lon="5.37889">
        <ele>350.402131</ele>
        <time>2022-07-23T22:34:01.288Z</time>
      </trkpt>
      <trkpt lat="45.13697" lon="5.37953">
        <ele>354.533809</ele>
        <time>2022-07-23T22:34:39.213Z</time>
      </trkpt>
      <trkpt lat="45.13752" lon="5.37997">
        <ele>355.498942</ele>
        <time>2022-07-23T22:35:12.142Z</time>
      </trkpt>
      <trkpt lat="45.13784" lon="5.38032">
        <ele>356.111268</ele>
        <time>2022-07-23T22:35:26.976Z</time>
      </trkpt>
      <trkpt lat="45.13831" lon="5.38056">
        <ele>356.874948</ele>
        <time>2022-07-23T22:35:42.130Z</time>
      </trkpt>
      <trkpt lat="45.13851" lon="5.3807">
        <ele>356.3978</ele>
        <time>2022-07-23T22:35:48.041Z</time>
      </trkpt>
      <trkpt lat="45.13863" lon="5.38089">
        <ele>355.410504</ele>
        <time>2022-07-23T22:35:53.327Z</time>
      </trkpt>
      <trkpt lat="45.13881" lon="5.38147">
        <ele>352.918799</ele>
        <time>2022-07-23T22:36:04.957Z</time>
      </trkpt>
      <trkpt lat="45.13884" lon="5.38141">
        <ele>352.660959</ele>
        <time>2022-07-23T22:36:05.853Z</time>
      </trkpt>
      <trkpt lat="45.13882" lon="5.38124">
        <ele>351.964621</ele>
        <time>2022-07-23T22:36:09.142Z</time>
      </trkpt>
      <trkpt lat="45.13884" lon="5.38122">
        <ele>351.862222</ele>
        <time>2022-07-23T22:36:09.631Z</time>
      </trkpt>
      <trkpt lat="45.1391" lon="5.38147">
        <ele>350.096217</ele>
        <time>2022-07-23T22:36:16.785Z</time>
      </trkpt>
      <trkpt lat="45.13951" lon="5.38168">
        <ele>347.68151</ele>
        <time>2022-07-23T22:36:26.532Z</time>
      </trkpt>
      <trkpt lat="45.13961" lon="5.38169">
        <ele>347.088893</ele>
        <time>2022-07-23T22:36:28.975Z</time>
      </trkpt>
      <trkpt lat="45.13967" lon="5.38164">
        <ele>346.552667</ele>
        <time>2022-07-23T22:36:30.233Z</time>
      </trkpt>
      <trkpt lat="45.13996" lon="5.38121">
        <ele>342.476846</ele>
        <time>2022-07-23T22:36:39.304Z</time>
      </trkpt>
      <trkpt lat="45.14012" lon="5.38101">
        <ele>340.495324</ele>
        <time>2022-07-23T22:36:43.914Z</time>
      </trkpt>
      <trkpt lat="45.14025" lon="5.38088">
        <ele>338.924225</ele>
        <time>2022-07-23T22:36:47.467Z</time>
      </trkpt>
      <trkpt lat="45.14041" lon="5.38078">
        <ele>337.311296</ele>
        <time>2022-07-23T22:36:51.220Z</time>
      </trkpt>
      <trkpt lat="45.14052" lon="5.38059">
        <ele>335.633809</ele>
        <time>2022-07-23T22:36:54.989Z</time>
      </trkpt>
      <trkpt lat="45.14066" lon="5.38028">
        <ele>333.134153</ele>
        <time>2022-07-23T22:37:00.639Z</time>
      </trkpt>
      <trkpt lat="45.14077" lon="5.37945">
        <ele>327.056746</ele>
        <time>2022-07-23T22:37:13.382Z</time>
      </trkpt>
      <trkpt lat="45.14085" lon="5.37919">
        <ele>324.909137</ele>
        <time>2022-07-23T22:37:17.500Z</time>
      </trkpt>
      <trkpt lat="45.14125" lon="5.37851">
        <ele>317.997871</ele>
        <time>2022-07-23T22:37:30.708Z</time>
      </trkpt>
      <trkpt lat="45.14151" lon="5.37813">
        <ele>313.82127</ele>
        <time>2022-07-23T22:37:35.439Z</time>
      </trkpt>
      <trkpt lat="45.14184" lon="5.37781">
        <ele>309.254123</ele>
        <time>2022-07-23T22:37:40.452Z</time>
      </trkpt>
      <trkpt lat="45.14204" lon="5.37756">
        <ele>305.821325</ele>
        <time>2022-07-23T22:37:43.682Z</time>
      </trkpt>
      <trkpt lat="45.14245" lon="5.3772">
        <ele>299.419073</ele>
        <time>2022-07-23T22:37:49.678Z</time>
      </trkpt>
      <trkpt lat="45.14271" lon="5.37694">
        <ele>295.300592</ele>
        <time>2022-07-23T22:37:53.469Z</time>
      </trkpt>
      <trkpt lat="45.14297" lon="5.37656">
        <ele>290.38981</ele>
        <time>2022-07-23T22:37:58.043Z</time>
      </trkpt>
      <trkpt lat="45.14326" lon="5.37639">
        <ele>286.181614</ele>
        <time>2022-07-23T22:38:01.953Z</time>
      </trkpt>
      <trkpt lat="45.14335" lon="5.3763">
        <ele>285.131351</ele>
        <time>2022-07-23T22:38:03.295Z</time>
      </trkpt>
      <trkpt lat="45.1434" lon="5.37619">
        <ele>284.257613</ele>
        <time>2022-07-23T22:38:04.398Z</time>
      </trkpt>
      <trkpt lat="45.14347" lon="5.37568">
        <ele>280.65393</ele>
        <time>2022-07-23T22:38:08.899Z</time>
      </trkpt>
      <trkpt lat="45.14358" lon="5.37576">
        <ele>279.526972</ele>
        <time>2022-07-23T22:38:10.198Z</time>
      </trkpt>
      <trkpt lat="45.14379" lon="5.37602">
        <ele>276.731833</ele>
        <time>2022-07-23T22:38:13.617Z</time>
      </trkpt>
      <trkpt lat="45.14394" lon="5.37624">
        <ele>274.61588</ele>
        <time>2022-07-23T22:38:16.196Z</time>
      </trkpt>
      <trkpt lat="45.14398" lon="5.37637">
        <ele>273.670773</ele>
        <time>2022-07-23T22:38:17.399Z</time>
      </trkpt>
      <trkpt lat="45.14408" lon="5.37652">
        <ele>272.158538</ele>
        <time>2022-07-23T22:38:19.178Z</time>
      </trkpt>
      <trkpt lat="45.14418" lon="5.3766">
        <ele>271.076206</ele>
        <time>2022-07-23T22:38:20.630Z</time>
      </trkpt>
      <trkpt lat="45.14425" lon="5.37657">
        <ele>270.317905</ele>
        <time>2022-07-23T22:38:21.594Z</time>
      </trkpt>
      <trkpt lat="45.14433" lon="5.3767">
        <ele>269.154572</ele>
        <time>2022-07-23T22:38:23.096Z</time>
      </trkpt>
      <trkpt lat="45.14446" lon="5.37682">
        <ele>268.891191</ele>
        <time>2022-07-23T22:38:26.862Z</time>
      </trkpt>
      <trkpt lat="45.14478" lon="5.37698">
        <ele>270.040185</ele>
        <time>2022-07-23T22:38:37.281Z</time>
      </trkpt>
      <trkpt lat="45.14508" lon="5.37732">
        <ele>271.319068</ele>
        <time>2022-07-23T22:38:57.455Z</time>
      </trkpt>
      <trkpt lat="45.1452" lon="5.37754">
        <ele>271.953672</ele>
        <time>2022-07-23T22:39:03.962Z</time>
      </trkpt>
      <trkpt lat="45.14542" lon="5.37778">
        <ele>272.876577</ele>
        <time>2022-07-23T22:39:21.262Z</time>
      </trkpt>
      <trkpt lat="45.14573" lon="5.37843">
        <ele>275.283252</ele>
        <time>2022-07-23T22:40:02.056Z</time>
      </trkpt>
      <trkpt lat="45.14574" lon="5.37852">
        <ele>276.289885</ele>
        <time>2022-07-23T22:40:11.654Z</time>
      </trkpt>
      <trkpt lat="45.14591" lon="5.37871">
        <ele>279.632539</ele>
        <time>2022-07-23T22:40:27.464Z</time>
      </trkpt>
      <trkpt lat="45.1462" lon="5.37922">
        <ele>286.702554</ele>
        <time>2022-07-23T22:41:10.198Z</time>
      </trkpt>
      <trkpt lat="45.1462" lon="5.37922">
        <ele>286.702554</ele>
        <time>2022-07-23T22:41:10.351Z</time>
      </trkpt>
      <trkpt lat="45.14625" lon="5.37935">
        <ele>288.281227</ele>
        <time>2022-07-23T22:41:24.215Z</time>
      </trkpt>
      <trkpt lat="45.14627" lon="5.37946">
        <ele>289.533975</ele>
        <time>2022-07-23T22:41:34.033Z</time>
      </trkpt>
      <trkpt lat="45.14622" lon="5.38003">
        <ele>295.772676</ele>
        <time>2022-07-23T22:42:22.326Z</time>
      </trkpt>
      <trkpt lat="45.14589" lon="5.38114">
        <ele>311.958513</ele>
        <time>2022-07-23T22:44:12.018Z</time>
      </trkpt>
      <trkpt lat="45.14578" lon="5.38139">
        <ele>316.656298</ele>
        <time>2022-07-23T22:44:42.586Z</time>
      </trkpt>
      <trkpt lat="45.1457" lon="5.38192">
        <ele>325.294668</ele>
        <time>2022-07-23T22:45:31.187Z</time>
      </trkpt>
      <trkpt lat="45.14554" lon="5.38215">
        <ele>330.416621</ele>
        <time>2022-07-23T22:45:57.993Z</time>
      </trkpt>
      <trkpt lat="45.14554" lon="5.38223">
        <ele>331.606982</ele>
        <time>2022-07-23T22:46:05.937Z</time>
      </trkpt>
      <trkpt lat="45.14549" lon="5.38265">
        <ele>338.404872</ele>
        <time>2022-07-23T22:46:46.568Z</time>
      </trkpt>
      <trkpt lat="45.1455" lon="5.38325">
        <ele>348.858875</ele>
        <time>2022-07-23T22:47:48.703Z</time>
      </trkpt>
      <trkpt lat="45.14547" lon="5.38367">
        <ele>356.812416</ele>
        <time>2022-07-23T22:48:32.971Z</time>
      </trkpt>
      <trkpt lat="45.14543" lon="5.38378">
        <ele>359.006405</ele>
        <time>2022-07-23T22:48:45.438Z</time>
      </trkpt>
      <trkpt lat="45.14534" lon="5.3839">
        <ele>362.454833</ele>
        <time>2022-07-23T22:49:04.805Z</time>
      </trkpt>
      <trkpt lat="45.14479" lon="5.38433">
        <ele>379.196234</ele>
        <time>2022-07-23T22:50:37.389Z</time>
      </trkpt>
      <trkpt lat="45.14472" lon="5.38436">
        <ele>381.133045</ele>
        <time>2022-07-23T22:50:48.247Z</time>
      </trkpt>
      <trkpt lat="45.1445" lon="5.38436">
        <ele>386.950033</ele>
        <time>2022-07-23T22:51:15.321Z</time>
      </trkpt>
      <trkpt lat="45.14438" lon="5.38443">
        <ele>390.3056</ele>
        <time>2022-07-23T22:51:34.072Z</time>
      </trkpt>
      <trkpt lat="45.14416" lon="5.38449">
        <ele>395.615607</ele>
        <time>2022-07-23T22:52:01.925Z</time>
      </trkpt>
      <trkpt lat="45.14397" lon="5.38473">
        <ele>401.470443</ele>
        <time>2022-07-23T22:52:39.074Z</time>
      </trkpt>
      <trkpt lat="45.14387" lon="5.38499">
        <ele>406.332092</ele>
        <time>2022-07-23T22:53:09.932Z</time>
      </trkpt>
      <trkpt lat="45.14347" lon="5.38536">
        <ele>417.275003</ele>
        <time>2022-07-23T22:54:18.824Z</time>
      </trkpt>
      <trkpt lat="45.14169" lon="5.38554">
        <ele>459.873468</ele>
        <time>2022-07-23T22:58:31.163Z</time>
      </trkpt>
      <trkpt lat="45.14166" lon="5.38555">
        <ele>460.650254</ele>
        <time>2022-07-23T22:58:37.705Z</time>
      </trkpt>
      <trkpt lat="45.14164" lon="5.3856">
        <ele>461.673671</ele>
        <time>2022-07-23T22:58:40.210Z</time>
      </trkpt>
      <trkpt lat="45.14166" lon="5.38568">
        <ele>463.032667</ele>
        <time>2022-07-23T22:58:46.314Z</time>
      </trkpt>
      <trkpt lat="45.14171" lon="5.38579">
        <ele>465.353043</ele>
        <time>2022-07-23T22:58:57.403Z</time>
      </trkpt>
      <trkpt lat="45.14205" lon="5.38611">
        <ele>475.264512</ele>
        <time>2022-07-23T22:59:57.558Z</time>
      </trkpt>
      <trkpt lat="45.14228" lon="5.38652">
        <ele>484.479865</ele>
        <time>2022-07-23T23:00:51.034Z</time>
      </trkpt>
      <trkpt lat="45.14243" lon="5.38672">
        <ele>489.742854</ele>
        <time>2022-07-23T23:01:22.309Z</time>
      </trkpt>
      <trkpt lat="45.14349" lon="5.38768">
        <ele>521.716868</ele>
        <time>2022-07-23T23:04:25.844Z</time>
      </trkpt>
      <trkpt lat="45.14357" lon="5.3878">
        <ele>523.508209</ele>
        <time>2022-07-23T23:04:43.046Z</time>
      </trkpt>
      <trkpt lat="45.1436" lon="5.38784">
        <ele>524.223635</ele>
        <time>2022-07-23T23:04:50.013Z</time>
      </trkpt>
      <trkpt lat="45.14378" lon="5.38779">
        <ele>527.058428</ele>
        <time>2022-07-23T23:05:07.213Z</time>
      </trkpt>
      <trkpt lat="45.14396" lon="5.38783">
        <ele>529.92775</ele>
        <time>2022-07-23T23:05:34.658Z</time>
      </trkpt>
      <trkpt lat="45.1442" lon="5.38797">
        <ele>533.939898</ele>
        <time>2022-07-23T23:06:00.697Z</time>
      </trkpt>
      <trkpt lat="45.1444" lon="5.38809">
        <ele>537.140808</ele>
        <time>2022-07-23T23:06:22.963Z</time>
      </trkpt>
      <trkpt lat="45.14458" lon="5.38824">
        <ele>540.454122</ele>
        <time>2022-07-23T23:06:45.463Z</time>
      </trkpt>
      <trkpt lat="45.14479" lon="5.38825">
        <ele>543.663799</ele>
        <time>2022-07-23T23:06:58.726Z</time>
      </trkpt>
      <trkpt lat="45.14509" lon="5.38843">
        <ele>548.608842</ele>
        <time>2022-07-23T23:07:24.347Z</time>
      </trkpt>
      <trkpt lat="45.14524" lon="5.38863">
        <ele>551.665328</ele>
        <time>2022-07-23T23:07:39.929Z</time>
      </trkpt>
      <trkpt lat="45.14542" lon="5.38875">
        <ele>554.58297</ele>
        <time>2022-07-23T23:07:55.670Z</time>
      </trkpt>
      <trkpt lat="45.14567" lon="5.38901">
        <ele>559.045502</ele>
        <time>2022-07-23T23:08:26.127Z</time>
      </trkpt>
      <trkpt lat="45.14578" lon="5.38904">
        <ele>560.664769</ele>
        <time>2022-07-23T23:08:38.126Z</time>
      </trkpt>
      <trkpt lat="45.14584" lon="5.38919">
        <ele>562.428311</ele>
        <time>2022-07-23T23:08:53.211Z</time>
      </trkpt>
      <trkpt lat="45.14585" lon="5.38936">
        <ele>564.144468</ele>
        <time>2022-07-23T23:09:08.577Z</time>
      </trkpt>
      <trkpt lat="45.14582" lon="5.38955">
        <ele>566.161209</ele>
        <time>2022-07-23T23:09:24.566Z</time>
      </trkpt>
      <trkpt lat="45.14583" lon="5.38972">
        <ele>567.876125</ele>
        <time>2022-07-23T23:09:38.486Z</time>
      </trkpt>
      <trkpt lat="45.14576" lon="5.38997">
        <ele>570.558717</ele>
        <time>2022-07-23T23:10:00.308Z</time>
      </trkpt>
      <trkpt lat="45.14568" lon="5.39007">
        <ele>572.100898</ele>
        <time>2022-07-23T23:10:11.224Z</time>
      </trkpt>
      <trkpt lat="45.14473" lon="5.39013">
        <ele>585.858809</ele>
        <time>2022-07-23T23:12:00.030Z</time>
      </trkpt>
      <trkpt lat="45.14506" lon="5.39023">
        <ele>590.703165</ele>
        <time>2022-07-23T23:12:34.457Z</time>
      </trkpt>
      <trkpt lat="45.14554" lon="5.39054">
        <ele>598.412013</ele>
        <time>2022-07-23T23:13:26.292Z</time>
      </trkpt>
      <trkpt lat="45.1459" lon="5.39088">
        <ele>602.808517</ele>
        <time>2022-07-23T23:13:55.816Z</time>
      </trkpt>
      <trkpt lat="45.14653" lon="5.39155">
        <ele>607.688114</ele>
        <time>2022-07-23T23:14:24.468Z</time>
      </trkpt>
      <trkpt lat="45.1472" lon="5.39211">
        <ele>612.548074</ele>
        <time>2022-07-23T23:14:59.330Z</time>
      </trkpt>
      <trkpt lat="45.14782" lon="5.3923">
        <ele>619.705774</ele>
        <time>2022-07-23T23:15:41.498Z</time>
      </trkpt>
      <trkpt lat="45.14825" lon="5.39236">
        <ele>624.680188</ele>
        <time>2022-07-23T23:16:15.026Z</time>
      </trkpt>
      <trkpt lat="45.1485" lon="5.39249">
        <ele>627.611524</ele>
        <time>2022-07-23T23:16:37.650Z</time>
      </trkpt>
      <trkpt lat="45.14893" lon="5.3928">
        <ele>633.122471</ele>
        <time>2022-07-23T23:17:22.614Z</time>
      </trkpt>
      <trkpt lat="45.14907" lon="5.39296">
        <ele>635.594945</ele>
        <time>2022-07-23T23:17:39.748Z</time>
      </trkpt>
      <trkpt lat="45.14914" lon="5.39308">
        <ele>637.146588</ele>
        <time>2022-07-23T23:17:50.634Z</time>
      </trkpt>
      <trkpt lat="45.14919" lon="5.39325">
        <ele>638.96822</ele>
        <time>2022-07-23T23:18:04.658Z</time>
      </trkpt>
      <trkpt lat="45.14918" lon="5.39367">
        <ele>643.035799</ele>
        <time>2022-07-23T23:18:33.330Z</time>
      </trkpt>
      <trkpt lat="45.14922" lon="5.3938">
        <ele>644.446095</ele>
        <time>2022-07-23T23:18:44.464Z</time>
      </trkpt>
      <trkpt lat="45.14931" lon="5.39392">
        <ele>646.104988</ele>
        <time>2022-07-23T23:18:55.392Z</time>
      </trkpt>
      <trkpt lat="45.14942" lon="5.39402">
        <ele>647.879614</ele>
        <time>2022-07-23T23:19:07.964Z</time>
      </trkpt>
      <trkpt lat="45.14977" lon="5.39419">
        <ele>652.989574</ele>
        <time>2022-07-23T23:19:40.564Z</time>
      </trkpt>
      <trkpt lat="45.14991" lon="5.39432">
        <ele>655.350192</ele>
        <time>2022-07-23T23:19:54.732Z</time>
      </trkpt>
      <trkpt lat="45.1503" lon="5.39483">
        <ele>659.597407</ele>
        <time>2022-07-23T23:20:32.130Z</time>
      </trkpt>
      <trkpt lat="45.1505" lon="5.39484">
        <ele>660.608565</ele>
        <time>2022-07-23T23:20:45.621Z</time>
      </trkpt>
      <trkpt lat="45.15067" lon="5.3948">
        <ele>661.456246</ele>
        <time>2022-07-23T23:20:54.717Z</time>
      </trkpt>
      <trkpt lat="45.15082" lon="5.39482">
        <ele>662.185968</ele>
        <time>2022-07-23T23:21:01.629Z</time>
      </trkpt>
      <trkpt lat="45.15097" lon="5.3949">
        <ele>663.000787</ele>
        <time>2022-07-23T23:21:08.027Z</time>
      </trkpt>
      <trkpt lat="45.15113" lon="5.39503">
        <ele>663.867383</ele>
        <time>2022-07-23T23:21:14.514Z</time>
      </trkpt>
      <trkpt lat="45.15122" lon="5.39516">
        <ele>664.525007</ele>
        <time>2022-07-23T23:21:18.899Z</time>
      </trkpt>
      <trkpt lat="45.15135" lon="5.39542">
        <ele>665.626537</ele>
        <time>2022-07-23T23:21:24.905Z</time>
      </trkpt>
      <trkpt lat="45.15146" lon="5.39582">
        <ele>666.704592</ele>
        <time>2022-07-23T23:21:30.744Z</time>
      </trkpt>
      <trkpt lat="45.15153" lon="5.39596">
        <ele>666.587989</ele>
        <time>2022-07-23T23:21:33.017Z</time>
      </trkpt>
      <trkpt lat="45.15162" lon="5.39604">
        <ele>666.492235</ele>
        <time>2022-07-23T23:21:34.686Z</time>
      </trkpt>
      <trkpt lat="45.15271" lon="5.39649">
        <ele>665.455197</ele>
        <time>2022-07-23T23:21:51.475Z</time>
      </trkpt>
      <trkpt lat="45.15313" lon="5.39674">
        <ele>666.103397</ele>
        <time>2022-07-23T23:22:07.841Z</time>
      </trkpt>
      <trkpt lat="45.15334" lon="5.39674">
        <ele>668.542226</ele>
        <time>2022-07-23T23:22:17.043Z</time>
      </trkpt>
      <trkpt lat="45.15367" lon="5.39661">
        <ele>672.439614</ele>
        <time>2022-07-23T23:22:37.573Z</time>
      </trkpt>
      <trkpt lat="45.15374" lon="5.39662">
        <ele>673.211017</ele>
        <time>2022-07-23T23:22:42.110Z</time>
      </trkpt>
      <trkpt lat="45.15378" lon="5.39669">
        <ele>673.902698</ele>
        <time>2022-07-23T23:22:47.271Z</time>
      </trkpt>
      <trkpt lat="45.15376" lon="5.39677">
        <ele>674.541003</ele>
        <time>2022-07-23T23:22:51.538Z</time>
      </trkpt>
      <trkpt lat="45.15353" lon="5.39691">
        <ele>677.365397</ele>
        <time>2022-07-23T23:23:10.355Z</time>
      </trkpt>
      <trkpt lat="45.15312" lon="5.39712">
        <ele>682.289545</ele>
        <time>2022-07-23T23:23:54.639Z</time>
      </trkpt>
      <trkpt lat="45.15201" lon="5.39728">
        <ele>698.535662</ele>
        <time>2022-07-23T23:26:04.661Z</time>
      </trkpt>
      <trkpt lat="45.15173" lon="5.39727">
        <ele>702.934339</ele>
        <time>2022-07-23T23:26:35.733Z</time>
      </trkpt>
      <trkpt lat="45.15107" lon="5.39712">
        <ele>713.235867</ele>
        <time>2022-07-23T23:27:28.086Z</time>
      </trkpt>
      <trkpt lat="45.15056" lon="5.39692">
        <ele>717.651171</ele>
        <time>2022-07-23T23:28:04.277Z</time>
      </trkpt>
      <trkpt lat="45.1492" lon="5.39619">
        <ele>728.830146</ele>
        <time>2022-07-23T23:29:25.303Z</time>
      </trkpt>
      <trkpt lat="45.14872" lon="5.39605">
        <ele>731.324036</ele>
        <time>2022-07-23T23:29:49.313Z</time>
      </trkpt>
      <trkpt lat="45.14858" lon="5.39602">
        <ele>732.003936</ele>
        <time>2022-07-23T23:29:55.475Z</time>
      </trkpt>
      <trkpt lat="45.14706" lon="5.39533">
        <ele>738.709132</ele>
        <time>2022-07-23T23:31:01.233Z</time>
      </trkpt>
      <trkpt lat="45.14629" lon="5.3951">
        <ele>740.921934</ele>
        <time>2022-07-23T23:31:26.923Z</time>
      </trkpt>
      <trkpt lat="45.1456" lon="5.39482">
        <ele>741.74099</ele>
        <time>2022-07-23T23:31:47.521Z</time>
      </trkpt>
      <trkpt lat="45.1453" lon="5.39475">
        <ele>741.431864</ele>
        <time>2022-07-23T23:31:55.468Z</time>
      </trkpt>
      <trkpt lat="45.14468" lon="5.39471">
        <ele>740.797841</ele>
        <time>2022-07-23T23:32:06.966Z</time>
      </trkpt>
      <trkpt lat="45.14402" lon="5.39477">
        <ele>740.04468</ele>
        <time>2022-07-23T23:32:16.716Z</time>
      </trkpt>
      <trkpt lat="45.1438" lon="5.39483">
        <ele>739.619784</ele>
        <time>2022-07-23T23:32:19.887Z</time>
      </trkpt>
      <trkpt lat="45.14367" lon="5.39491">
        <ele>739.359128</ele>
        <time>2022-07-23T23:32:22.013Z</time>
      </trkpt>
      <trkpt lat="45.14361" lon="5.39505">
        <ele>739.139004</ele>
        <time>2022-07-23T23:32:23.686Z</time>
      </trkpt>
      <trkpt lat="45.14358" lon="5.39524">
        <ele>738.879384</ele>
        <time>2022-07-23T23:32:25.639Z</time>
      </trkpt>
      <trkpt lat="45.14358" lon="5.39534">
        <ele>738.752079</ele>
        <time>2022-07-23T23:32:26.798Z</time>
      </trkpt>
      <trkpt lat="45.14358" lon="5.39552">
        <ele>738.509397</ele>
        <time>2022-07-23T23:32:28.786Z</time>
      </trkpt>
      <trkpt lat="45.14326" lon="5.39627">
        <ele>737.346199</ele>
        <time>2022-07-23T23:32:39.298Z</time>
      </trkpt>
      <trkpt lat="45.14324" lon="5.39637">
        <ele>737.205481</ele>
        <time>2022-07-23T23:32:40.840Z</time>
      </trkpt>
      <trkpt lat="45.14325" lon="5.39659">
        <ele>736.918988</ele>
        <time>2022-07-23T23:32:43.875Z</time>
      </trkpt>
      <trkpt lat="45.14328" lon="5.39677">
        <ele>737.533074</ele>
        <time>2022-07-23T23:32:48.566Z</time>
      </trkpt>
      <trkpt lat="45.14335" lon="5.39697">
        <ele>738.787961</ele>
        <time>2022-07-23T23:32:53.363Z</time>
      </trkpt>
      <trkpt lat="45.14355" lon="5.39734">
        <ele>741.493713</ele>
        <time>2022-07-23T23:33:08.258Z</time>
      </trkpt>
      <trkpt lat="45.14371" lon="5.39755">
        <ele>743.250103</ele>
        <time>2022-07-23T23:33:20.743Z</time>
      </trkpt>
      <trkpt lat="45.14501" lon="5.39879">
        <ele>756.747693</ele>
        <time>2022-07-23T23:35:23.816Z</time>
      </trkpt>
      <trkpt lat="45.14555" lon="5.39919">
        <ele>762.700788</ele>
        <time>2022-07-23T23:36:09.401Z</time>
      </trkpt>
      <trkpt lat="45.14584" lon="5.39937">
        <ele>765.770674</ele>
        <time>2022-07-23T23:36:29.885Z</time>
      </trkpt>
      <trkpt lat="45.14618" lon="5.39954">
        <ele>768.983386</ele>
        <time>2022-07-23T23:36:49.643Z</time>
      </trkpt>
      <trkpt lat="45.14623" lon="5.39962">
        <ele>769.292387</ele>
        <time>2022-07-23T23:36:53.070Z</time>
      </trkpt>
      <trkpt lat="45.14627" lon="5.39976">
        <ele>769.68588</ele>
        <time>2022-07-23T23:37:00.152Z</time>
      </trkpt>
      <trkpt lat="45.14629" lon="5.40068">
        <ele>772.126588</ele>
        <time>2022-07-23T23:37:23.557Z</time>
      </trkpt>
      <trkpt lat="45.14621" lon="5.40122">
        <ele>773.576649</ele>
        <time>2022-07-23T23:37:36.097Z</time>
      </trkpt>
      <trkpt lat="45.14609" lon="5.40169">
        <ele>774.918311</ele>
        <time>2022-07-23T23:37:47.517Z</time>
      </trkpt>
      <trkpt lat="45.14598" lon="5.40195">
        <ele>775.817474</ele>
        <time>2022-07-23T23:37:54.400Z</time>
      </trkpt>
      <trkpt lat="45.14589" lon="5.40208">
        <ele>776.70021</ele>
        <time>2022-07-23T23:37:57.339Z</time>
      </trkpt>
      <trkpt lat="45.14577" lon="5.40221">
        <ele>777.675793</ele>
        <time>2022-07-23T23:38:01.227Z</time>
      </trkpt>
      <trkpt lat="45.14554" lon="5.40236">
        <ele>779.379605</ele>
        <time>2022-07-23T23:38:12.054Z</time>
      </trkpt>
      <trkpt lat="45.14536" lon="5.40281">
        <ele>781.835666</ele>
        <time>2022-07-23T23:38:33.709Z</time>
      </trkpt>
      <trkpt lat="45.14508" lon="5.40342">
        <ele>785.232907</ele>
        <time>2022-07-23T23:39:03.846Z</time>
      </trkpt>
      <trkpt lat="45.145" lon="5.40374">
        <ele>786.87034</ele>
        <time>2022-07-23T23:39:20.097Z</time>
      </trkpt>
      <trkpt lat="45.145" lon="5.40394">
        <ele>787.854393</ele>
        <time>2022-07-23T23:39:28.888Z</time>
      </trkpt>
      <trkpt lat="45.14503" lon="5.40405">
        <ele>788.580304</ele>
        <time>2022-07-23T23:39:37.826Z</time>
      </trkpt>
      <trkpt lat="45.1449" lon="5.40459">
        <ele>792.140174</ele>
        <time>2022-07-23T23:40:12.624Z</time>
      </trkpt>
      <trkpt lat="45.14465" lon="5.4051">
        <ele>795.922441</ele>
        <time>2022-07-23T23:40:45.761Z</time>
      </trkpt>
      <trkpt lat="45.14447" lon="5.40572">
        <ele>800.051168</ele>
        <time>2022-07-23T23:41:20.455Z</time>
      </trkpt>
      <trkpt lat="45.14436" lon="5.40589">
        <ele>801.454225</ele>
        <time>2022-07-23T23:41:37.543Z</time>
      </trkpt>
      <trkpt lat="45.14431" lon="5.40582">
        <ele>802.016113</ele>
        <time>2022-07-23T23:41:39.970Z</time>
      </trkpt>
      <trkpt lat="45.14428" lon="5.40553">
        <ele>803.57894</ele>
        <time>2022-07-23T23:41:54.751Z</time>
      </trkpt>
      <trkpt lat="45.14414" lon="5.4052">
        <ele>804.725483</ele>
        <time>2022-07-23T23:42:07.693Z</time>
      </trkpt>
      <trkpt lat="45.14397" lon="5.40491">
        <ele>805.899366</ele>
        <time>2022-07-23T23:42:20.908Z</time>
      </trkpt>
      <trkpt lat="45.14378" lon="5.4047">
        <ele>806.960795</ele>
        <time>2022-07-23T23:42:34.316Z</time>
      </trkpt>
      <trkpt lat="45.1436" lon="5.40443">
        <ele>808.073066</ele>
        <time>2022-07-23T23:42:44.795Z</time>
      </trkpt>
      <trkpt lat="45.14338" lon="5.40397">
        <ele>809.787121</ele>
        <time>2022-07-23T23:43:04.062Z</time>
      </trkpt>
      <trkpt lat="45.14324" lon="5.40377">
        <ele>810.642965</ele>
        <time>2022-07-23T23:43:13.861Z</time>
      </trkpt>
      <trkpt lat="45.14295" lon="5.40346">
        <ele>813.196686</ele>
        <time>2022-07-23T23:43:33.111Z</time>
      </trkpt>
      <trkpt lat="45.14268" lon="5.40332">
        <ele>815.528246</ele>
        <time>2022-07-23T23:43:49.641Z</time>
      </trkpt>
      <trkpt lat="45.14213" lon="5.40315">
        <ele>820.085175</ele>
        <time>2022-07-23T23:44:29.869Z</time>
      </trkpt>
      <trkpt lat="45.1413" lon="5.40277">
        <ele>827.585742</ele>
        <time>2022-07-23T23:45:46.910Z</time>
      </trkpt>
      <trkpt lat="45.14103" lon="5.40259">
        <ele>830.571918</ele>
        <time>2022-07-23T23:46:14.086Z</time>
      </trkpt>
      <trkpt lat="45.14081" lon="5.4025">
        <ele>832.952644</ele>
        <time>2022-07-23T23:46:35.892Z</time>
      </trkpt>
      <trkpt lat="45.14057" lon="5.40234">
        <ele>835.678052</ele>
        <time>2022-07-23T23:46:59.194Z</time>
      </trkpt>
      <trkpt lat="45.14006" lon="5.40218">
        <ele>840.935311</ele>
        <time>2022-07-23T23:47:40.701Z</time>
      </trkpt>
      <trkpt lat="45.13957" lon="5.40217">
        <ele>844.735851</ele>
        <time>2022-07-23T23:48:17.538Z</time>
      </trkpt>
      <trkpt lat="45.13932" lon="5.40189">
        <ele>845.943968</ele>
        <time>2022-07-23T23:48:37.805Z</time>
      </trkpt>
      <trkpt lat="45.13892" lon="5.40111">
        <ele>848.514798</ele>
        <time>2022-07-23T23:49:10.337Z</time>
      </trkpt>
      <trkpt lat="45.13865" lon="5.40073">
        <ele>849.971649</ele>
        <time>2022-07-23T23:49:25.682Z</time>
      </trkpt>
      <trkpt lat="45.13817" lon="5.39999">
        <ele>849.881905</ele>
        <time>2022-07-23T23:49:48.949Z</time>
      </trkpt>
      <trkpt lat="45.13798" lon="5.3998">
        <ele>849.423968</ele>
        <time>2022-07-23T23:49:55.773Z</time>
      </trkpt>
      <trkpt lat="45.1377" lon="5.39962">
        <ele>848.827132</ele>
        <time>2022-07-23T23:50:04.169Z</time>
      </trkpt>
      <trkpt lat="45.13738" lon="5.39926">
        <ele>848.024296</ele>
        <time>2022-07-23T23:50:14.909Z</time>
      </trkpt>
      <trkpt lat="45.13726" lon="5.39916">
        <ele>847.763895</ele>
        <time>2022-07-23T23:50:18.279Z</time>
      </trkpt>
      <trkpt lat="45.13698" lon="5.39904">
        <ele>847.046283</ele>
        <time>2022-07-23T23:50:25.545Z</time>
      </trkpt>
      <trkpt lat="45.13658" lon="5.39866">
        <ele>845.083758</ele>
        <time>2022-07-23T23:50:37.104Z</time>
      </trkpt>
      <trkpt lat="45.13575" lon="5.39748">
        <ele>840.315995</ele>
        <time>2022-07-23T23:51:05.913Z</time>
      </trkpt>
      <trkpt lat="45.13562" lon="5.39737">
        <ele>839.991877</ele>
        <time>2022-07-23T23:51:09.888Z</time>
      </trkpt>
      <trkpt lat="45.13549" lon="5.39729">
        <ele>839.959433</ele>
        <time>2022-07-23T23:51:13.772Z</time>
      </trkpt>
      <trkpt lat="45.13494" lon="5.39708">
        <ele>839.834296</ele>
        <time>2022-07-23T23:51:30.614Z</time>
      </trkpt>
      <trkpt lat="45.13443" lon="5.3968">
        <ele>839.713802</ele>
        <time>2022-07-23T23:51:48.381Z</time>
      </trkpt>
      <trkpt lat="45.13431" lon="5.39677">
        <ele>839.687613</ele>
        <time>2022-07-23T23:51:53.180Z</time>
      </trkpt>
      <trkpt lat="45.13395" lon="5.39694">
        <ele>839.812903</ele>
        <time>2022-07-23T23:52:07.881Z</time>
      </trkpt>
      <trkpt lat="45.13376" lon="5.39697">
        <ele>840.907427</ele>
        <time>2022-07-23T23:52:15.448Z</time>
      </trkpt>
      <trkpt lat="45.13355" lon="5.39694">
        <ele>842.136682</ele>
        <time>2022-07-23T23:52:23.603Z</time>
      </trkpt>
      <trkpt lat="45.1333" lon="5.3968">
        <ele>843.658804</ele>
        <time>2022-07-23T23:52:43.184Z</time>
      </trkpt>
      <trkpt lat="45.1327" lon="5.3964">
        <ele>847.439205</ele>
        <time>2022-07-23T23:53:26.227Z</time>
      </trkpt>
      <trkpt lat="45.13249" lon="5.39623">
        <ele>848.810502</ele>
        <time>2022-07-23T23:53:40.220Z</time>
      </trkpt>
      <trkpt lat="45.13234" lon="5.39615">
        <ele>849.71798</ele>
        <time>2022-07-23T23:53:55.476Z</time>
      </trkpt>
      <trkpt lat="45.13223" lon="5.39616">
        <ele>851.015341</ele>
        <time>2022-07-23T23:54:01.511Z</time>
      </trkpt>
      <trkpt lat="45.13215" lon="5.39623">
        <ele>852.299797</ele>
        <time>2022-07-23T23:54:06.211Z</time>
      </trkpt>
      <trkpt lat="45.13204" lon="5.39642">
        <ele>854.644186</ele>
        <time>2022-07-23T23:54:23.842Z</time>
      </trkpt>
      <trkpt lat="45.13199" lon="5.39719">
        <ele>862.068301</ele>
        <time>2022-07-23T23:55:02.296Z</time>
      </trkpt>
      <trkpt lat="45.13196" lon="5.3973">
        <ele>863.216839</ele>
        <time>2022-07-23T23:55:11.314Z</time>
      </trkpt>
      <trkpt lat="45.1319" lon="5.39738">
        <ele>864.396062</ele>
        <time>2022-07-23T23:55:21.353Z</time>
      </trkpt>
      <trkpt lat="45.13178" lon="5.39742">
        <ele>865.949232</ele>
        <time>2022-07-23T23:55:32.825Z</time>
      </trkpt>
      <trkpt lat="45.13068" lon="5.39732">
        <ele>884.821958</ele>
        <time>2022-07-23T23:58:02.049Z</time>
      </trkpt>
      <trkpt lat="45.13048" lon="5.39739">
        <ele>889.347133</ele>
        <time>2022-07-23T23:58:32.950Z</time>
      </trkpt>
      <trkpt lat="45.13032" lon="5.39751">
        <ele>893.075023</ele>
        <time>2022-07-23T23:58:53.745Z</time>
      </trkpt>
      <trkpt lat="45.13011" lon="5.39777">
        <ele>899.105067</ele>
        <time>2022-07-23T23:59:34.895Z</time>
      </trkpt>
      <trkpt lat="45.12999" lon="5.39799">
        <ele>903.329004</ele>
        <time>2022-07-24T00:00:00.176Z</time>
      </trkpt>
      <trkpt lat="45.12992" lon="5.39827">
        <ele>907.789368</ele>
        <time>2022-07-24T00:00:30.002Z</time>
      </trkpt>
      <trkpt lat="45.12991" lon="5.39846">
        <ele>910.686711</ele>
        <time>2022-07-24T00:00:47.162Z</time>
      </trkpt>
      <trkpt lat="45.12995" lon="5.39894">
        <ele>916.33976</ele>
        <time>2022-07-24T00:01:32.308Z</time>
      </trkpt>
      <trkpt lat="45.12993" lon="5.39901">
        <ele>917.167111</ele>
        <time>2022-07-24T00:01:40.896Z</time>
      </trkpt>
      <trkpt lat="45.1299" lon="5.39904">
        <ele>917.767243</ele>
        <time>2022-07-24T00:01:46.873Z</time>
      </trkpt>
      <trkpt lat="45.12984" lon="5.39902">
        <ele>918.681168</ele>
        <time>2022-07-24T00:01:54.938Z</time>
      </trkpt>
      <trkpt lat="45.12966" lon="5.39878">
        <ele>922.325497</ele>
        <time>2022-07-24T00:02:27.499Z</time>
      </trkpt>
      <trkpt lat="45.12951" lon="5.39853">
        <ele>925.756947</ele>
        <time>2022-07-24T00:02:51.910Z</time>
      </trkpt>
      <trkpt lat="45.12938" lon="5.39835">
        <ele>928.500311</ele>
        <time>2022-07-24T00:03:13.418Z</time>
      </trkpt>
      <trkpt lat="45.12919" lon="5.39784">
        <ele>934.553674</ele>
        <time>2022-07-24T00:03:44.634Z</time>
      </trkpt>
      <trkpt lat="45.12895" lon="5.39666">
        <ele>942.883784</ele>
        <time>2022-07-24T00:04:44.642Z</time>
      </trkpt>
      <trkpt lat="45.12889" lon="5.39649">
        <ele>943.708743</ele>
        <time>2022-07-24T00:04:52.539Z</time>
      </trkpt>
      <trkpt lat="45.12877" lon="5.39637">
        <ele>944.618923</ele>
        <time>2022-07-24T00:05:01.228Z</time>
      </trkpt>
      <trkpt lat="45.12872" lon="5.39636">
        <ele>944.975246</ele>
        <time>2022-07-24T00:05:04.455Z</time>
      </trkpt>
      <trkpt lat="45.12867" lon="5.3964">
        <ele>945.33839</ele>
        <time>2022-07-24T00:05:06.878Z</time>
      </trkpt>
      <trkpt lat="45.12847" lon="5.39748">
        <ele>950.287362</ele>
        <time>2022-07-24T00:05:47.697Z</time>
      </trkpt>
      <trkpt lat="45.12825" lon="5.39769">
        <ele>952.493953</ele>
        <time>2022-07-24T00:06:09.148Z</time>
      </trkpt>
      <trkpt lat="45.12799" lon="5.39809">
        <ele>956.010539</ele>
        <time>2022-07-24T00:06:40.756Z</time>
      </trkpt>
      <trkpt lat="45.12798" lon="5.39819">
        <ele>956.656496</ele>
        <time>2022-07-24T00:06:47.284Z</time>
      </trkpt>
      <trkpt lat="45.12801" lon="5.39829">
        <ele>957.365778</ele>
        <time>2022-07-24T00:06:51.726Z</time>
      </trkpt>
      <trkpt lat="45.1284" lon="5.39904">
        <ele>963.476956</ele>
        <time>2022-07-24T00:07:47.894Z</time>
      </trkpt>
      <trkpt lat="45.12842" lon="5.39928">
        <ele>965.069921</ele>
        <time>2022-07-24T00:07:56.897Z</time>
      </trkpt>
      <trkpt lat="45.1284" lon="5.3994">
        <ele>965.865272</ele>
        <time>2022-07-24T00:08:07.709Z</time>
      </trkpt>
      <trkpt lat="45.12838" lon="5.3995">
        <ele>966.558528</ele>
        <time>2022-07-24T00:08:14.737Z</time>
      </trkpt>
      <trkpt lat="45.1284" lon="5.40017">
        <ele>970.238196</ele>
        <time>2022-07-24T00:08:49.336Z</time>
      </trkpt>
      <trkpt lat="45.12839" lon="5.4004">
        <ele>971.420552</ele>
        <time>2022-07-24T00:09:03.855Z</time>
      </trkpt>
      <trkpt lat="45.12819" lon="5.40128">
        <ele>976.148285</ele>
        <time>2022-07-24T00:09:53.159Z</time>
      </trkpt>
      <trkpt lat="45.12804" lon="5.40167">
        <ele>978.424592</ele>
        <time>2022-07-24T00:10:15.169Z</time>
      </trkpt>
      <trkpt lat="45.12784" lon="5.40186">
        <ele>980.174051</ele>
        <time>2022-07-24T00:10:24.947Z</time>
      </trkpt>
      <trkpt lat="45.12746" lon="5.40208">
        <ele>982.332685</ele>
        <time>2022-07-24T00:10:40.130Z</time>
      </trkpt>
      <trkpt lat="45.12735" lon="5.40212">
        <ele>982.93391</ele>
        <time>2022-07-24T00:10:44.632Z</time>
      </trkpt>
      <trkpt lat="45.12707" lon="5.40214">
        <ele>984.292473</ele>
        <time>2022-07-24T00:10:57.098Z</time>
      </trkpt>
      <trkpt lat="45.1268" lon="5.40211">
        <ele>985.638747</ele>
        <time>2022-07-24T00:11:10.922Z</time>
      </trkpt>
      <trkpt lat="45.12674" lon="5.40218">
        <ele>986.023553</ele>
        <time>2022-07-24T00:11:15.592Z</time>
      </trkpt>
      <trkpt lat="45.12679" lon="5.40233">
        <ele>986.587395</ele>
        <time>2022-07-24T00:11:22.873Z</time>
      </trkpt>
      <trkpt lat="45.12711" lon="5.40285">
        <ele>989.004746</ele>
        <time>2022-07-24T00:11:58.409Z</time>
      </trkpt>
      <trkpt lat="45.12762" lon="5.40361">
        <ele>993.334188</ele>
        <time>2022-07-24T00:12:49.431Z</time>
      </trkpt>
      <trkpt lat="45.12783" lon="5.4041">
        <ele>995.831316</ele>
        <time>2022-07-24T00:13:14.667Z</time>
      </trkpt>
      <trkpt lat="45.12798" lon="5.40471">
        <ele>998.5798</ele>
        <time>2022-07-24T00:13:43.320Z</time>
      </trkpt>
      <trkpt lat="45.12799" lon="5.405">
        <ele>999.834534</ele>
        <time>2022-07-24T00:13:54.672Z</time>
      </trkpt>
      <trkpt lat="45.12804" lon="5.40521">
        <ele>1000.508894</ele>
        <time>2022-07-24T00:14:03.127Z</time>
      </trkpt>
      <trkpt lat="45.12806" lon="5.40562">
        <ele>1000.44334</ele>
        <time>2022-07-24T00:14:17.054Z</time>
      </trkpt>
      <trkpt lat="45.12803" lon="5.40573">
        <ele>1000.42498</ele>
        <time>2022-07-24T00:14:21.660Z</time>
      </trkpt>
      <trkpt lat="45.12793" lon="5.40589">
        <ele>1000.390456</ele>
        <time>2022-07-24T00:14:28.615Z</time>
      </trkpt>
      <trkpt lat="45.12785" lon="5.40681">
        <ele>1000.245124</ele>
        <time>2022-07-24T00:14:46.411Z</time>
      </trkpt>
      <trkpt lat="45.12777" lon="5.40719">
        <ele>1000.181659</ele>
        <time>2022-07-24T00:14:53.465Z</time>
      </trkpt>
      <trkpt lat="45.12774" lon="5.40729">
        <ele>1000.163959</ele>
        <time>2022-07-24T00:14:55.414Z</time>
      </trkpt>
      <trkpt lat="45.12765" lon="5.40742">
        <ele>1000.136326</ele>
        <time>2022-07-24T00:14:58.398Z</time>
      </trkpt>
      <trkpt lat="45.12759" lon="5.40746">
        <ele>1000.11976</ele>
        <time>2022-07-24T00:15:00.138Z</time>
      </trkpt>
      <trkpt lat="45.12745" lon="5.40745">
        <ele>1000.211027</ele>
        <time>2022-07-24T00:15:04.667Z</time>
      </trkpt>
      <trkpt lat="45.12721" lon="5.40755">
        <ele>1000.421254</ele>
        <time>2022-07-24T00:15:11.938Z</time>
      </trkpt>
      <trkpt lat="45.12711" lon="5.40753">
        <ele>1000.503502</ele>
        <time>2022-07-24T00:15:15.313Z</time>
      </trkpt>
      <trkpt lat="45.12691" lon="5.40738">
        <ele>1000.697543</ele>
        <time>2022-07-24T00:15:22.359Z</time>
      </trkpt>
      <trkpt lat="45.12648" lon="5.40729">
        <ele>1001.063096</ele>
        <time>2022-07-24T00:15:38.079Z</time>
      </trkpt>
      <trkpt lat="45.12615" lon="5.40704">
        <ele>1001.384868</ele>
        <time>2022-07-24T00:15:54.585Z</time>
      </trkpt>
      <trkpt lat="45.12583" lon="5.40687">
        <ele>1001.846004</ele>
        <time>2022-07-24T00:16:11.126Z</time>
      </trkpt>
      <trkpt lat="45.12539" lon="5.40669">
        <ele>1004.061822</ele>
        <time>2022-07-24T00:16:34.171Z</time>
      </trkpt>
      <trkpt lat="45.12479" lon="5.40658">
        <ele>1007.037017</ele>
        <time>2022-07-24T00:17:09.118Z</time>
      </trkpt>
      <trkpt lat="45.12461" lon="5.40645">
        <ele>1008.040528</ele>
        <time>2022-07-24T00:17:21.915Z</time>
      </trkpt>
      <trkpt lat="45.12415" lon="5.40626">
        <ele>1010.360216</ele>
        <time>2022-07-24T00:17:51.205Z</time>
      </trkpt>
      <trkpt lat="45.12377" lon="5.40603">
        <ele>1011.837452</ele>
        <time>2022-07-24T00:18:16.642Z</time>
      </trkpt>
      <trkpt lat="45.12337" lon="5.4059">
        <ele>1013.27339</ele>
        <time>2022-07-24T00:18:40.347Z</time>
      </trkpt>
      <trkpt lat="45.12221" lon="5.40495">
        <ele>1016.732791</ele>
        <time>2022-07-24T00:19:35.648Z</time>
      </trkpt>
      <trkpt lat="45.12177" lon="5.40424">
        <ele>1016.804433</ele>
        <time>2022-07-24T00:19:55.682Z</time>
      </trkpt>
      <trkpt lat="45.12117" lon="5.40363">
        <ele>1016.882699</ele>
        <time>2022-07-24T00:20:17.985Z</time>
      </trkpt>
      <trkpt lat="45.12066" lon="5.40369">
        <ele>1017.240259</ele>
        <time>2022-07-24T00:20:35.058Z</time>
      </trkpt>
      <trkpt lat="45.1204" lon="5.40367">
        <ele>1017.430042</ele>
        <time>2022-07-24T00:20:43.889Z</time>
      </trkpt>
      <trkpt lat="45.12012" lon="5.40361">
        <ele>1017.645515</ele>
        <time>2022-07-24T00:20:54.373Z</time>
      </trkpt>
      <trkpt lat="45.12004" lon="5.40353">
        <ele>1017.719513</ele>
        <time>2022-07-24T00:20:58.108Z</time>
      </trkpt>
      <trkpt lat="45.11998" lon="5.40342">
        <ele>1017.791418</ele>
        <time>2022-07-24T00:21:01.731Z</time>
      </trkpt>
      <trkpt lat="45.11982" lon="5.40275">
        <ele>1018.163498</ele>
        <time>2022-07-24T00:21:20.781Z</time>
      </trkpt>
      <trkpt lat="45.1198" lon="5.40242">
        <ele>1018.291426</ele>
        <time>2022-07-24T00:21:29.804Z</time>
      </trkpt>
      <trkpt lat="45.11977" lon="5.40234">
        <ele>1018.318245</ele>
        <time>2022-07-24T00:21:32.184Z</time>
      </trkpt>
      <trkpt lat="45.11929" lon="5.40175">
        <ele>1018.588939</ele>
        <time>2022-07-24T00:21:56.444Z</time>
      </trkpt>
      <trkpt lat="45.11913" lon="5.40123">
        <ele>1018.760293</ele>
        <time>2022-07-24T00:22:10.312Z</time>
      </trkpt>
      <trkpt lat="45.1189" lon="5.40077">
        <ele>1018.930233</ele>
        <time>2022-07-24T00:22:22.526Z</time>
      </trkpt>
      <trkpt lat="45.11884" lon="5.40068">
        <ele>1018.964697</ele>
        <time>2022-07-24T00:22:24.903Z</time>
      </trkpt>
      <trkpt lat="45.11851" lon="5.4004">
        <ele>1018.37741</ele>
        <time>2022-07-24T00:22:36.177Z</time>
      </trkpt>
      <trkpt lat="45.11836" lon="5.40016">
        <ele>1017.941637</ele>
        <time>2022-07-24T00:22:42.525Z</time>
      </trkpt>
      <trkpt lat="45.11819" lon="5.3997">
        <ele>1017.23234</ele>
        <time>2022-07-24T00:22:52.629Z</time>
      </trkpt>
      <trkpt lat="45.1181" lon="5.39935">
        <ele>1016.722202</ele>
        <time>2022-07-24T00:22:59.791Z</time>
      </trkpt>
      <trkpt lat="45.1179" lon="5.39883">
        <ele>1015.906243</ele>
        <time>2022-07-24T00:23:10.974Z</time>
      </trkpt>
      <trkpt lat="45.11777" lon="5.39839">
        <ele>1015.127882</ele>
        <time>2022-07-24T00:23:19.781Z</time>
      </trkpt>
      <trkpt lat="45.11729" lon="5.39735">
        <ele>1012.545599</ele>
        <time>2022-07-24T00:23:42.528Z</time>
      </trkpt>
      <trkpt lat="45.11689" lon="5.39701">
        <ele>1011.173485</ele>
        <time>2022-07-24T00:23:54.616Z</time>
      </trkpt>
      <trkpt lat="45.11671" lon="5.3968">
        <ele>1010.494904</ele>
        <time>2022-07-24T00:24:00.636Z</time>
      </trkpt>
      <trkpt lat="45.11651" lon="5.39645">
        <ele>1009.602175</ele>
        <time>2022-07-24T00:24:09.173Z</time>
      </trkpt>
      <trkpt lat="45.11635" lon="5.39608">
        <ele>1008.765415</ele>
        <time>2022-07-24T00:24:17.517Z</time>
      </trkpt>
      <trkpt lat="45.11628" lon="5.3963">
        <ele>1008.306513</ele>
        <time>2022-07-24T00:24:19.854Z</time>
      </trkpt>
      <trkpt lat="45.11626" lon="5.39647">
        <ele>1007.977323</ele>
        <time>2022-07-24T00:24:21.866Z</time>
      </trkpt>
      <trkpt lat="45.11626" lon="5.39721">
        <ele>1006.532523</ele>
        <time>2022-07-24T00:24:29.455Z</time>
      </trkpt>
      <trkpt lat="45.11623" lon="5.39748">
        <ele>1006.009413</ele>
        <time>2022-07-24T00:24:32.285Z</time>
      </trkpt>
      <trkpt lat="45.11607" lon="5.39781">
        <ele>1005.254853</ele>
        <time>2022-07-24T00:24:36.419Z</time>
      </trkpt>
      <trkpt lat="45.11566" lon="5.39838">
        <ele>1004.031693</ele>
        <time>2022-07-24T00:24:44.994Z</time>
      </trkpt>
      <trkpt lat="45.11558" lon="5.39864">
        <ele>1003.587779</ele>
        <time>2022-07-24T00:24:48.001Z</time>
      </trkpt>
      <trkpt lat="45.11553" lon="5.39987">
        <ele>1001.734019</ele>
        <time>2022-07-24T00:25:01.330Z</time>
      </trkpt>
      <trkpt lat="45.11555" lon="5.40008">
        <ele>1001.440468</ele>
        <time>2022-07-24T00:25:03.633Z</time>
      </trkpt>
      <trkpt lat="45.11561" lon="5.40046">
        <ele>1001.388725</ele>
        <time>2022-07-24T00:25:08.335Z</time>
      </trkpt>
      <trkpt lat="45.11576" lon="5.40103">
        <ele>1001.307548</ele>
        <time>2022-07-24T00:25:16.554Z</time>
      </trkpt>
      <trkpt lat="45.1162" lon="5.40161">
        <ele>1001.193739</ele>
        <time>2022-07-24T00:25:29.127Z</time>
      </trkpt>
      <trkpt lat="45.11655" lon="5.40236">
        <ele>1001.264043</ele>
        <time>2022-07-24T00:25:40.464Z</time>
      </trkpt>
      <trkpt lat="45.11665" lon="5.40254">
        <ele>1001.437706</ele>
        <time>2022-07-24T00:25:44.864Z</time>
      </trkpt>
      <trkpt lat="45.11668" lon="5.40277">
        <ele>1001.616815</ele>
        <time>2022-07-24T00:25:49.270Z</time>
      </trkpt>
      <trkpt lat="45.11664" lon="5.40292">
        <ele>1001.731852</ele>
        <time>2022-07-24T00:25:52.829Z</time>
      </trkpt>
      <trkpt lat="45.11641" lon="5.40332">
        <ele>1002.118635</ele>
        <time>2022-07-24T00:26:04.705Z</time>
      </trkpt>
      <trkpt lat="45.11638" lon="5.40346">
        <ele>1002.230506</ele>
        <time>2022-07-24T00:26:07.161Z</time>
      </trkpt>
      <trkpt lat="45.11632" lon="5.40349">
        <ele>1002.293086</ele>
        <time>2022-07-24T00:26:09.038Z</time>
      </trkpt>
      <trkpt lat="45.11626" lon="5.40361">
        <ele>1002.400422</ele>
        <time>2022-07-24T00:26:12.703Z</time>
      </trkpt>
      <trkpt lat="45.11637" lon="5.40439">
        <ele>1002.995542</ele>
        <time>2022-07-24T00:26:25.992Z</time>
      </trkpt>
      <trkpt lat="45.11651" lon="5.40475">
        <ele>1002.087712</ele>
        <time>2022-07-24T00:26:32.013Z</time>
      </trkpt>
      <trkpt lat="45.11656" lon="5.40509">
        <ele>1001.31762</ele>
        <time>2022-07-24T00:26:36.588Z</time>
      </trkpt>
      <trkpt lat="45.11528" lon="5.40604">
        <ele>996.147248</ele>
        <time>2022-07-24T00:27:12.298Z</time>
      </trkpt>
      <trkpt lat="45.11521" lon="5.40609">
        <ele>995.657937</ele>
        <time>2022-07-24T00:27:13.876Z</time>
      </trkpt>
      <trkpt lat="45.11477" lon="5.40618">
        <ele>992.84016</ele>
        <time>2022-07-24T00:27:23.963Z</time>
      </trkpt>
      <trkpt lat="45.11403" lon="5.40623">
        <ele>988.201122</ele>
        <time>2022-07-24T00:27:40.712Z</time>
      </trkpt>
      <trkpt lat="45.11407" lon="5.40608">
        <ele>987.493966</ele>
        <time>2022-07-24T00:27:43.204Z</time>
      </trkpt>
      <trkpt lat="45.11423" lon="5.40602">
        <ele>986.447429</ele>
        <time>2022-07-24T00:27:47.020Z</time>
      </trkpt>
      <trkpt lat="45.11426" lon="5.40594">
        <ele>986.047099</ele>
        <time>2022-07-24T00:27:48.764Z</time>
      </trkpt>
      <trkpt lat="45.11424" lon="5.40574">
        <ele>985.64271</ele>
        <time>2022-07-24T00:27:52.056Z</time>
      </trkpt>
      <trkpt lat="45.11414" lon="5.40563">
        <ele>985.369325</ele>
        <time>2022-07-24T00:27:55.688Z</time>
      </trkpt>
      <trkpt lat="45.11412" lon="5.40532">
        <ele>984.884932</ele>
        <time>2022-07-24T00:28:01.342Z</time>
      </trkpt>
      <trkpt lat="45.11403" lon="5.40522">
        <ele>984.630786</ele>
        <time>2022-07-24T00:28:05.029Z</time>
      </trkpt>
      <trkpt lat="45.11397" lon="5.40502">
        <ele>984.301366</ele>
        <time>2022-07-24T00:28:09.662Z</time>
      </trkpt>
      <trkpt lat="45.11386" lon="5.40492">
        <ele>984.006235</ele>
        <time>2022-07-24T00:28:12.971Z</time>
      </trkpt>
      <trkpt lat="45.1137" lon="5.40482">
        <ele>983.627201</ele>
        <time>2022-07-24T00:28:18.731Z</time>
      </trkpt>
      <trkpt lat="45.11327" lon="5.40469">
        <ele>982.67837</ele>
        <time>2022-07-24T00:28:30.967Z</time>
      </trkpt>
      <trkpt lat="45.11293" lon="5.40494">
        <ele>981.825427</ele>
        <time>2022-07-24T00:28:42.765Z</time>
      </trkpt>
      <trkpt lat="45.1124" lon="5.40518">
        <ele>980.367595</ele>
        <time>2022-07-24T00:28:58.768Z</time>
      </trkpt>
      <trkpt lat="45.11226" lon="5.40532">
        <ele>979.930486</ele>
        <time>2022-07-24T00:29:03.292Z</time>
      </trkpt>
      <trkpt lat="45.11217" lon="5.4055">
        <ele>979.544364</ele>
        <time>2022-07-24T00:29:07.288Z</time>
      </trkpt>
      <trkpt lat="45.1121" lon="5.40554">
        <ele>979.335539</ele>
        <time>2022-07-24T00:29:09.504Z</time>
      </trkpt>
      <trkpt lat="45.11197" lon="5.40551">
        <ele>979.007611</ele>
        <time>2022-07-24T00:29:12.746Z</time>
      </trkpt>
      <trkpt lat="45.1117" lon="5.40537">
        <ele>978.267669</ele>
        <time>2022-07-24T00:29:20.225Z</time>
      </trkpt>
      <trkpt lat="45.11161" lon="5.40525">
        <ele>977.941107</ele>
        <time>2022-07-24T00:29:23.214Z</time>
      </trkpt>
      <trkpt lat="45.1114" lon="5.4051">
        <ele>977.339367</ele>
        <time>2022-07-24T00:29:29.307Z</time>
      </trkpt>
      <trkpt lat="45.11116" lon="5.40499">
        <ele>975.815234</ele>
        <time>2022-07-24T00:29:35.314Z</time>
      </trkpt>
      <trkpt lat="45.11108" lon="5.4049">
        <ele>975.148852</ele>
        <time>2022-07-24T00:29:37.953Z</time>
      </trkpt>
      <trkpt lat="45.11063" lon="5.40465">
        <ele>972.079188</ele>
        <time>2022-07-24T00:29:49.737Z</time>
      </trkpt>
      <trkpt lat="45.11061" lon="5.4046">
        <ele>971.862122</ele>
        <time>2022-07-24T00:29:50.593Z</time>
      </trkpt>
      <trkpt lat="45.11065" lon="5.4045">
        <ele>971.336944</ele>
        <time>2022-07-24T00:29:52.546Z</time>
      </trkpt>
      <trkpt lat="45.11048" lon="5.40438">
        <ele>970.104429</ele>
        <time>2022-07-24T00:29:56.811Z</time>
      </trkpt>
      <trkpt lat="45.1103" lon="5.40437">
        <ele>969.00646</ele>
        <time>2022-07-24T00:30:00.632Z</time>
      </trkpt>
      <trkpt lat="45.11008" lon="5.40426">
        <ele>967.522633</ele>
        <time>2022-07-24T00:30:05.924Z</time>
      </trkpt>
      <trkpt lat="45.10992" lon="5.40425">
        <ele>966.50616</ele>
        <time>2022-07-24T00:30:09.468Z</time>
      </trkpt>
      <trkpt lat="45.10981" lon="5.4043">
        <ele>965.816715</ele>
        <time>2022-07-24T00:30:11.967Z</time>
      </trkpt>
      <trkpt lat="45.10953" lon="5.40416">
        <ele>963.933998</ele>
        <time>2022-07-24T00:30:18.763Z</time>
      </trkpt>
      <trkpt lat="45.10931" lon="5.40425">
        <ele>962.499149</ele>
        <time>2022-07-24T00:30:24.129Z</time>
      </trkpt>
      <trkpt lat="45.10925" lon="5.40421">
        <ele>962.075193</ele>
        <time>2022-07-24T00:30:25.559Z</time>
      </trkpt>
      <trkpt lat="45.10902" lon="5.4039">
        <ele>960.081437</ele>
        <time>2022-07-24T00:30:32.989Z</time>
      </trkpt>
      <trkpt lat="45.10881" lon="5.40341">
        <ele>957.556298</ele>
        <time>2022-07-24T00:30:42.351Z</time>
      </trkpt>
      <trkpt lat="45.10869" lon="5.40338">
        <ele>956.794419</ele>
        <time>2022-07-24T00:30:45.366Z</time>
      </trkpt>
      <trkpt lat="45.10862" lon="5.40332">
        <ele>956.269156</ele>
        <time>2022-07-24T00:30:47.444Z</time>
      </trkpt>
      <trkpt lat="45.10852" lon="5.40318">
        <ele>955.397559</ele>
        <time>2022-07-24T00:30:50.643Z</time>
      </trkpt>
      <trkpt lat="45.10828" lon="5.40275">
        <ele>954.211811</ele>
        <time>2022-07-24T00:30:59.803Z</time>
      </trkpt>
      <trkpt lat="45.10813" lon="5.40262">
        <ele>953.867976</ele>
        <time>2022-07-24T00:31:04.226Z</time>
      </trkpt>
      <trkpt lat="45.10811" lon="5.40247">
        <ele>953.665045</ele>
        <time>2022-07-24T00:31:06.838Z</time>
      </trkpt>
      <trkpt lat="45.10822" lon="5.40216">
        <ele>953.200946</ele>
        <time>2022-07-24T00:31:13.742Z</time>
      </trkpt>
      <trkpt lat="45.10834" lon="5.40206">
        <ele>952.922332</ele>
        <time>2022-07-24T00:31:18.080Z</time>
      </trkpt>
      <trkpt lat="45.1086" lon="5.40191">
        <ele>952.367691</ele>
        <time>2022-07-24T00:31:26.865Z</time>
      </trkpt>
      <trkpt lat="45.10868" lon="5.40174">
        <ele>952.09108</ele>
        <time>2022-07-24T00:31:31.306Z</time>
      </trkpt>
      <trkpt lat="45.10864" lon="5.40152">
        <ele>951.791088</ele>
        <time>2022-07-24T00:31:36.102Z</time>
      </trkpt>
      <trkpt lat="45.10807" lon="5.4014">
        <ele>951.074269</ele>
        <time>2022-07-24T00:31:54.280Z</time>
      </trkpt>
      <trkpt lat="45.10759" lon="5.40137">
        <ele>950.76451</ele>
        <time>2022-07-24T00:32:08.892Z</time>
      </trkpt>
      <trkpt lat="45.10731" lon="5.40137">
        <ele>950.582417</ele>
        <time>2022-07-24T00:32:17.257Z</time>
      </trkpt>
      <trkpt lat="45.10699" lon="5.4013">
        <ele>950.376008</ele>
        <time>2022-07-24T00:32:26.798Z</time>
      </trkpt>
      <trkpt lat="45.10667" lon="5.40132">
        <ele>950.169986</ele>
        <time>2022-07-24T00:32:36.280Z</time>
      </trkpt>
      <trkpt lat="45.1066" lon="5.40135">
        <ele>950.118846</ele>
        <time>2022-07-24T00:32:38.547Z</time>
      </trkpt>
      <trkpt lat="45.10656" lon="5.40144">
        <ele>950.062954</ele>
        <time>2022-07-24T00:32:40.704Z</time>
      </trkpt>
      <trkpt lat="45.10656" lon="5.40166">
        <ele>949.9386</ele>
        <time>2022-07-24T00:32:45.302Z</time>
      </trkpt>
      <trkpt lat="45.10645" lon="5.40172">
        <ele>949.84425</ele>
        <time>2022-07-24T00:32:48.631Z</time>
      </trkpt>
      <trkpt lat="45.10609" lon="5.40168">
        <ele>949.558748</ele>
        <time>2022-07-24T00:32:59.096Z</time>
      </trkpt>
      <trkpt lat="45.10595" lon="5.40173">
        <ele>949.441275</ele>
        <time>2022-07-24T00:33:03.510Z</time>
      </trkpt>
      <trkpt lat="45.10563" lon="5.40169">
        <ele>949.186787</ele>
        <time>2022-07-24T00:33:12.854Z</time>
      </trkpt>
      <trkpt lat="45.105" lon="5.40178">
        <ele>948.686983</ele>
        <time>2022-07-24T00:33:31.517Z</time>
      </trkpt>
      <trkpt lat="45.10476" lon="5.40169">
        <ele>948.967848</ele>
        <time>2022-07-24T00:33:39.383Z</time>
      </trkpt>
      <trkpt lat="45.10452" lon="5.40168">
        <ele>949.246037</ele>
        <time>2022-07-24T00:33:47.614Z</time>
      </trkpt>
      <trkpt lat="45.10411" lon="5.40198">
        <ele>949.769785</ele>
        <time>2022-07-24T00:34:04.506Z</time>
      </trkpt>
      <trkpt lat="45.10394" lon="5.40207">
        <ele>949.976852</ele>
        <time>2022-07-24T00:34:11.641Z</time>
      </trkpt>
      <trkpt lat="45.10376" lon="5.40231">
        <ele>950.260156</ele>
        <time>2022-07-24T00:34:22.034Z</time>
      </trkpt>
      <trkpt lat="45.10367" lon="5.40237">
        <ele>950.371116</ele>
        <time>2022-07-24T00:34:26.138Z</time>
      </trkpt>
      <trkpt lat="45.10303" lon="5.40266">
        <ele>951.218629</ele>
        <time>2022-07-24T00:34:55.705Z</time>
      </trkpt>
      <trkpt lat="45.10243" lon="5.40282">
        <ele>952.059</ele>
        <time>2022-07-24T00:35:22.658Z</time>
      </trkpt>
      <trkpt lat="45.10213" lon="5.40285">
        <ele>952.467509</ele>
        <time>2022-07-24T00:35:35.362Z</time>
      </trkpt>
      <trkpt lat="45.10205" lon="5.40283">
        <ele>952.575555</ele>
        <time>2022-07-24T00:35:38.485Z</time>
      </trkpt>
      <trkpt lat="45.10171" lon="5.40256">
        <ele>953.09782</ele>
        <time>2022-07-24T00:35:52.497Z</time>
      </trkpt>
      <trkpt lat="45.10144" lon="5.40259">
        <ele>952.282218</ele>
        <time>2022-07-24T00:36:00.244Z</time>
      </trkpt>
      <trkpt lat="45.1011" lon="5.4025">
        <ele>950.839239</ele>
        <time>2022-07-24T00:36:08.929Z</time>
      </trkpt>
      <trkpt lat="45.10073" lon="5.40258">
        <ele>949.257151</ele>
        <time>2022-07-24T00:36:18.128Z</time>
      </trkpt>
      <trkpt lat="45.10015" lon="5.40251">
        <ele>946.802235</ele>
        <time>2022-07-24T00:36:32.130Z</time>
      </trkpt>
      <trkpt lat="45.09991" lon="5.40263">
        <ele>945.732566</ele>
        <time>2022-07-24T00:36:37.966Z</time>
      </trkpt>
      <trkpt lat="45.09986" lon="5.40259">
        <ele>945.397631</ele>
        <time>2022-07-24T00:36:38.674Z</time>
      </trkpt>
      <trkpt lat="45.09982" lon="5.40246">
        <ele>944.547453</ele>
        <time>2022-07-24T00:36:40.038Z</time>
      </trkpt>
      <trkpt lat="45.09971" lon="5.4023">
        <ele>943.249537</ele>
        <time>2022-07-24T00:36:41.999Z</time>
      </trkpt>
      <trkpt lat="45.09964" lon="5.40179">
        <ele>940.2653</ele>
        <time>2022-07-24T00:36:46.496Z</time>
      </trkpt>
      <trkpt lat="45.0996" lon="5.4017">
        <ele>939.639198</ele>
        <time>2022-07-24T00:36:47.421Z</time>
      </trkpt>
      <trkpt lat="45.09917" lon="5.40126">
        <ele>935.309759</ele>
        <time>2022-07-24T00:36:53.778Z</time>
      </trkpt>
      <trkpt lat="45.09814" lon="5.40062">
        <ele>926.188223</ele>
        <time>2022-07-24T00:37:07.726Z</time>
      </trkpt>
      <trkpt lat="45.09793" lon="5.40041">
        <ele>924.114504</ele>
        <time>2022-07-24T00:37:10.913Z</time>
      </trkpt>
      <trkpt lat="45.09772" lon="5.40006">
        <ele>921.516076</ele>
        <time>2022-07-24T00:37:14.940Z</time>
      </trkpt>
      <trkpt lat="45.09765" lon="5.39988">
        <ele>920.33522</ele>
        <time>2022-07-24T00:37:16.785Z</time>
      </trkpt>
      <trkpt lat="45.09766" lon="5.39959">
        <ele>918.686677</ele>
        <time>2022-07-24T00:37:19.244Z</time>
      </trkpt>
      <trkpt lat="45.09764" lon="5.3993">
        <ele>917.037516</ele>
        <time>2022-07-24T00:37:21.784Z</time>
      </trkpt>
      <trkpt lat="45.0977" lon="5.39874">
        <ele>913.774045</ele>
        <time>2022-07-24T00:37:26.734Z</time>
      </trkpt>
      <trkpt lat="45.0977" lon="5.39854">
        <ele>912.640951</ele>
        <time>2022-07-24T00:37:28.430Z</time>
      </trkpt>
      <trkpt lat="45.09758" lon="5.39784">
        <ele>908.515918</ele>
        <time>2022-07-24T00:37:34.803Z</time>
      </trkpt>
      <trkpt lat="45.09748" lon="5.39753">
        <ele>906.577971</ele>
        <time>2022-07-24T00:37:37.672Z</time>
      </trkpt>
      <trkpt lat="45.0973" lon="5.39685">
        <ele>902.426297</ele>
        <time>2022-07-24T00:37:49.070Z</time>
      </trkpt>
      <trkpt lat="45.09728" lon="5.39636">
        <ele>900.238682</ele>
        <time>2022-07-24T00:37:56.916Z</time>
      </trkpt>
      <trkpt lat="45.0974" lon="5.39588">
        <ele>898.16671</ele>
        <time>2022-07-24T00:38:05.000Z</time>
      </trkpt>
      <trkpt lat="45.0975" lon="5.39544">
        <ele>896.255861</ele>
        <time>2022-07-24T00:38:12.484Z</time>
      </trkpt>
      <trkpt lat="45.09748" lon="5.39498">
        <ele>894.40311</ele>
        <time>2022-07-24T00:38:20.273Z</time>
      </trkpt>
      <trkpt lat="45.09753" lon="5.39477">
        <ele>893.472796</ele>
        <time>2022-07-24T00:38:24.266Z</time>
      </trkpt>
      <trkpt lat="45.09755" lon="5.39456">
        <ele>892.608231</ele>
        <time>2022-07-24T00:38:27.942Z</time>
      </trkpt>
      <trkpt lat="45.09752" lon="5.39443">
        <ele>892.026297</ele>
        <time>2022-07-24T00:38:30.404Z</time>
      </trkpt>
      <trkpt lat="45.09743" lon="5.3943">
        <ele>891.334369</ele>
        <time>2022-07-24T00:38:33.748Z</time>
      </trkpt>
      <trkpt lat="45.09724" lon="5.39391">
        <ele>890.28382</ele>
        <time>2022-07-24T00:38:42.313Z</time>
      </trkpt>
      <trkpt lat="45.09718" lon="5.39366">
        <ele>889.680671</ele>
        <time>2022-07-24T00:38:47.362Z</time>
      </trkpt>
      <trkpt lat="45.09717" lon="5.39324">
        <ele>888.739742</ele>
        <time>2022-07-24T00:38:55.594Z</time>
      </trkpt>
      <trkpt lat="45.09646" lon="5.39154">
        <ele>883.523778</ele>
        <time>2022-07-24T00:39:31.493Z</time>
      </trkpt>
      <trkpt lat="45.09648" lon="5.3902">
        <ele>878.775308</ele>
        <time>2022-07-24T00:39:53.639Z</time>
      </trkpt>
      <trkpt lat="45.0959" lon="5.38963">
        <ele>875.22646</ele>
        <time>2022-07-24T00:40:10.335Z</time>
      </trkpt>
      <trkpt lat="45.09582" lon="5.38951">
        <ele>874.654461</ele>
        <time>2022-07-24T00:40:12.885Z</time>
      </trkpt>
      <trkpt lat="45.09568" lon="5.38944">
        <ele>873.889983</ele>
        <time>2022-07-24T00:40:16.700Z</time>
      </trkpt>
      <trkpt lat="45.09545" lon="5.38941">
        <ele>872.715619</ele>
        <time>2022-07-24T00:40:22.154Z</time>
      </trkpt>
      <trkpt lat="45.09514" lon="5.38902">
        <ele>870.670156</ele>
        <time>2022-07-24T00:40:32.003Z</time>
      </trkpt>
      <trkpt lat="45.09474" lon="5.38878">
        <ele>868.451286</ele>
        <time>2022-07-24T00:40:42.780Z</time>
      </trkpt>
      <trkpt lat="45.09424" lon="5.3888">
        <ele>866.412893</ele>
        <time>2022-07-24T00:40:55.170Z</time>
      </trkpt>
      <trkpt lat="45.09381" lon="5.38866">
        <ele>864.828716</ele>
        <time>2022-07-24T00:41:06.433Z</time>
      </trkpt>
      <trkpt lat="45.09354" lon="5.3882">
        <ele>863.288018</ele>
        <time>2022-07-24T00:41:17.349Z</time>
      </trkpt>
      <trkpt lat="45.093" lon="5.38748">
        <ele>860.666763</ele>
        <time>2022-07-24T00:41:36.105Z</time>
      </trkpt>
      <trkpt lat="45.0929" lon="5.38723">
        <ele>860.020543</ele>
        <time>2022-07-24T00:41:41.256Z</time>
      </trkpt>
      <trkpt lat="45.09273" lon="5.38718">
        <ele>859.460043</ele>
        <time>2022-07-24T00:41:45.794Z</time>
      </trkpt>
      <trkpt lat="45.09221" lon="5.38644">
        <ele>857.124771</ele>
        <time>2022-07-24T00:42:04.697Z</time>
      </trkpt>
      <trkpt lat="45.09209" lon="5.38631">
        <ele>856.643266</ele>
        <time>2022-07-24T00:42:08.539Z</time>
      </trkpt>
      <trkpt lat="45.09194" lon="5.38626">
        <ele>856.15227</ele>
        <time>2022-07-24T00:42:12.607Z</time>
      </trkpt>
      <trkpt lat="45.09167" lon="5.38574">
        <ele>854.921059</ele>
        <time>2022-07-24T00:42:24.738Z</time>
      </trkpt>
      <trkpt lat="45.09163" lon="5.38554">
        <ele>854.604404</ele>
        <time>2022-07-24T00:42:28.660Z</time>
      </trkpt>
      <trkpt lat="45.09167" lon="5.38534">
        <ele>854.287558</ele>
        <time>2022-07-24T00:42:32.690Z</time>
      </trkpt>
      <trkpt lat="45.09163" lon="5.38513">
        <ele>853.954788</ele>
        <time>2022-07-24T00:42:36.900Z</time>
      </trkpt>
      <trkpt lat="45.09155" lon="5.38492">
        <ele>853.589956</ele>
        <time>2022-07-24T00:42:39.594Z</time>
      </trkpt>
      <trkpt lat="45.09152" lon="5.3843">
        <ele>852.657922</ele>
        <time>2022-07-24T00:42:46.519Z</time>
      </trkpt>
      <trkpt lat="45.09134" lon="5.38386">
        <ele>851.891097</ele>
        <time>2022-07-24T00:42:51.958Z</time>
      </trkpt>
      <trkpt lat="45.09138" lon="5.38344">
        <ele>851.127339</ele>
        <time>2022-07-24T00:42:56.607Z</time>
      </trkpt>
      <trkpt lat="45.09139" lon="5.3825">
        <ele>849.132983</ele>
        <time>2022-07-24T00:43:06.676Z</time>
      </trkpt>
      <trkpt lat="45.0911" lon="5.38252">
        <ele>848.249468</ele>
        <time>2022-07-24T00:43:10.780Z</time>
      </trkpt>
      <trkpt lat="45.09104" lon="5.38243">
        <ele>847.996419</ele>
        <time>2022-07-24T00:43:12.020Z</time>
      </trkpt>
      <trkpt lat="45.09084" lon="5.38224">
        <ele>847.277626</ele>
        <time>2022-07-24T00:43:15.345Z</time>
      </trkpt>
      <trkpt lat="45.09069" lon="5.38218">
        <ele>846.782787</ele>
        <time>2022-07-24T00:43:17.693Z</time>
      </trkpt>
      <trkpt lat="45.09059" lon="5.38217">
        <ele>846.487416</ele>
        <time>2022-07-24T00:43:19.068Z</time>
      </trkpt>
      <trkpt lat="45.09027" lon="5.38227">
        <ele>845.669222</ele>
        <time>2022-07-24T00:43:23.696Z</time>
      </trkpt>
      <trkpt lat="45.08969" lon="5.38253">
        <ele>844.340602</ele>
        <time>2022-07-24T00:43:32.170Z</time>
      </trkpt>
      <trkpt lat="45.08938" lon="5.3832">
        <ele>843.113542</ele>
        <time>2022-07-24T00:43:47.678Z</time>
      </trkpt>
      <trkpt lat="45.08896" lon="5.38429">
        <ele>843.4931</ele>
        <time>2022-07-24T00:44:14.758Z</time>
      </trkpt>
      <trkpt lat="45.08846" lon="5.38549">
        <ele>846.317893</ele>
        <time>2022-07-24T00:45:05.299Z</time>
      </trkpt>
      <trkpt lat="45.08832" lon="5.38573">
        <ele>846.934711</ele>
        <time>2022-07-24T00:45:17.360Z</time>
      </trkpt>
      <trkpt lat="45.08796" lon="5.38599">
        <ele>848.44053</ele>
        <time>2022-07-24T00:45:40.607Z</time>
      </trkpt>
      <trkpt lat="45.08764" lon="5.3859">
        <ele>849.783597</ele>
        <time>2022-07-24T00:45:58.974Z</time>
      </trkpt>
      <trkpt lat="45.08722" lon="5.38599">
        <ele>851.56052</ele>
        <time>2022-07-24T00:46:22.146Z</time>
      </trkpt>
      <trkpt lat="45.08687" lon="5.38633">
        <ele>853.322777</ele>
        <time>2022-07-24T00:46:44.411Z</time>
      </trkpt>
      <trkpt lat="45.08654" lon="5.38637">
        <ele>854.709969</ele>
        <time>2022-07-24T00:47:01.166Z</time>
      </trkpt>
      <trkpt lat="45.08634" lon="5.3862">
        <ele>855.028257</ele>
        <time>2022-07-24T00:47:11.891Z</time>
      </trkpt>
      <trkpt lat="45.08616" lon="5.38587">
        <ele>855.345213</ele>
        <time>2022-07-24T00:47:24.085Z</time>
      </trkpt>
      <trkpt lat="45.086" lon="5.38571">
        <ele>855.550504</ele>
        <time>2022-07-24T00:47:31.623Z</time>
      </trkpt>
      <trkpt lat="45.0859" lon="5.38569">
        <ele>855.665587</ele>
        <time>2022-07-24T00:47:35.626Z</time>
      </trkpt>
      <trkpt lat="45.08571" lon="5.38575">
        <ele>855.864995</ele>
        <time>2022-07-24T00:47:42.502Z</time>
      </trkpt>
      <trkpt lat="45.08559" lon="5.38573">
        <ele>855.994043</ele>
        <time>2022-07-24T00:47:46.595Z</time>
      </trkpt>
      <trkpt lat="45.08551" lon="5.38576">
        <ele>856.082828</ele>
        <time>2022-07-24T00:47:49.330Z</time>
      </trkpt>
      <trkpt lat="45.08539" lon="5.38588">
        <ele>856.24411</ele>
        <time>2022-07-24T00:47:54.175Z</time>
      </trkpt>
      <trkpt lat="45.08521" lon="5.38614">
        <ele>856.518098</ele>
        <time>2022-07-24T00:48:02.062Z</time>
      </trkpt>
      <trkpt lat="45.08513" lon="5.38631">
        <ele>856.67211</ele>
        <time>2022-07-24T00:48:06.405Z</time>
      </trkpt>
      <trkpt lat="45.08508" lon="5.38682">
        <ele>856.479201</ele>
        <time>2022-07-24T00:48:17.342Z</time>
      </trkpt>
      <trkpt lat="45.08492" lon="5.38732">
        <ele>856.174217</ele>
        <time>2022-07-24T00:48:28.979Z</time>
      </trkpt>
      <trkpt lat="45.08465" lon="5.38731">
        <ele>855.961629</ele>
        <time>2022-07-24T00:48:37.047Z</time>
      </trkpt>
      <trkpt lat="45.08457" lon="5.38737">
        <ele>855.890971</ele>
        <time>2022-07-24T00:48:39.615Z</time>
      </trkpt>
      <trkpt lat="45.08434" lon="5.38777">
        <ele>855.60374</ele>
        <time>2022-07-24T00:48:50.253Z</time>
      </trkpt>
      <trkpt lat="45.0842" lon="5.38836">
        <ele>855.263056</ele>
        <time>2022-07-24T00:49:03.041Z</time>
      </trkpt>
      <trkpt lat="45.0842" lon="5.38849">
        <ele>855.197452</ele>
        <time>2022-07-24T00:49:05.890Z</time>
      </trkpt>
      <trkpt lat="45.08454" lon="5.38946">
        <ele>854.676327</ele>
        <time>2022-07-24T00:49:28.363Z</time>
      </trkpt>
      <trkpt lat="45.08472" lon="5.38968">
        <ele>854.51494</ele>
        <time>2022-07-24T00:49:35.483Z</time>
      </trkpt>
      <trkpt lat="45.08475" lon="5.38996">
        <ele>854.37899</ele>
        <time>2022-07-24T00:49:41.599Z</time>
      </trkpt>
      <trkpt lat="45.08464" lon="5.3903">
        <ele>854.198184</ele>
        <time>2022-07-24T00:49:49.684Z</time>
      </trkpt>
      <trkpt lat="45.0844" lon="5.39062">
        <ele>854.19606</ele>
        <time>2022-07-24T00:49:59.753Z</time>
      </trkpt>
      <trkpt lat="45.08422" lon="5.39096">
        <ele>854.423587</ele>
        <time>2022-07-24T00:50:08.957Z</time>
      </trkpt>
      <trkpt lat="45.08408" lon="5.39197">
        <ele>854.968016</ele>
        <time>2022-07-24T00:50:35.555Z</time>
      </trkpt>
      <trkpt lat="45.08405" lon="5.39287">
        <ele>855.463933</ele>
        <time>2022-07-24T00:51:00.218Z</time>
      </trkpt>
      <trkpt lat="45.08405" lon="5.39302">
        <ele>855.642103</ele>
        <time>2022-07-24T00:51:04.361Z</time>
      </trkpt>
      <trkpt lat="45.08405" lon="5.39287">
        <ele>855.820274</ele>
        <time>2022-07-24T00:51:07.757Z</time>
      </trkpt>
      <trkpt lat="45.08418" lon="5.39306">
        <ele>856.129886</ele>
        <time>2022-07-24T00:51:16.549Z</time>
      </trkpt>
      <trkpt lat="45.08456" lon="5.39299">
        <ele>856.763818</ele>
        <time>2022-07-24T00:51:32.134Z</time>
      </trkpt>
      <trkpt lat="45.08517" lon="5.39336">
        <ele>857.856318</ele>
        <time>2022-07-24T00:51:59.599Z</time>
      </trkpt>
      <trkpt lat="45.08526" lon="5.39367">
        <ele>858.243354</ele>
        <time>2022-07-24T00:52:08.333Z</time>
      </trkpt>
      <trkpt lat="45.08577" lon="5.39367">
        <ele>858.495377</ele>
        <time>2022-07-24T00:52:28.267Z</time>
      </trkpt>
      <trkpt lat="45.08581" lon="5.39381">
        <ele>858.517947</ele>
        <time>2022-07-24T00:52:31.781Z</time>
      </trkpt>
      <trkpt lat="45.08578" lon="5.39404">
        <ele>858.550365</ele>
        <time>2022-07-24T00:52:37.189Z</time>
      </trkpt>
      <trkpt lat="45.08559" lon="5.39418">
        <ele>858.594288</ele>
        <time>2022-07-24T00:52:44.038Z</time>
      </trkpt>
      <trkpt lat="45.08556" lon="5.39441">
        <ele>858.628462</ele>
        <time>2022-07-24T00:52:49.707Z</time>
      </trkpt>
      <trkpt lat="45.08528" lon="5.39458">
        <ele>858.689668</ele>
        <time>2022-07-24T00:52:59.051Z</time>
      </trkpt>
      <trkpt lat="45.08518" lon="5.39455">
        <ele>858.712045</ele>
        <time>2022-07-24T00:53:02.502Z</time>
      </trkpt>
      <trkpt lat="45.0851" lon="5.39457">
        <ele>858.72816</ele>
        <time>2022-07-24T00:53:04.725Z</time>
      </trkpt>
      <trkpt lat="45.08475" lon="5.39494">
        <ele>858.829601</ele>
        <time>2022-07-24T00:53:17.683Z</time>
      </trkpt>
      <trkpt lat="45.08473" lon="5.39505">
        <ele>858.851241</ele>
        <time>2022-07-24T00:53:20.260Z</time>
      </trkpt>
      <trkpt lat="45.08457" lon="5.39522">
        <ele>858.905904</ele>
        <time>2022-07-24T00:53:26.098Z</time>
      </trkpt>
      <trkpt lat="45.08452" lon="5.39546">
        <ele>858.955222</ele>
        <time>2022-07-24T00:53:31.616Z</time>
      </trkpt>
      <trkpt lat="45.08424" lon="5.39597">
        <ele>859.079765</ele>
        <time>2022-07-24T00:53:46.012Z</time>
      </trkpt>
      <trkpt lat="45.08414" lon="5.39608">
        <ele>859.114518</ele>
        <time>2022-07-24T00:53:49.960Z</time>
      </trkpt>
      <trkpt lat="45.08412" lon="5.39622">
        <ele>859.141854</ele>
        <time>2022-07-24T00:53:52.805Z</time>
      </trkpt>
      <trkpt lat="45.08395" lon="5.39676">
        <ele>859.257298</ele>
        <time>2022-07-24T00:54:03.878Z</time>
      </trkpt>
      <trkpt lat="45.08393" lon="5.39691">
        <ele>859.444008</ele>
        <time>2022-07-24T00:54:06.752Z</time>
      </trkpt>
      <trkpt lat="45.08398" lon="5.39737">
        <ele>860.346893</ele>
        <time>2022-07-24T00:54:16.660Z</time>
      </trkpt>
      <trkpt lat="45.08392" lon="5.39752">
        <ele>860.682569</ele>
        <time>2022-07-24T00:54:20.066Z</time>
      </trkpt>
      <trkpt lat="45.08414" lon="5.39792">
        <ele>861.649934</ele>
        <time>2022-07-24T00:54:36.372Z</time>
      </trkpt>
      <trkpt lat="45.08446" lon="5.39815">
        <ele>862.633939</ele>
        <time>2022-07-24T00:54:53.868Z</time>
      </trkpt>
      <trkpt lat="45.08481" lon="5.39822">
        <ele>863.598736</ele>
        <time>2022-07-24T00:55:10.944Z</time>
      </trkpt>
      <trkpt lat="45.08556" lon="5.39827">
        <ele>866.313295</ele>
        <time>2022-07-24T00:55:48.073Z</time>
      </trkpt>
      <trkpt lat="45.08587" lon="5.39835">
        <ele>867.587934</ele>
        <time>2022-07-24T00:56:03.231Z</time>
      </trkpt>
      <trkpt lat="45.08617" lon="5.39822">
        <ele>868.818663</ele>
        <time>2022-07-24T00:56:18.285Z</time>
      </trkpt>
      <trkpt lat="45.08619" lon="5.39827">
        <ele>868.982267</ele>
        <time>2022-07-24T00:56:20.448Z</time>
      </trkpt>
      <trkpt lat="45.08612" lon="5.39838">
        <ele>869.387868</ele>
        <time>2022-07-24T00:56:25.409Z</time>
      </trkpt>
      <trkpt lat="45.08575" lon="5.39857">
        <ele>870.962137</ele>
        <time>2022-07-24T00:56:47.708Z</time>
      </trkpt>
      <trkpt lat="45.08539" lon="5.39865">
        <ele>872.857934</ele>
        <time>2022-07-24T00:57:10.665Z</time>
      </trkpt>
      <trkpt lat="45.08485" lon="5.3991">
        <ele>876.394865</ele>
        <time>2022-07-24T00:57:47.306Z</time>
      </trkpt>
      <trkpt lat="45.08466" lon="5.3995">
        <ele>878.301366</ele>
        <time>2022-07-24T00:58:07.061Z</time>
      </trkpt>
      <trkpt lat="45.08464" lon="5.39979">
        <ele>879.456913</ele>
        <time>2022-07-24T00:58:21.888Z</time>
      </trkpt>
      <trkpt lat="45.08435" lon="5.40006">
        <ele>881.3746</ele>
        <time>2022-07-24T00:58:42.457Z</time>
      </trkpt>
      <trkpt lat="45.08419" lon="5.40012">
        <ele>882.311456</ele>
        <time>2022-07-24T00:58:51.076Z</time>
      </trkpt>
      <trkpt lat="45.08407" lon="5.40016">
        <ele>882.944807</ele>
        <time>2022-07-24T00:58:59.956Z</time>
      </trkpt>
      <trkpt lat="45.08375" lon="5.40042">
        <ele>884.918816</ele>
        <time>2022-07-24T00:59:22.393Z</time>
      </trkpt>
      <trkpt lat="45.08363" lon="5.40043">
        <ele>885.565446</ele>
        <time>2022-07-24T00:59:29.726Z</time>
      </trkpt>
      <trkpt lat="45.08351" lon="5.40038">
        <ele>886.209043</ele>
        <time>2022-07-24T00:59:35.177Z</time>
      </trkpt>
      <trkpt lat="45.08336" lon="5.40038">
        <ele>887.042239</ele>
        <time>2022-07-24T00:59:46.509Z</time>
      </trkpt>
      <trkpt lat="45.08322" lon="5.40046">
        <ele>887.824873</ele>
        <time>2022-07-24T00:59:54.003Z</time>
      </trkpt>
      <trkpt lat="45.08304" lon="5.40086">
        <ele>889.60405</ele>
        <time>2022-07-24T01:00:08.522Z</time>
      </trkpt>
      <trkpt lat="45.08293" lon="5.40099">
        <ele>890.367969</ele>
        <time>2022-07-24T01:00:15.445Z</time>
      </trkpt>
      <trkpt lat="45.08266" lon="5.40141">
        <ele>893.788528</ele>
        <time>2022-07-24T01:00:39.306Z</time>
      </trkpt>
      <trkpt lat="45.08246" lon="5.40163">
        <ele>896.231475</ele>
        <time>2022-07-24T01:00:59.976Z</time>
      </trkpt>
      <trkpt lat="45.08235" lon="5.40183">
        <ele>897.998672</ele>
        <time>2022-07-24T01:01:13.157Z</time>
      </trkpt>
      <trkpt lat="45.08231" lon="5.40196">
        <ele>899.000077</ele>
        <time>2022-07-24T01:01:25.362Z</time>
      </trkpt>
      <trkpt lat="45.08246" lon="5.40231">
        <ele>901.85599</ele>
        <time>2022-07-24T01:01:48.940Z</time>
      </trkpt>
      <trkpt lat="45.08252" lon="5.40252">
        <ele>903.507551</ele>
        <time>2022-07-24T01:02:04.362Z</time>
      </trkpt>
      <trkpt lat="45.08257" lon="5.40312">
        <ele>907.6933</ele>
        <time>2022-07-24T01:02:41.688Z</time>
      </trkpt>
      <trkpt lat="45.08249" lon="5.4032">
        <ele>908.60358</ele>
        <time>2022-07-24T01:02:47.490Z</time>
      </trkpt>
      <trkpt lat="45.08255" lon="5.40329">
        <ele>909.494066</ele>
        <time>2022-07-24T01:02:59.277Z</time>
      </trkpt>
      <trkpt lat="45.08274" lon="5.40349">
        <ele>912.275451</ele>
        <time>2022-07-24T01:03:18.641Z</time>
      </trkpt>
      <trkpt lat="45.08283" lon="5.40366">
        <ele>913.99959</ele>
        <time>2022-07-24T01:03:35.669Z</time>
      </trkpt>
      <trkpt lat="45.08318" lon="5.40416">
        <ele>919.762586</ele>
        <time>2022-07-24T01:04:21.770Z</time>
      </trkpt>
      <trkpt lat="45.08333" lon="5.40429">
        <ele>921.708204</ele>
        <time>2022-07-24T01:04:39.814Z</time>
      </trkpt>
      <trkpt lat="45.08347" lon="5.40435">
        <ele>923.371558</ele>
        <time>2022-07-24T01:04:52.877Z</time>
      </trkpt>
      <trkpt lat="45.08355" lon="5.40444">
        <ele>924.620234</ele>
        <time>2022-07-24T01:05:01.638Z</time>
      </trkpt>
      <trkpt lat="45.08363" lon="5.40459">
        <ele>926.126532</ele>
        <time>2022-07-24T01:05:16.390Z</time>
      </trkpt>
      <trkpt lat="45.08383" lon="5.40479">
        <ele>928.903516</ele>
        <time>2022-07-24T01:05:34.192Z</time>
      </trkpt>
      <trkpt lat="45.08385" lon="5.40487">
        <ele>929.608914</ele>
        <time>2022-07-24T01:05:38.727Z</time>
      </trkpt>
      <trkpt lat="45.08385" lon="5.40551">
        <ele>933.384934</ele>
        <time>2022-07-24T01:06:08.623Z</time>
      </trkpt>
      <trkpt lat="45.08388" lon="5.4056">
        <ele>933.997079</ele>
        <time>2022-07-24T01:06:13.107Z</time>
      </trkpt>
      <trkpt lat="45.08417" lon="5.40576">
        <ele>936.590299</ele>
        <time>2022-07-24T01:06:33.672Z</time>
      </trkpt>
      <trkpt lat="45.08443" lon="5.40601">
        <ele>939.247942</ele>
        <time>2022-07-24T01:06:57.832Z</time>
      </trkpt>
      <trkpt lat="45.08464" lon="5.40607">
        <ele>941.07346</ele>
        <time>2022-07-24T01:07:13.930Z</time>
      </trkpt>
      <trkpt lat="45.08488" lon="5.4062">
        <ele>943.231149</ele>
        <time>2022-07-24T01:07:34.143Z</time>
      </trkpt>
      <trkpt lat="45.08503" lon="5.40635">
        <ele>944.770149</ele>
        <time>2022-07-24T01:07:47.856Z</time>
      </trkpt>
      <trkpt lat="45.08508" lon="5.40645">
        <ele>945.641994</ele>
        <time>2022-07-24T01:07:54.772Z</time>
      </trkpt>
      <trkpt lat="45.08511" lon="5.40653">
        <ele>946.309345</ele>
        <time>2022-07-24T01:07:59.667Z</time>
      </trkpt>
      <trkpt lat="45.08511" lon="5.40672">
        <ele>947.626898</ele>
        <time>2022-07-24T01:08:08.618Z</time>
      </trkpt>
      <trkpt lat="45.08507" lon="5.40711">
        <ele>950.423219</ele>
        <time>2022-07-24T01:08:30.211Z</time>
      </trkpt>
      <trkpt lat="45.0851" lon="5.40749">
        <ele>953.143646</ele>
        <time>2022-07-24T01:08:52.128Z</time>
      </trkpt>
      <trkpt lat="45.08523" lon="5.40765">
        <ele>954.872676</ele>
        <time>2022-07-24T01:09:05.492Z</time>
      </trkpt>
      <trkpt lat="45.08523" lon="5.40773">
        <ele>955.443836</ele>
        <time>2022-07-24T01:09:10.411Z</time>
      </trkpt>
      <trkpt lat="45.08515" lon="5.4082">
        <ele>958.916667</ele>
        <time>2022-07-24T01:09:39.517Z</time>
      </trkpt>
      <trkpt lat="45.08515" lon="5.40872">
        <ele>962.586649</ele>
        <time>2022-07-24T01:10:10.987Z</time>
      </trkpt>
      <trkpt lat="45.08512" lon="5.40894">
        <ele>964.422124</ele>
        <time>2022-07-24T01:10:28.008Z</time>
      </trkpt>
      <trkpt lat="45.08516" lon="5.40918">
        <ele>966.427796</ele>
        <time>2022-07-24T01:10:43.298Z</time>
      </trkpt>
      <trkpt lat="45.08523" lon="5.40944">
        <ele>968.731839</ele>
        <time>2022-07-24T01:11:01.455Z</time>
      </trkpt>
      <trkpt lat="45.08508" lon="5.40976">
        <ele>971.917742</ele>
        <time>2022-07-24T01:11:25.215Z</time>
      </trkpt>
      <trkpt lat="45.08511" lon="5.4101">
        <ele>974.766311</ele>
        <time>2022-07-24T01:11:46.338Z</time>
      </trkpt>
      <trkpt lat="45.08528" lon="5.41071">
        <ele>980.085197</ele>
        <time>2022-07-24T01:12:26.743Z</time>
      </trkpt>
      <trkpt lat="45.08528" lon="5.41071">
        <ele>980.085197</ele>
        <time>2022-07-24T01:12:27.283Z</time>
      </trkpt>
      <trkpt lat="45.08545" lon="5.41083">
        <ele>982.305689</ele>
        <time>2022-07-24T01:12:44.737Z</time>
      </trkpt>
      <trkpt lat="45.0857" lon="5.41077">
        <ele>985.486272</ele>
        <time>2022-07-24T01:13:09.281Z</time>
      </trkpt>
      <trkpt lat="45.0859" lon="5.41098">
        <ele>988.619571</ele>
        <time>2022-07-24T01:13:31.213Z</time>
      </trkpt>
      <trkpt lat="45.08611" lon="5.41139">
        <ele>993.125701</ele>
        <time>2022-07-24T01:14:02.824Z</time>
      </trkpt>
      <trkpt lat="45.08618" lon="5.41161">
        <ele>995.277387</ele>
        <time>2022-07-24T01:14:20.646Z</time>
      </trkpt>
      <trkpt lat="45.0864" lon="5.41194">
        <ele>999.246062</ele>
        <time>2022-07-24T01:14:52.540Z</time>
      </trkpt>
      <trkpt lat="45.08701" lon="5.41242">
        <ele>1008.002078</ele>
        <time>2022-07-24T01:15:59.833Z</time>
      </trkpt>
      <trkpt lat="45.08732" lon="5.41257">
        <ele>1012.153712</ele>
        <time>2022-07-24T01:16:31.007Z</time>
      </trkpt>
      <trkpt lat="45.08769" lon="5.41263">
        <ele>1016.635398</ele>
        <time>2022-07-24T01:17:02.032Z</time>
      </trkpt>
      <trkpt lat="45.0878" lon="5.4127">
        <ele>1018.157208</ele>
        <time>2022-07-24T01:17:11.099Z</time>
      </trkpt>
      <trkpt lat="45.08787" lon="5.41275">
        <ele>1019.158105</ele>
        <time>2022-07-24T01:17:17.012Z</time>
      </trkpt>
      <trkpt lat="45.08793" lon="5.41289">
        <ele>1020.549175</ele>
        <time>2022-07-24T01:17:25.168Z</time>
      </trkpt>
      <trkpt lat="45.088" lon="5.41345">
        <ele>1025.520476</ele>
        <time>2022-07-24T01:17:58.601Z</time>
      </trkpt>
      <trkpt lat="45.08806" lon="5.41359">
        <ele>1026.936423</ele>
        <time>2022-07-24T01:18:08.858Z</time>
      </trkpt>
      <trkpt lat="45.08815" lon="5.41371">
        <ele>1028.486102</ele>
        <time>2022-07-24T01:18:19.809Z</time>
      </trkpt>
      <trkpt lat="45.08851" lon="5.414">
        <ele>1034.267093</ele>
        <time>2022-07-24T01:18:59.847Z</time>
      </trkpt>
      <trkpt lat="45.08883" lon="5.41436">
        <ele>1040.063927</ele>
        <time>2022-07-24T01:19:39.594Z</time>
      </trkpt>
      <trkpt lat="45.09005" lon="5.4159">
        <ele>1059.226364</ele>
        <time>2022-07-24T01:22:05.159Z</time>
      </trkpt>
      <trkpt lat="45.09032" lon="5.41611">
        <ele>1061.683211</ele>
        <time>2022-07-24T01:22:24.840Z</time>
      </trkpt>
      <trkpt lat="45.09055" lon="5.41604">
        <ele>1063.618</ele>
        <time>2022-07-24T01:22:37.331Z</time>
      </trkpt>
      <trkpt lat="45.09108" lon="5.41577">
        <ele>1068.097458</ele>
        <time>2022-07-24T01:23:00.009Z</time>
      </trkpt>
      <trkpt lat="45.09178" lon="5.41546">
        <ele>1070.161345</ele>
        <time>2022-07-24T01:23:14.041Z</time>
      </trkpt>
      <trkpt lat="45.0925" lon="5.41543">
        <ele>1071.887713</ele>
        <time>2022-07-24T01:23:33.085Z</time>
      </trkpt>
      <trkpt lat="45.09312" lon="5.41566">
        <ele>1075.069404</ele>
        <time>2022-07-24T01:24:03.175Z</time>
      </trkpt>
      <trkpt lat="45.0937" lon="5.41605">
        <ele>1081.031056</ele>
        <time>2022-07-24T01:24:44.544Z</time>
      </trkpt>
      <trkpt lat="45.09427" lon="5.41675">
        <ele>1087.907392</ele>
        <time>2022-07-24T01:25:40.433Z</time>
      </trkpt>
      <trkpt lat="45.09427" lon="5.41675">
        <ele>1087.907392</ele>
        <time>2022-07-24T01:25:40.824Z</time>
      </trkpt>
      <trkpt lat="45.09465" lon="5.41699">
        <ele>1091.929053</ele>
        <time>2022-07-24T01:26:13.800Z</time>
      </trkpt>
      <trkpt lat="45.09475" lon="5.4172">
        <ele>1093.803036</ele>
        <time>2022-07-24T01:26:28.116Z</time>
      </trkpt>
      <trkpt lat="45.0949" lon="5.41743">
        <ele>1095.974464</ele>
        <time>2022-07-24T01:26:43.646Z</time>
      </trkpt>
      <trkpt lat="45.09477" lon="5.41738">
        <ele>1097.283927</ele>
        <time>2022-07-24T01:26:54.052Z</time>
      </trkpt>
      <trkpt lat="45.09461" lon="5.41739">
        <ele>1098.949568</ele>
        <time>2022-07-24T01:27:08.058Z</time>
      </trkpt>
      <trkpt lat="45.09437" lon="5.41751">
        <ele>1101.576684</ele>
        <time>2022-07-24T01:27:28.984Z</time>
      </trkpt>
      <trkpt lat="45.09415" lon="5.4175">
        <ele>1103.781287</ele>
        <time>2022-07-24T01:27:45.875Z</time>
      </trkpt>
      <trkpt lat="45.09364" lon="5.41764">
        <ele>1109.453643</ele>
        <time>2022-07-24T01:28:24.012Z</time>
      </trkpt>
      <trkpt lat="45.09339" lon="5.41767">
        <ele>1112.615738</ele>
        <time>2022-07-24T01:28:42.804Z</time>
      </trkpt>
      <trkpt lat="45.09318" lon="5.4178">
        <ele>1115.511885</ele>
        <time>2022-07-24T01:29:01.112Z</time>
      </trkpt>
      <trkpt lat="45.09274" lon="5.4178">
        <ele>1121.050689</ele>
        <time>2022-07-24T01:29:41.999Z</time>
      </trkpt>
      <trkpt lat="45.09253" lon="5.41768">
        <ele>1123.974471</ele>
        <time>2022-07-24T01:30:04.249Z</time>
      </trkpt>
      <trkpt lat="45.09207" lon="5.4183">
        <ele>1133.20304</ele>
        <time>2022-07-24T01:31:14.880Z</time>
      </trkpt>
      <trkpt lat="45.09157" lon="5.41908">
        <ele>1149.498423</ele>
        <time>2022-07-24T01:32:56.665Z</time>
      </trkpt>
      <trkpt lat="45.09136" lon="5.41959">
        <ele>1158.481811</ele>
        <time>2022-07-24T01:33:56.856Z</time>
      </trkpt>
      <trkpt lat="45.09052" lon="5.42083">
        <ele>1187.9364</ele>
        <time>2022-07-24T01:36:54.886Z</time>
      </trkpt>
      <trkpt lat="45.09015" lon="5.42132">
        <ele>1201.083618</ele>
        <time>2022-07-24T01:38:09.523Z</time>
      </trkpt>
      <trkpt lat="45.08993" lon="5.42116">
        <ele>1207.315478</ele>
        <time>2022-07-24T01:38:44.690Z</time>
      </trkpt>
      <trkpt lat="45.08989" lon="5.42118">
        <ele>1208.686219</ele>
        <time>2022-07-24T01:38:52.746Z</time>
      </trkpt>
      <trkpt lat="45.08994" lon="5.42132">
        <ele>1211.567402</ele>
        <time>2022-07-24T01:39:08.995Z</time>
      </trkpt>
      <trkpt lat="45.08975" lon="5.42196">
        <ele>1222.89656</ele>
        <time>2022-07-24T01:40:20.996Z</time>
      </trkpt>
      <trkpt lat="45.08912" lon="5.42295">
        <ele>1243.030489</ele>
        <time>2022-07-24T01:42:33.332Z</time>
      </trkpt>
      <trkpt lat="45.08901" lon="5.42307">
        <ele>1246.107265</ele>
        <time>2022-07-24T01:42:53.588Z</time>
      </trkpt>
      <trkpt lat="45.08848" lon="5.42367">
        <ele>1257.327585</ele>
        <time>2022-07-24T01:44:12.450Z</time>
      </trkpt>
      <trkpt lat="45.08835" lon="5.42406">
        <ele>1259.940815</ele>
        <time>2022-07-24T01:44:42.345Z</time>
      </trkpt>
      <trkpt lat="45.08833" lon="5.42429">
        <ele>1261.317302</ele>
        <time>2022-07-24T01:44:54.722Z</time>
      </trkpt>
      <trkpt lat="45.08819" lon="5.42432">
        <ele>1262.564083</ele>
        <time>2022-07-24T01:45:07.545Z</time>
      </trkpt>
      <trkpt lat="45.08777" lon="5.42415">
        <ele>1266.29671</ele>
        <time>2022-07-24T01:45:33.779Z</time>
      </trkpt>
      <trkpt lat="45.08752" lon="5.42446">
        <ele>1269.144685</ele>
        <time>2022-07-24T01:45:48.517Z</time>
      </trkpt>
      <trkpt lat="45.08725" lon="5.42465">
        <ele>1270.161531</ele>
        <time>2022-07-24T01:46:01.356Z</time>
      </trkpt>
      <trkpt lat="45.08707" lon="5.42442">
        <ele>1269.554163</ele>
        <time>2022-07-24T01:46:08.416Z</time>
      </trkpt>
      <trkpt lat="45.08704" lon="5.42399">
        <ele>1268.795024</ele>
        <time>2022-07-24T01:46:20.496Z</time>
      </trkpt>
      <trkpt lat="45.08695" lon="5.4234">
        <ele>1267.746972</ele>
        <time>2022-07-24T01:46:32.439Z</time>
      </trkpt>
      <trkpt lat="45.08685" lon="5.42296">
        <ele>1266.93114</ele>
        <time>2022-07-24T01:46:40.550Z</time>
      </trkpt>
      <trkpt lat="45.08687" lon="5.4223">
        <ele>1264.810684</ele>
        <time>2022-07-24T01:46:50.966Z</time>
      </trkpt>
      <trkpt lat="45.08672" lon="5.42209">
        <ele>1262.425767</ele>
        <time>2022-07-24T01:46:55.489Z</time>
      </trkpt>
      <trkpt lat="45.08637" lon="5.42179">
        <ele>1257.774139</ele>
        <time>2022-07-24T01:47:04.069Z</time>
      </trkpt>
      <trkpt lat="45.08598" lon="5.42176">
        <ele>1253.240411</ele>
        <time>2022-07-24T01:47:12.260Z</time>
      </trkpt>
      <trkpt lat="45.08564" lon="5.42186">
        <ele>1249.274256</ele>
        <time>2022-07-24T01:47:19.413Z</time>
      </trkpt>
      <trkpt lat="45.08479" lon="5.42267">
        <ele>1239.475592</ele>
        <time>2022-07-24T01:47:40.643Z</time>
      </trkpt>
      <trkpt lat="45.08438" lon="5.42291">
        <ele>1235.549598</ele>
        <time>2022-07-24T01:47:50.453Z</time>
      </trkpt>
      <trkpt lat="45.08423" lon="5.42292">
        <ele>1234.254581</ele>
        <time>2022-07-24T01:47:53.825Z</time>
      </trkpt>
      <trkpt lat="45.08383" lon="5.42262">
        <ele>1230.355458</ele>
        <time>2022-07-24T01:48:04.371Z</time>
      </trkpt>
      <trkpt lat="45.08302" lon="5.42276">
        <ele>1225.745712</ele>
        <time>2022-07-24T01:48:26.298Z</time>
      </trkpt>
      <trkpt lat="45.08301" lon="5.42285">
        <ele>1225.416202</ele>
        <time>2022-07-24T01:48:27.772Z</time>
      </trkpt>
      <trkpt lat="45.08255" lon="5.42318">
        <ele>1222.615731</ele>
        <time>2022-07-24T01:48:39.896Z</time>
      </trkpt>
      <trkpt lat="45.08267" lon="5.42354">
        <ele>1221.127353</ele>
        <time>2022-07-24T01:48:46.300Z</time>
      </trkpt>
      <trkpt lat="45.08253" lon="5.4238">
        <ele>1219.653012</ele>
        <time>2022-07-24T01:48:51.608Z</time>
      </trkpt>
      <trkpt lat="45.0826" lon="5.42394">
        <ele>1218.59604</ele>
        <time>2022-07-24T01:48:54.139Z</time>
      </trkpt>
      <trkpt lat="45.0825" lon="5.42398">
        <ele>1217.705538</ele>
        <time>2022-07-24T01:48:56.285Z</time>
      </trkpt>
      <trkpt lat="45.08252" lon="5.42414">
        <ele>1216.626236</ele>
        <time>2022-07-24T01:48:58.987Z</time>
      </trkpt>
      <trkpt lat="45.08239" lon="5.42419">
        <ele>1215.433247</ele>
        <time>2022-07-24T01:49:01.835Z</time>
      </trkpt>
      <trkpt lat="45.08229" lon="5.4246">
        <ele>1212.592508</ele>
        <time>2022-07-24T01:49:08.570Z</time>
      </trkpt>
      <trkpt lat="45.08227" lon="5.42481">
        <ele>1211.222487</ele>
        <time>2022-07-24T01:49:11.857Z</time>
      </trkpt>
      <trkpt lat="45.08213" lon="5.42487">
        <ele>1209.861727</ele>
        <time>2022-07-24T01:49:15.015Z</time>
      </trkpt>
      <trkpt lat="45.08204" lon="5.42484">
        <ele>1208.97012</ele>
        <time>2022-07-24T01:49:17.044Z</time>
      </trkpt>
      <trkpt lat="45.08208" lon="5.42555">
        <ele>1204.347575</ele>
        <time>2022-07-24T01:49:27.627Z</time>
      </trkpt>
      <trkpt lat="45.08214" lon="5.42605">
        <ele>1200.713237</ele>
        <time>2022-07-24T01:49:35.126Z</time>
      </trkpt>
      <trkpt lat="45.08209" lon="5.42616">
        <ele>1199.74</ele>
        <time>2022-07-24T01:49:37.062Z</time>
      </trkpt>
      <trkpt lat="45.08183" lon="5.42629">
        <ele>1196.916878</ele>
        <time>2022-07-24T01:49:43.050Z</time>
      </trkpt>
      <trkpt lat="45.08182" lon="5.42643">
        <ele>1195.901611</ele>
        <time>2022-07-24T01:49:45.169Z</time>
      </trkpt>
      <trkpt lat="45.082" lon="5.42685">
        <ele>1192.262217</ele>
        <time>2022-07-24T01:49:52.840Z</time>
      </trkpt>
      <trkpt lat="45.08192" lon="5.42712">
        <ele>1190.14113</ele>
        <time>2022-07-24T01:49:57.192Z</time>
      </trkpt>
      <trkpt lat="45.08177" lon="5.42717">
        <ele>1188.49882</ele>
        <time>2022-07-24T01:50:00.481Z</time>
      </trkpt>
      <trkpt lat="45.08134" lon="5.42712">
        <ele>1183.907649</ele>
        <time>2022-07-24T01:50:09.522Z</time>
      </trkpt>
      <trkpt lat="45.08073" lon="5.42711">
        <ele>1176.44527</ele>
        <time>2022-07-24T01:50:22.257Z</time>
      </trkpt>
      <trkpt lat="45.08035" lon="5.42694">
        <ele>1171.518867</ele>
        <time>2022-07-24T01:50:30.724Z</time>
      </trkpt>
      <trkpt lat="45.08015" lon="5.42734">
        <ele>1167.320984</ele>
        <time>2022-07-24T01:50:37.822Z</time>
      </trkpt>
      <trkpt lat="45.07985" lon="5.42771">
        <ele>1162.360882</ele>
        <time>2022-07-24T01:50:45.912Z</time>
      </trkpt>
      <trkpt lat="45.07931" lon="5.42794">
        <ele>1154.453283</ele>
        <time>2022-07-24T01:50:57.433Z</time>
      </trkpt>
      <trkpt lat="45.07904" lon="5.4279">
        <ele>1150.699036</ele>
        <time>2022-07-24T01:51:02.935Z</time>
      </trkpt>
      <trkpt lat="45.07874" lon="5.42821">
        <ele>1145.418642</ele>
        <time>2022-07-24T01:51:10.727Z</time>
      </trkpt>
      <trkpt lat="45.07855" lon="5.42843">
        <ele>1141.97574</ele>
        <time>2022-07-24T01:51:15.713Z</time>
      </trkpt>
      <trkpt lat="45.0782" lon="5.42836">
        <ele>1137.04072</ele>
        <time>2022-07-24T01:51:22.913Z</time>
      </trkpt>
      <trkpt lat="45.07786" lon="5.42844">
        <ele>1132.055206</ele>
        <time>2022-07-24T01:51:29.794Z</time>
      </trkpt>
      <trkpt lat="45.07746" lon="5.42835">
        <ele>1126.320632</ele>
        <time>2022-07-24T01:51:37.690Z</time>
      </trkpt>
      <trkpt lat="45.07713" lon="5.42822">
        <ele>1121.244092</ele>
        <time>2022-07-24T01:51:44.766Z</time>
      </trkpt>
      <trkpt lat="45.07677" lon="5.42803">
        <ele>1115.709743</ele>
        <time>2022-07-24T01:51:52.758Z</time>
      </trkpt>
      <trkpt lat="45.07648" lon="5.42775">
        <ele>1110.910845</ele>
        <time>2022-07-24T01:51:59.925Z</time>
      </trkpt>
      <trkpt lat="45.07635" lon="5.42807">
        <ele>1107.84057</ele>
        <time>2022-07-24T01:52:05.482Z</time>
      </trkpt>
      <trkpt lat="45.07628" lon="5.42841">
        <ele>1104.937514</ele>
        <time>2022-07-24T01:52:10.830Z</time>
      </trkpt>
      <trkpt lat="45.07605" lon="5.4287">
        <ele>1101.378024</ele>
        <time>2022-07-24T01:52:17.433Z</time>
      </trkpt>
      <trkpt lat="45.076" lon="5.42885">
        <ele>1099.960981</ele>
        <time>2022-07-24T01:52:19.964Z</time>
      </trkpt>
      <trkpt lat="45.07607" lon="5.42918">
        <ele>1097.103074</ele>
        <time>2022-07-24T01:52:25.014Z</time>
      </trkpt>
      <trkpt lat="45.07607" lon="5.42933">
        <ele>1095.888702</ele>
        <time>2022-07-24T01:52:27.150Z</time>
      </trkpt>
      <trkpt lat="45.07604" lon="5.42948">
        <ele>1094.620333</ele>
        <time>2022-07-24T01:52:29.471Z</time>
      </trkpt>
      <trkpt lat="45.07615" lon="5.42959">
        <ele>1093.022919</ele>
        <time>2022-07-24T01:52:32.363Z</time>
      </trkpt>
      <trkpt lat="45.07616" lon="5.42987">
        <ele>1090.716911</ele>
        <time>2022-07-24T01:52:36.706Z</time>
      </trkpt>
      <trkpt lat="45.07625" lon="5.42998">
        <ele>1088.970524</ele>
        <time>2022-07-24T01:52:39.263Z</time>
      </trkpt>
      <trkpt lat="45.07627" lon="5.43012">
        <ele>1087.477194</ele>
        <time>2022-07-24T01:52:41.205Z</time>
      </trkpt>
      <trkpt lat="45.07636" lon="5.43024">
        <ele>1085.486511</ele>
        <time>2022-07-24T01:52:43.800Z</time>
      </trkpt>
      <trkpt lat="45.07642" lon="5.43045">
        <ele>1083.009758</ele>
        <time>2022-07-24T01:52:47.125Z</time>
      </trkpt>
      <trkpt lat="45.07635" lon="5.43084">
        <ele>1078.542578</ele>
        <time>2022-07-24T01:52:52.863Z</time>
      </trkpt>
      <trkpt lat="45.07626" lon="5.43101">
        <ele>1076.187295</ele>
        <time>2022-07-24T01:52:55.843Z</time>
      </trkpt>
      <trkpt lat="45.07619" lon="5.43108">
        <ele>1074.832731</ele>
        <time>2022-07-24T01:52:57.583Z</time>
      </trkpt>
      <trkpt lat="45.07564" lon="5.43141">
        <ele>1065.536537</ele>
        <time>2022-07-24T01:53:09.501Z</time>
      </trkpt>
      <trkpt lat="45.07556" lon="5.43163">
        <ele>1062.787954</ele>
        <time>2022-07-24T01:53:12.942Z</time>
      </trkpt>
      <trkpt lat="45.07547" lon="5.43207">
        <ele>1057.798339</ele>
        <time>2022-07-24T01:53:19.252Z</time>
      </trkpt>
      <trkpt lat="45.07546" lon="5.43251">
        <ele>1052.859204</ele>
        <time>2022-07-24T01:53:25.518Z</time>
      </trkpt>
      <trkpt lat="45.07542" lon="5.43275">
        <ele>1050.148816</ele>
        <time>2022-07-24T01:53:29.001Z</time>
      </trkpt>
      <trkpt lat="45.07523" lon="5.43306">
        <ele>1045.687211</ele>
        <time>2022-07-24T01:53:34.624Z</time>
      </trkpt>
      <trkpt lat="45.0749" lon="5.43351">
        <ele>1038.45213</ele>
        <time>2022-07-24T01:53:43.861Z</time>
      </trkpt>
      <trkpt lat="45.07444" lon="5.43355">
        <ele>1032.780084</ele>
        <time>2022-07-24T01:53:53.717Z</time>
      </trkpt>
      <trkpt lat="45.074" lon="5.43353">
        <ele>1029.292433</ele>
        <time>2022-07-24T01:54:03.425Z</time>
      </trkpt>
      <trkpt lat="45.07384" lon="5.43392">
        <ele>1026.775831</ele>
        <time>2022-07-24T01:54:10.667Z</time>
      </trkpt>
      <trkpt lat="45.07378" lon="5.43412">
        <ele>1025.585361</ele>
        <time>2022-07-24T01:54:14.110Z</time>
      </trkpt>
      <trkpt lat="45.07374" lon="5.43431">
        <ele>1024.4627</ele>
        <time>2022-07-24T01:54:17.429Z</time>
      </trkpt>
      <trkpt lat="45.07371" lon="5.4347">
        <ele>1022.273883</ele>
        <time>2022-07-24T01:54:23.726Z</time>
      </trkpt>
      <trkpt lat="45.07382" lon="5.43554">
        <ele>1019.372272</ele>
        <time>2022-07-24T01:54:37.645Z</time>
      </trkpt>
      <trkpt lat="45.07409" lon="5.43638">
        <ele>1017.78925</ele>
        <time>2022-07-24T01:54:56.001Z</time>
      </trkpt>
      <trkpt lat="45.07411" lon="5.43644">
        <ele>1017.68315</ele>
        <time>2022-07-24T01:54:57.196Z</time>
      </trkpt>
      <trkpt lat="45.07437" lon="5.43703">
        <ele>1016.498858</ele>
        <time>2022-07-24T01:55:11.952Z</time>
      </trkpt>
      <trkpt lat="45.07438" lon="5.43739">
        <ele>1015.893451</ele>
        <time>2022-07-24T01:55:19.275Z</time>
      </trkpt>
      <trkpt lat="45.07424" lon="5.43789">
        <ele>1015.881397</ele>
        <time>2022-07-24T01:55:30.822Z</time>
      </trkpt>
      <trkpt lat="45.07438" lon="5.43818">
        <ele>1015.902893</ele>
        <time>2022-07-24T01:55:38.488Z</time>
      </trkpt>
      <trkpt lat="45.07446" lon="5.43847">
        <ele>1015.922239</ele>
        <time>2022-07-24T01:55:45.227Z</time>
      </trkpt>
      <trkpt lat="45.07559" lon="5.43912">
        <ele>1016.427469</ele>
        <time>2022-07-24T01:56:27.153Z</time>
      </trkpt>
      <trkpt lat="45.07571" lon="5.4391">
        <ele>1016.635642</ele>
        <time>2022-07-24T01:56:32.275Z</time>
      </trkpt>
      <trkpt lat="45.07576" lon="5.43939">
        <ele>1016.986547</ele>
        <time>2022-07-24T01:56:40.630Z</time>
      </trkpt>
      <trkpt lat="45.07576" lon="5.44">
        <ele>1017.69793</ele>
        <time>2022-07-24T01:56:56.686Z</time>
      </trkpt>
      <trkpt lat="45.07595" lon="5.44028">
        <ele>1018.153396</ele>
        <time>2022-07-24T01:57:08.607Z</time>
      </trkpt>
      <trkpt lat="45.07629" lon="5.44039">
        <ele>1018.728995</ele>
        <time>2022-07-24T01:57:25.274Z</time>
      </trkpt>
      <trkpt lat="45.07667" lon="5.4409">
        <ele>1019.819954</ele>
        <time>2022-07-24T01:57:46.764Z</time>
      </trkpt>
      <trkpt lat="45.07686" lon="5.44096">
        <ele>1020.271634</ele>
        <time>2022-07-24T01:57:55.595Z</time>
      </trkpt>
      <trkpt lat="45.07701" lon="5.44091">
        <ele>1020.621346</ele>
        <time>2022-07-24T01:58:01.387Z</time>
      </trkpt>
      <trkpt lat="45.07751" lon="5.44063">
        <ele>1021.869912</ele>
        <time>2022-07-24T01:58:25.205Z</time>
      </trkpt>
      <trkpt lat="45.0778" lon="5.44088">
        <ele>1022.641944</ele>
        <time>2022-07-24T01:58:39.509Z</time>
      </trkpt>
      <trkpt lat="45.07802" lon="5.44122">
        <ele>1023.301058</ele>
        <time>2022-07-24T01:58:53.613Z</time>
      </trkpt>
      <trkpt lat="45.07809" lon="5.44165">
        <ele>1023.799417</ele>
        <time>2022-07-24T01:59:08.084Z</time>
      </trkpt>
      <trkpt lat="45.07828" lon="5.44214">
        <ele>1024.412638</ele>
        <time>2022-07-24T01:59:25.534Z</time>
      </trkpt>
      <trkpt lat="45.07875" lon="5.44245">
        <ele>1025.228483</ele>
        <time>2022-07-24T01:59:44.670Z</time>
      </trkpt>
      <trkpt lat="45.07908" lon="5.44243">
        <ele>1025.741744</ele>
        <time>2022-07-24T01:59:55.178Z</time>
      </trkpt>
      <trkpt lat="45.07965" lon="5.44208">
        <ele>1026.584684</ele>
        <time>2022-07-24T02:00:16.301Z</time>
      </trkpt>
      <trkpt lat="45.07985" lon="5.44216">
        <ele>1026.849292</ele>
        <time>2022-07-24T02:00:27.209Z</time>
      </trkpt>
      <trkpt lat="45.07992" lon="5.44219">
        <ele>1026.948149</ele>
        <time>2022-07-24T02:00:28.953Z</time>
      </trkpt>
      <trkpt lat="45.08008" lon="5.44268">
        <ele>1027.438051</ele>
        <time>2022-07-24T02:00:43.218Z</time>
      </trkpt>
      <trkpt lat="45.08051" lon="5.4434">
        <ele>1028.360906</ele>
        <time>2022-07-24T02:01:11.567Z</time>
      </trkpt>
      <trkpt lat="45.08102" lon="5.44361">
        <ele>1030.262008</ele>
        <time>2022-07-24T02:01:34.385Z</time>
      </trkpt>
      <trkpt lat="45.08132" lon="5.44405">
        <ele>1031.80267</ele>
        <time>2022-07-24T02:01:56.944Z</time>
      </trkpt>
      <trkpt lat="45.08177" lon="5.44417">
        <ele>1033.473347</ele>
        <time>2022-07-24T02:02:23.393Z</time>
      </trkpt>
      <trkpt lat="45.08217" lon="5.44416">
        <ele>1034.781733</ele>
        <time>2022-07-24T02:02:44.553Z</time>
      </trkpt>
      <trkpt lat="45.08282" lon="5.44454">
        <ele>1035.409299</ele>
        <time>2022-07-24T02:03:16.976Z</time>
      </trkpt>
      <trkpt lat="45.08308" lon="5.4443">
        <ele>1035.688725</ele>
        <time>2022-07-24T02:03:29.405Z</time>
      </trkpt>
      <trkpt lat="45.08332" lon="5.44425">
        <ele>1035.901236</ele>
        <time>2022-07-24T02:03:36.796Z</time>
      </trkpt>
      <trkpt lat="45.08374" lon="5.44453">
        <ele>1036.318565</ele>
        <time>2022-07-24T02:03:49.714Z</time>
      </trkpt>
      <trkpt lat="45.08392" lon="5.44507">
        <ele>1034.448066</ele>
        <time>2022-07-24T02:04:00.559Z</time>
      </trkpt>
      <trkpt lat="45.08397" lon="5.44544">
        <ele>1033.117846</ele>
        <time>2022-07-24T02:04:07.475Z</time>
      </trkpt>
      <trkpt lat="45.08416" lon="5.44573">
        <ele>1031.738569</ele>
        <time>2022-07-24T02:04:14.210Z</time>
      </trkpt>
      <trkpt lat="45.08441" lon="5.44596">
        <ele>1030.234215</ele>
        <time>2022-07-24T02:04:21.384Z</time>
      </trkpt>
      <trkpt lat="45.08466" lon="5.44603">
        <ele>1028.983873</ele>
        <time>2022-07-24T02:04:27.138Z</time>
      </trkpt>
      <trkpt lat="45.08491" lon="5.44602">
        <ele>1027.755204</ele>
        <time>2022-07-24T02:04:32.981Z</time>
      </trkpt>
      <trkpt lat="45.08534" lon="5.44564">
        <ele>1023.95343</ele>
        <time>2022-07-24T02:04:44.250Z</time>
      </trkpt>
      <trkpt lat="45.08556" lon="5.44554">
        <ele>1022.174089</ele>
        <time>2022-07-24T02:04:49.289Z</time>
      </trkpt>
      <trkpt lat="45.0857" lon="5.44578">
        <ele>1020.478599</ele>
        <time>2022-07-24T02:04:54.068Z</time>
      </trkpt>
      <trkpt lat="45.08591" lon="5.44595">
        <ele>1018.574634</ele>
        <time>2022-07-24T02:04:59.290Z</time>
      </trkpt>
      <trkpt lat="45.08619" lon="5.4465">
        <ele>1014.770433</ele>
        <time>2022-07-24T02:05:10.317Z</time>
      </trkpt>
      <trkpt lat="45.0863" lon="5.44682">
        <ele>1012.916009</ele>
        <time>2022-07-24T02:05:15.760Z</time>
      </trkpt>
      <trkpt lat="45.08646" lon="5.44691">
        <ele>1011.749149</ele>
        <time>2022-07-24T02:05:19.850Z</time>
      </trkpt>
      <trkpt lat="45.08656" lon="5.44711">
        <ele>1010.649324</ele>
        <time>2022-07-24T02:05:23.584Z</time>
      </trkpt>
      <trkpt lat="45.08675" lon="5.44735">
        <ele>1009.008806</ele>
        <time>2022-07-24T02:05:29.198Z</time>
      </trkpt>
      <trkpt lat="45.08682" lon="5.44797">
        <ele>1006.116865</ele>
        <time>2022-07-24T02:05:39.140Z</time>
      </trkpt>
      <trkpt lat="45.08689" lon="5.44813">
        <ele>1005.249284</ele>
        <time>2022-07-24T02:05:42.238Z</time>
      </trkpt>
      <trkpt lat="45.08698" lon="5.44824">
        <ele>1004.485477</ele>
        <time>2022-07-24T02:05:44.970Z</time>
      </trkpt>
      <trkpt lat="45.08724" lon="5.448">
        <ele>1002.46879</ele>
        <time>2022-07-24T02:05:52.426Z</time>
      </trkpt>
      <trkpt lat="45.08731" lon="5.44813">
        <ele>1001.664988</ele>
        <time>2022-07-24T02:05:55.645Z</time>
      </trkpt>
      <trkpt lat="45.08732" lon="5.44881">
        <ele>1000.661485</ele>
        <time>2022-07-24T02:06:08.049Z</time>
      </trkpt>
      <trkpt lat="45.08722" lon="5.44952">
        <ele>999.642642</ele>
        <time>2022-07-24T02:06:22.070Z</time>
      </trkpt>
      <trkpt lat="45.08725" lon="5.44974">
        <ele>999.32507</ele>
        <time>2022-07-24T02:06:26.489Z</time>
      </trkpt>
      <trkpt lat="45.0873" lon="5.44992">
        <ele>999.047086</ele>
        <time>2022-07-24T02:06:30.266Z</time>
      </trkpt>
      <trkpt lat="45.08742" lon="5.45007">
        <ele>998.723913</ele>
        <time>2022-07-24T02:06:35.006Z</time>
      </trkpt>
      <trkpt lat="45.08756" lon="5.45017">
        <ele>998.409444</ele>
        <time>2022-07-24T02:06:39.197Z</time>
      </trkpt>
      <trkpt lat="45.08805" lon="5.45038">
        <ele>998.68093</ele>
        <time>2022-07-24T02:06:54.867Z</time>
      </trkpt>
      <trkpt lat="45.08819" lon="5.45049">
        <ele>999.020665</ele>
        <time>2022-07-24T02:07:01.242Z</time>
      </trkpt>
      <trkpt lat="45.08829" lon="5.45062">
        <ele>999.324585</ele>
        <time>2022-07-24T02:07:07.540Z</time>
      </trkpt>
      <trkpt lat="45.08853" lon="5.45073">
        <ele>999.900164</ele>
        <time>2022-07-24T02:07:19.480Z</time>
      </trkpt>
      <trkpt lat="45.08869" lon="5.45094">
        <ele>1000.382627</ele>
        <time>2022-07-24T02:07:29.442Z</time>
      </trkpt>
      <trkpt lat="45.08883" lon="5.45099">
        <ele>1000.719217</ele>
        <time>2022-07-24T02:07:36.289Z</time>
      </trkpt>
      <trkpt lat="45.08892" lon="5.45113">
        <ele>1001.013318</ele>
        <time>2022-07-24T02:07:42.248Z</time>
      </trkpt>
      <trkpt lat="45.08904" lon="5.45124">
        <ele>1001.329933</ele>
        <time>2022-07-24T02:07:48.410Z</time>
      </trkpt>
      <trkpt lat="45.08934" lon="5.45136">
        <ele>1002.036262</ele>
        <time>2022-07-24T02:08:03.081Z</time>
      </trkpt>
      <trkpt lat="45.0894" lon="5.45136">
        <ele>1002.442724</ele>
        <time>2022-07-24T02:08:06.555Z</time>
      </trkpt>
      <trkpt lat="45.08969" lon="5.45135">
        <ele>1004.12317</ele>
        <time>2022-07-24T02:08:22.522Z</time>
      </trkpt>
      <trkpt lat="45.09001" lon="5.45128">
        <ele>1006.056608</ele>
        <time>2022-07-24T02:08:41.799Z</time>
      </trkpt>
      <trkpt lat="45.0902" lon="5.45128">
        <ele>1007.228596</ele>
        <time>2022-07-24T02:08:53.865Z</time>
      </trkpt>
      <trkpt lat="45.09033" lon="5.45131">
        <ele>1008.012109</ele>
        <time>2022-07-24T02:09:02.580Z</time>
      </trkpt>
      <trkpt lat="45.09057" lon="5.45121">
        <ele>1009.517721</ele>
        <time>2022-07-24T02:09:19.102Z</time>
      </trkpt>
      <trkpt lat="45.0908" lon="5.45118">
        <ele>1010.869319</ele>
        <time>2022-07-24T02:09:34.671Z</time>
      </trkpt>
      <trkpt lat="45.09096" lon="5.45107">
        <ele>1011.971973</ele>
        <time>2022-07-24T02:09:48.632Z</time>
      </trkpt>
      <trkpt lat="45.09114" lon="5.45105">
        <ele>1013.149391</ele>
        <time>2022-07-24T02:10:00.689Z</time>
      </trkpt>
      <trkpt lat="45.09153" lon="5.45138">
        <ele>1016.848276</ele>
        <time>2022-07-24T02:10:29.936Z</time>
      </trkpt>
      <trkpt lat="45.09168" lon="5.45156">
        <ele>1018.443974</ele>
        <time>2022-07-24T02:10:42.640Z</time>
      </trkpt>
      <trkpt lat="45.09184" lon="5.45164">
        <ele>1019.820298</ele>
        <time>2022-07-24T02:10:53.481Z</time>
      </trkpt>
      <trkpt lat="45.09194" lon="5.4516">
        <ele>1020.616204</ele>
        <time>2022-07-24T02:11:00.159Z</time>
      </trkpt>
      <trkpt lat="45.09216" lon="5.45142">
        <ele>1022.662947</ele>
        <time>2022-07-24T02:11:17.320Z</time>
      </trkpt>
      <trkpt lat="45.0923" lon="5.45138">
        <ele>1023.871941</ele>
        <time>2022-07-24T02:11:30.127Z</time>
      </trkpt>
      <trkpt lat="45.09279" lon="5.45106">
        <ele>1028.296538</ele>
        <time>2022-07-24T02:12:14.668Z</time>
      </trkpt>
      <trkpt lat="45.09286" lon="5.45105">
        <ele>1028.923756</ele>
        <time>2022-07-24T02:12:22.238Z</time>
      </trkpt>
      <trkpt lat="45.09299" lon="5.4511">
        <ele>1030.065412</ele>
        <time>2022-07-24T02:12:34.001Z</time>
      </trkpt>
      <trkpt lat="45.09311" lon="5.45126">
        <ele>1031.569732</ele>
        <time>2022-07-24T02:12:46.505Z</time>
      </trkpt>
      <trkpt lat="45.09331" lon="5.45141">
        <ele>1033.536317</ele>
        <time>2022-07-24T02:13:05.845Z</time>
      </trkpt>
      <trkpt lat="45.09337" lon="5.4514">
        <ele>1034.009446</ele>
        <time>2022-07-24T02:13:08.886Z</time>
      </trkpt>
      <trkpt lat="45.09342" lon="5.45136">
        <ele>1034.5204</ele>
        <time>2022-07-24T02:13:12.379Z</time>
      </trkpt>
      <trkpt lat="45.09347" lon="5.45119">
        <ele>1035.667976</ele>
        <time>2022-07-24T02:13:24.541Z</time>
      </trkpt>
      <trkpt lat="45.09348" lon="5.45117">
        <ele>1035.826352</ele>
        <time>2022-07-24T02:13:25.747Z</time>
      </trkpt>
      <trkpt lat="45.09352" lon="5.451">
        <ele>1036.930162</ele>
        <time>2022-07-24T02:13:33.582Z</time>
      </trkpt>
      <trkpt lat="45.09357" lon="5.45053">
        <ele>1039.846452</ele>
        <time>2022-07-24T02:13:57.326Z</time>
      </trkpt>
      <trkpt lat="45.09398" lon="5.45014">
        <ele>1044.027265</ele>
        <time>2022-07-24T02:14:29.698Z</time>
      </trkpt>
      <trkpt lat="45.09415" lon="5.45009">
        <ele>1045.274366</ele>
        <time>2022-07-24T02:14:42.380Z</time>
      </trkpt>
      <trkpt lat="45.09423" lon="5.4501">
        <ele>1045.869405</ele>
        <time>2022-07-24T02:14:46.542Z</time>
      </trkpt>
      <trkpt lat="45.09431" lon="5.45015">
        <ele>1046.463311</ele>
        <time>2022-07-24T02:14:50.577Z</time>
      </trkpt>
      <trkpt lat="45.09446" lon="5.45042">
        <ele>1048.270995</ele>
        <time>2022-07-24T02:15:16.507Z</time>
      </trkpt>
      <trkpt lat="45.09458" lon="5.45057">
        <ele>1049.412186</ele>
        <time>2022-07-24T02:15:28.010Z</time>
      </trkpt>
      <trkpt lat="45.09473" lon="5.45071">
        <ele>1050.717179</ele>
        <time>2022-07-24T02:15:41.587Z</time>
      </trkpt>
      <trkpt lat="45.09495" lon="5.45104">
        <ele>1053.061092</ele>
        <time>2022-07-24T02:15:59.775Z</time>
      </trkpt>
      <trkpt lat="45.0951" lon="5.45132">
        <ele>1054.81323</ele>
        <time>2022-07-24T02:16:14.012Z</time>
      </trkpt>
      <trkpt lat="45.09532" lon="5.45161">
        <ele>1057.030028</ele>
        <time>2022-07-24T02:16:26.040Z</time>
      </trkpt>
      <trkpt lat="45.09538" lon="5.45158">
        <ele>1057.476731</ele>
        <time>2022-07-24T02:16:35.341Z</time>
      </trkpt>
      <trkpt lat="45.09604" lon="5.45185">
        <ele>1062.32701</ele>
        <time>2022-07-24T02:17:17.478Z</time>
      </trkpt>
      <trkpt lat="45.09614" lon="5.45182">
        <ele>1063.101583</ele>
        <time>2022-07-24T02:17:28.032Z</time>
      </trkpt>
      <trkpt lat="45.09637" lon="5.45184">
        <ele>1064.697875</ele>
        <time>2022-07-24T02:17:39.599Z</time>
      </trkpt>
      <trkpt lat="45.09649" lon="5.45196">
        <ele>1065.754286</ele>
        <time>2022-07-24T02:17:55.193Z</time>
      </trkpt>
      <trkpt lat="45.09662" lon="5.45199">
        <ele>1066.670423</ele>
        <time>2022-07-24T02:18:02.103Z</time>
      </trkpt>
      <trkpt lat="45.09683" lon="5.45199">
        <ele>1068.220377</ele>
        <time>2022-07-24T02:18:21.927Z</time>
      </trkpt>
      <trkpt lat="45.09694" lon="5.45194">
        <ele>1069.034914</ele>
        <time>2022-07-24T02:18:28.566Z</time>
      </trkpt>
      <trkpt lat="45.09722" lon="5.45189">
        <ele>1071.036615</ele>
        <time>2022-07-24T02:18:46.928Z</time>
      </trkpt>
      <trkpt lat="45.09734" lon="5.45191">
        <ele>1071.829573</ele>
        <time>2022-07-24T02:18:53.828Z</time>
      </trkpt>
      <trkpt lat="45.09734" lon="5.45191">
        <ele>1071.829573</ele>
        <time>2022-07-24T02:18:53.948Z</time>
      </trkpt>
      <trkpt lat="45.09756" lon="5.45212">
        <ele>1073.719861</ele>
        <time>2022-07-24T02:19:08.906Z</time>
      </trkpt>
      <trkpt lat="45.09768" lon="5.4524">
        <ele>1075.317462</ele>
        <time>2022-07-24T02:19:24.718Z</time>
      </trkpt>
      <trkpt lat="45.0978" lon="5.45258">
        <ele>1076.547743</ele>
        <time>2022-07-24T02:19:35.696Z</time>
      </trkpt>
      <trkpt lat="45.09827" lon="5.45257">
        <ele>1079.83958</ele>
        <time>2022-07-24T02:20:08.903Z</time>
      </trkpt>
      <trkpt lat="45.09849" lon="5.45274">
        <ele>1081.584445</ele>
        <time>2022-07-24T02:20:24.133Z</time>
      </trkpt>
      <trkpt lat="45.09852" lon="5.45291">
        <ele>1082.671616</ele>
        <time>2022-07-24T02:20:34.251Z</time>
      </trkpt>
      <trkpt lat="45.09864" lon="5.45314">
        <ele>1084.337279</ele>
        <time>2022-07-24T02:20:46.125Z</time>
      </trkpt>
      <trkpt lat="45.09869" lon="5.45318">
        <ele>1084.801509</ele>
        <time>2022-07-24T02:20:48.639Z</time>
      </trkpt>
      <trkpt lat="45.09875" lon="5.45309">
        <ele>1085.584126</ele>
        <time>2022-07-24T02:20:55.960Z</time>
      </trkpt>
      <trkpt lat="45.09884" lon="5.45303">
        <ele>1086.395308</ele>
        <time>2022-07-24T02:21:01.569Z</time>
      </trkpt>
      <trkpt lat="45.09894" lon="5.45333">
        <ele>1088.409501</ele>
        <time>2022-07-24T02:21:17.764Z</time>
      </trkpt>
      <trkpt lat="45.09907" lon="5.45347">
        <ele>1089.741483</ele>
        <time>2022-07-24T02:21:28.906Z</time>
      </trkpt>
      <trkpt lat="45.09918" lon="5.45353">
        <ele>1090.742382</ele>
        <time>2022-07-24T02:21:36.900Z</time>
      </trkpt>
      <trkpt lat="45.09938" lon="5.4536">
        <ele>1092.488708</ele>
        <time>2022-07-24T02:21:52.383Z</time>
      </trkpt>
      <trkpt lat="45.10005" lon="5.45353">
        <ele>1098.265142</ele>
        <time>2022-07-24T02:22:41.175Z</time>
      </trkpt>
      <trkpt lat="45.10055" lon="5.45355">
        <ele>1102.601428</ele>
        <time>2022-07-24T02:23:15.607Z</time>
      </trkpt>
      <trkpt lat="45.1009" lon="5.45336">
        <ele>1105.851635</ele>
        <time>2022-07-24T02:23:40.888Z</time>
      </trkpt>
      <trkpt lat="45.10106" lon="5.4533">
        <ele>1107.225645</ele>
        <time>2022-07-24T02:23:51.263Z</time>
      </trkpt>
      <trkpt lat="45.10152" lon="5.45323">
        <ele>1111.263937</ele>
        <time>2022-07-24T02:24:23.024Z</time>
      </trkpt>
      <trkpt lat="45.10173" lon="5.4533">
        <ele>1113.119899</ele>
        <time>2022-07-24T02:24:38.232Z</time>
      </trkpt>
      <trkpt lat="45.10204" lon="5.45381">
        <ele>1117.105341</ele>
        <time>2022-07-24T02:25:09.993Z</time>
      </trkpt>
      <trkpt lat="45.10209" lon="5.45386">
        <ele>1117.685161</ele>
        <time>2022-07-24T02:25:14.709Z</time>
      </trkpt>
      <trkpt lat="45.10234" lon="5.4539">
        <ele>1119.791636</ele>
        <time>2022-07-24T02:25:31.618Z</time>
      </trkpt>
      <trkpt lat="45.10268" lon="5.45407">
        <ele>1122.82877</ele>
        <time>2022-07-24T02:25:56.021Z</time>
      </trkpt>
      <trkpt lat="45.10274" lon="5.45407">
        <ele>1123.387195</ele>
        <time>2022-07-24T02:26:00.443Z</time>
      </trkpt>
      <trkpt lat="45.10302" lon="5.45396">
        <ele>1125.800487</ele>
        <time>2022-07-24T02:26:19.628Z</time>
      </trkpt>
      <trkpt lat="45.10315" lon="5.45405">
        <ele>1127.064764</ele>
        <time>2022-07-24T02:26:29.708Z</time>
      </trkpt>
      <trkpt lat="45.10331" lon="5.45421">
        <ele>1128.162169</ele>
        <time>2022-07-24T02:26:43.940Z</time>
      </trkpt>
      <trkpt lat="45.1034" lon="5.45427">
        <ele>1128.52575</ele>
        <time>2022-07-24T02:26:53.082Z</time>
      </trkpt>
      <trkpt lat="45.10349" lon="5.4543">
        <ele>1128.894734</ele>
        <time>2022-07-24T02:26:58.100Z</time>
      </trkpt>
      <trkpt lat="45.10363" lon="5.45429">
        <ele>1129.427458</ele>
        <time>2022-07-24T02:27:04.719Z</time>
      </trkpt>
      <trkpt lat="45.10389" lon="5.45413">
        <ele>1130.492256</ele>
        <time>2022-07-24T02:27:20.859Z</time>
      </trkpt>
      <trkpt lat="45.10411" lon="5.45405">
        <ele>1131.358807</ele>
        <time>2022-07-24T02:27:33.426Z</time>
      </trkpt>
      <trkpt lat="45.10436" lon="5.45408">
        <ele>1132.326156</ele>
        <time>2022-07-24T02:27:42.300Z</time>
      </trkpt>
      <trkpt lat="45.10456" lon="5.45416">
        <ele>1133.146108</ele>
        <time>2022-07-24T02:27:49.433Z</time>
      </trkpt>
      <trkpt lat="45.10467" lon="5.45412">
        <ele>1133.547614</ele>
        <time>2022-07-24T02:27:51.618Z</time>
      </trkpt>
      <trkpt lat="45.10475" lon="5.4542">
        <ele>1133.941496</ele>
        <time>2022-07-24T02:27:58.221Z</time>
      </trkpt>
      <trkpt lat="45.10483" lon="5.45432">
        <ele>1134.388319</ele>
        <time>2022-07-24T02:28:01.114Z</time>
      </trkpt>
      <trkpt lat="45.10511" lon="5.4545">
        <ele>1133.372965</ele>
        <time>2022-07-24T02:28:09.297Z</time>
      </trkpt>
      <trkpt lat="45.10538" lon="5.45461">
        <ele>1131.997836</ele>
        <time>2022-07-24T02:28:16.655Z</time>
      </trkpt>
      <trkpt lat="45.10553" lon="5.45475">
        <ele>1131.147586</ele>
        <time>2022-07-24T02:28:20.673Z</time>
      </trkpt>
      <trkpt lat="45.10589" lon="5.45521">
        <ele>1128.823345</ele>
        <time>2022-07-24T02:28:32.330Z</time>
      </trkpt>
      <trkpt lat="45.10619" lon="5.45551">
        <ele>1127.082081</ele>
        <time>2022-07-24T02:28:40.729Z</time>
      </trkpt>
      <trkpt lat="45.10669" lon="5.45579">
        <ele>1123.88265</ele>
        <time>2022-07-24T02:28:53.056Z</time>
      </trkpt>
      <trkpt lat="45.10706" lon="5.45621">
        <ele>1120.595975</ele>
        <time>2022-07-24T02:29:03.897Z</time>
      </trkpt>
      <trkpt lat="45.10773" lon="5.45626">
        <ele>1115.979137</ele>
        <time>2022-07-24T02:29:19.522Z</time>
      </trkpt>
      <trkpt lat="45.10797" lon="5.45625">
        <ele>1114.372989</ele>
        <time>2022-07-24T02:29:24.817Z</time>
      </trkpt>
      <trkpt lat="45.108" lon="5.45643">
        <ele>1113.468699</ele>
        <time>2022-07-24T02:29:27.557Z</time>
      </trkpt>
      <trkpt lat="45.10804" lon="5.45656">
        <ele>1112.529037</ele>
        <time>2022-07-24T02:29:29.713Z</time>
      </trkpt>
      <trkpt lat="45.1081" lon="5.45665">
        <ele>1111.709599</ele>
        <time>2022-07-24T02:29:31.805Z</time>
      </trkpt>
      <trkpt lat="45.10818" lon="5.4567">
        <ele>1110.899053</ele>
        <time>2022-07-24T02:29:33.790Z</time>
      </trkpt>
      <trkpt lat="45.10824" lon="5.45671">
        <ele>1110.303064</ele>
        <time>2022-07-24T02:29:35.203Z</time>
      </trkpt>
      <trkpt lat="45.10843" lon="5.45663">
        <ele>1108.468004</ele>
        <time>2022-07-24T02:29:39.549Z</time>
      </trkpt>
      <trkpt lat="45.10865" lon="5.45665">
        <ele>1106.433981</ele>
        <time>2022-07-24T02:29:44.355Z</time>
      </trkpt>
      <trkpt lat="45.10902" lon="5.45713">
        <ele>1101.825478</ele>
        <time>2022-07-24T02:29:55.009Z</time>
      </trkpt>
      <trkpt lat="45.10929" lon="5.45735">
        <ele>1098.930865</ele>
        <time>2022-07-24T02:30:01.614Z</time>
      </trkpt>
      <trkpt lat="45.10949" lon="5.45759">
        <ele>1096.524661</ele>
        <time>2022-07-24T02:30:07.585Z</time>
      </trkpt>
      <trkpt lat="45.11" lon="5.45794">
        <ele>1091.727607</ele>
        <time>2022-07-24T02:30:19.918Z</time>
      </trkpt>
      <trkpt lat="45.11023" lon="5.45811">
        <ele>1089.540181</ele>
        <time>2022-07-24T02:30:25.521Z</time>
      </trkpt>
      <trkpt lat="45.11076" lon="5.45858">
        <ele>1084.250335</ele>
        <time>2022-07-24T02:30:39.765Z</time>
      </trkpt>
      <trkpt lat="45.11221" lon="5.45973">
        <ele>1067.231788</ele>
        <time>2022-07-24T02:31:16.153Z</time>
      </trkpt>
      <trkpt lat="45.11214" lon="5.45976">
        <ele>1066.465141</ele>
        <time>2022-07-24T02:31:16.954Z</time>
      </trkpt>
      <trkpt lat="45.11103" lon="5.46">
        <ele>1050.530354</ele>
        <time>2022-07-24T02:31:29.705Z</time>
      </trkpt>
      <trkpt lat="45.11094" lon="5.45998">
        <ele>1049.205147</ele>
        <time>2022-07-24T02:31:30.691Z</time>
      </trkpt>
      <trkpt lat="45.11057" lon="5.45979">
        <ele>1042.885887</ele>
        <time>2022-07-24T02:31:35.188Z</time>
      </trkpt>
      <trkpt lat="45.11049" lon="5.46017">
        <ele>1038.475159</ele>
        <time>2022-07-24T02:31:40.710Z</time>
      </trkpt>
      <trkpt lat="45.11044" lon="5.46072">
        <ele>1032.370846</ele>
        <time>2022-07-24T02:31:48.681Z</time>
      </trkpt>
      <trkpt lat="45.11036" lon="5.46122">
        <ele>1027.121502</ele>
        <time>2022-07-24T02:31:55.792Z</time>
      </trkpt>
      <trkpt lat="45.11036" lon="5.4617">
        <ele>1022.17199</ele>
        <time>2022-07-24T02:32:02.488Z</time>
      </trkpt>
      <trkpt lat="45.11059" lon="5.46221">
        <ele>1015.871687</ele>
        <time>2022-07-24T02:32:11.058Z</time>
      </trkpt>
      <trkpt lat="45.11077" lon="5.46252">
        <ele>1011.700411</ele>
        <time>2022-07-24T02:32:17.107Z</time>
      </trkpt>
      <trkpt lat="45.11097" lon="5.46277">
        <ele>1007.763403</ele>
        <time>2022-07-24T02:32:22.761Z</time>
      </trkpt>
      <trkpt lat="45.11109" lon="5.463">
        <ele>1006.119669</ele>
        <time>2022-07-24T02:32:26.911Z</time>
      </trkpt>
      <trkpt lat="45.11154" lon="5.46347">
        <ele>1001.548706</ele>
        <time>2022-07-24T02:32:39.046Z</time>
      </trkpt>
      <trkpt lat="45.11186" lon="5.46388">
        <ele>998.037292</ele>
        <time>2022-07-24T02:32:48.622Z</time>
      </trkpt>
      <trkpt lat="45.11192" lon="5.46407">
        <ele>996.893324</ele>
        <time>2022-07-24T02:32:51.821Z</time>
      </trkpt>
      <trkpt lat="45.11172" lon="5.46424">
        <ele>994.987688</ele>
        <time>2022-07-24T02:32:57.215Z</time>
      </trkpt>
      <trkpt lat="45.11091" lon="5.46448">
        <ele>991.682341</ele>
        <time>2022-07-24T02:33:17.654Z</time>
      </trkpt>
      <trkpt lat="45.11026" lon="5.46436">
        <ele>990.120662</ele>
        <time>2022-07-24T02:33:35.812Z</time>
      </trkpt>
      <trkpt lat="45.10947" lon="5.46407">
        <ele>988.034289</ele>
        <time>2022-07-24T02:34:00.951Z</time>
      </trkpt>
      <trkpt lat="45.10896" lon="5.46408">
        <ele>986.481787</ele>
        <time>2022-07-24T02:34:15.850Z</time>
      </trkpt>
      <trkpt lat="45.10886" lon="5.46418">
        <ele>986.111364</ele>
        <time>2022-07-24T02:34:19.250Z</time>
      </trkpt>
      <trkpt lat="45.10884" lon="5.46429">
        <ele>985.867179</ele>
        <time>2022-07-24T02:34:21.436Z</time>
      </trkpt>
      <trkpt lat="45.10791" lon="5.4643">
        <ele>982.31031</ele>
        <time>2022-07-24T02:34:44.140Z</time>
      </trkpt>
      <trkpt lat="45.10751" lon="5.46422">
        <ele>978.353174</ele>
        <time>2022-07-24T02:34:53.224Z</time>
      </trkpt>
      <trkpt lat="45.10693" lon="5.46396">
        <ele>972.392136</ele>
        <time>2022-07-24T02:35:06.324Z</time>
      </trkpt>
      <trkpt lat="45.10693" lon="5.46396">
        <ele>972.392136</ele>
        <time>2022-07-24T02:35:06.395Z</time>
      </trkpt>
      <trkpt lat="45.10648" lon="5.46405">
        <ele>967.963276</ele>
        <time>2022-07-24T02:35:15.818Z</time>
      </trkpt>
      <trkpt lat="45.10609" lon="5.46398">
        <ele>963.747355</ele>
        <time>2022-07-24T02:35:23.863Z</time>
      </trkpt>
      <trkpt lat="45.10547" lon="5.46395">
        <ele>956.1368</ele>
        <time>2022-07-24T02:35:36.663Z</time>
      </trkpt>
      <trkpt lat="45.10498" lon="5.46385">
        <ele>950.11562</ele>
        <time>2022-07-24T02:35:47.042Z</time>
      </trkpt>
      <trkpt lat="45.10419" lon="5.46392">
        <ele>941.358556</ele>
        <time>2022-07-24T02:36:03.794Z</time>
      </trkpt>
      <trkpt lat="45.10346" lon="5.46401">
        <ele>934.827534</ele>
        <time>2022-07-24T02:36:19.498Z</time>
      </trkpt>
      <trkpt lat="45.10318" lon="5.46415">
        <ele>932.150293</ele>
        <time>2022-07-24T02:36:26.190Z</time>
      </trkpt>
      <trkpt lat="45.10305" lon="5.46418">
        <ele>930.982089</ele>
        <time>2022-07-24T02:36:29.070Z</time>
      </trkpt>
      <trkpt lat="45.10286" lon="5.46452">
        <ele>928.233915</ele>
        <time>2022-07-24T02:36:36.139Z</time>
      </trkpt>
      <trkpt lat="45.10282" lon="5.46463">
        <ele>927.500843</ele>
        <time>2022-07-24T02:36:38.105Z</time>
      </trkpt>
      <trkpt lat="45.10248" lon="5.46445">
        <ele>925.149528</ele>
        <time>2022-07-24T02:36:42.789Z</time>
      </trkpt>
      <trkpt lat="45.10276" lon="5.46491">
        <ele>922.350372</ele>
        <time>2022-07-24T02:36:52.933Z</time>
      </trkpt>
      <trkpt lat="45.1033" lon="5.46562">
        <ele>917.538032</ele>
        <time>2022-07-24T02:37:09.884Z</time>
      </trkpt>
      <trkpt lat="45.10359" lon="5.46594">
        <ele>914.696189</ele>
        <time>2022-07-24T02:37:18.431Z</time>
      </trkpt>
      <trkpt lat="45.10381" lon="5.46607">
        <ele>912.384088</ele>
        <time>2022-07-24T02:37:23.807Z</time>
      </trkpt>
      <trkpt lat="45.10407" lon="5.46612">
        <ele>909.770928</ele>
        <time>2022-07-24T02:37:29.732Z</time>
      </trkpt>
      <trkpt lat="45.105" lon="5.46669">
        <ele>899.799324</ele>
        <time>2022-07-24T02:37:51.344Z</time>
      </trkpt>
      <trkpt lat="45.10588" lon="5.46736">
        <ele>887.20382</ele>
        <time>2022-07-24T02:38:11.585Z</time>
      </trkpt>
      <trkpt lat="45.10628" lon="5.46795">
        <ele>879.595803</ele>
        <time>2022-07-24T02:38:23.485Z</time>
      </trkpt>
      <trkpt lat="45.10651" lon="5.46815">
        <ele>875.951289</ele>
        <time>2022-07-24T02:38:29.288Z</time>
      </trkpt>
      <trkpt lat="45.1067" lon="5.46822">
        <ele>873.219264</ele>
        <time>2022-07-24T02:38:33.325Z</time>
      </trkpt>
      <trkpt lat="45.107" lon="5.46847">
        <ele>867.995411</ele>
        <time>2022-07-24T02:38:40.378Z</time>
      </trkpt>
      <trkpt lat="45.10699" lon="5.46856">
        <ele>867.072743</ele>
        <time>2022-07-24T02:38:41.594Z</time>
      </trkpt>
      <trkpt lat="45.10668" lon="5.46867">
        <ele>862.26252</ele>
        <time>2022-07-24T02:38:48.134Z</time>
      </trkpt>
      <trkpt lat="45.1066" lon="5.46876">
        <ele>860.703872</ele>
        <time>2022-07-24T02:38:50.211Z</time>
      </trkpt>
      <trkpt lat="45.10623" lon="5.46897">
        <ele>854.597827</ele>
        <time>2022-07-24T02:38:58.397Z</time>
      </trkpt>
      <trkpt lat="45.10617" lon="5.46909">
        <ele>853.071305</ele>
        <time>2022-07-24T02:39:00.382Z</time>
      </trkpt>
      <trkpt lat="45.10616" lon="5.46921">
        <ele>851.756664</ele>
        <time>2022-07-24T02:39:02.179Z</time>
      </trkpt>
      <trkpt lat="45.1062" lon="5.46936">
        <ele>850.03499</ele>
        <time>2022-07-24T02:39:04.383Z</time>
      </trkpt>
      <trkpt lat="45.10627" lon="5.4695">
        <ele>848.254093</ele>
        <time>2022-07-24T02:39:06.704Z</time>
      </trkpt>
      <trkpt lat="45.1065" lon="5.46981">
        <ele>842.779354</ele>
        <time>2022-07-24T02:39:13.031Z</time>
      </trkpt>
      <trkpt lat="45.10672" lon="5.47002">
        <ele>837.986153</ele>
        <time>2022-07-24T02:39:18.433Z</time>
      </trkpt>
      <trkpt lat="45.10697" lon="5.47019">
        <ele>833.075797</ele>
        <time>2022-07-24T02:39:23.887Z</time>
      </trkpt>
      <trkpt lat="45.10714" lon="5.47039">
        <ele>829.157338</ele>
        <time>2022-07-24T02:39:28.163Z</time>
      </trkpt>
      <trkpt lat="45.10729" lon="5.47063">
        <ele>825.110675</ele>
        <time>2022-07-24T02:39:32.673Z</time>
      </trkpt>
      <trkpt lat="45.10742" lon="5.47083">
        <ele>821.712614</ele>
        <time>2022-07-24T02:39:34.938Z</time>
      </trkpt>
      <trkpt lat="45.10767" lon="5.47114">
        <ele>815.91294</ele>
        <time>2022-07-24T02:39:38.846Z</time>
      </trkpt>
      <trkpt lat="45.10782" lon="5.47128">
        <ele>813.95993</ele>
        <time>2022-07-24T02:39:41.116Z</time>
      </trkpt>
      <trkpt lat="45.10772" lon="5.47133">
        <ele>812.964286</ele>
        <time>2022-07-24T02:39:42.407Z</time>
      </trkpt>
      <trkpt lat="45.10747" lon="5.4714">
        <ele>810.674528</ele>
        <time>2022-07-24T02:39:45.544Z</time>
      </trkpt>
      <trkpt lat="45.10674" lon="5.47136">
        <ele>804.053118</ele>
        <time>2022-07-24T02:39:55.143Z</time>
      </trkpt>
      <trkpt lat="45.10656" lon="5.47138">
        <ele>802.422615</ele>
        <time>2022-07-24T02:39:57.605Z</time>
      </trkpt>
      <trkpt lat="45.10638" lon="5.47158">
        <ele>800.358903</ele>
        <time>2022-07-24T02:40:00.868Z</time>
      </trkpt>
      <trkpt lat="45.10626" lon="5.47186">
        <ele>799.036652</ele>
        <time>2022-07-24T02:40:04.307Z</time>
      </trkpt>
      <trkpt lat="45.10605" lon="5.47208">
        <ele>798.892054</ele>
        <time>2022-07-24T02:40:11.610Z</time>
      </trkpt>
      <trkpt lat="45.10574" lon="5.47231">
        <ele>798.691387</ele>
        <time>2022-07-24T02:40:21.808Z</time>
      </trkpt>
      <trkpt lat="45.10516" lon="5.47248">
        <ele>798.356446</ele>
        <time>2022-07-24T02:40:39.385Z</time>
      </trkpt>
      <trkpt lat="45.10506" lon="5.47248">
        <ele>798.302768</ele>
        <time>2022-07-24T02:40:41.136Z</time>
      </trkpt>
      <trkpt lat="45.10468" lon="5.47271">
        <ele>798.128236</ele>
        <time>2022-07-24T02:40:53.212Z</time>
      </trkpt>
      <trkpt lat="45.10452" lon="5.47294">
        <ele>799.179848</ele>
        <time>2022-07-24T02:41:02.013Z</time>
      </trkpt>
      <trkpt lat="45.10428" lon="5.47316">
        <ele>800.583425</ele>
        <time>2022-07-24T02:41:13.955Z</time>
      </trkpt>
      <trkpt lat="45.10399" lon="5.47319">
        <ele>801.95444</ele>
        <time>2022-07-24T02:41:26.164Z</time>
      </trkpt>
      <trkpt lat="45.10382" lon="5.47317">
        <ele>802.785984</ele>
        <time>2022-07-24T02:41:35.750Z</time>
      </trkpt>
      <trkpt lat="45.10399" lon="5.47319">
        <ele>803.617527</ele>
        <time>2022-07-24T02:41:42.818Z</time>
      </trkpt>
      <trkpt lat="45.104" lon="5.47338">
        <ele>804.247231</ele>
        <time>2022-07-24T02:41:50.848Z</time>
      </trkpt>
      <trkpt lat="45.10425" lon="5.47426">
        <ele>807.788759</ele>
        <time>2022-07-24T02:42:19.138Z</time>
      </trkpt>
      <trkpt lat="45.10429" lon="5.47438">
        <ele>808.428106</ele>
        <time>2022-07-24T02:42:24.594Z</time>
      </trkpt>
      <trkpt lat="45.10437" lon="5.47442">
        <ele>809.00643</ele>
        <time>2022-07-24T02:42:29.803Z</time>
      </trkpt>
      <trkpt lat="45.10455" lon="5.47442">
        <ele>810.221962</ele>
        <time>2022-07-24T02:42:38.536Z</time>
      </trkpt>
      <trkpt lat="45.1047" lon="5.47446">
        <ele>811.283587</ele>
        <time>2022-07-24T02:42:47.461Z</time>
      </trkpt>
      <trkpt lat="45.10504" lon="5.47448">
        <ele>813.619795</ele>
        <time>2022-07-24T02:43:06.420Z</time>
      </trkpt>
      <trkpt lat="45.10515" lon="5.47437">
        <ele>814.522318</ele>
        <time>2022-07-24T02:43:14.932Z</time>
      </trkpt>
      <trkpt lat="45.10519" lon="5.47429">
        <ele>814.990147</ele>
        <time>2022-07-24T02:43:16.236Z</time>
      </trkpt>
      <trkpt lat="45.10526" lon="5.47397">
        <ele>816.641679</ele>
        <time>2022-07-24T02:43:30.627Z</time>
      </trkpt>
      <trkpt lat="45.10531" lon="5.47388">
        <ele>817.178707</ele>
        <time>2022-07-24T02:43:35.376Z</time>
      </trkpt>
      <trkpt lat="45.10545" lon="5.47389">
        <ele>818.120486</ele>
        <time>2022-07-24T02:43:41.477Z</time>
      </trkpt>
      <trkpt lat="45.10549" lon="5.47391">
        <ele>818.426329</ele>
        <time>2022-07-24T02:43:43.731Z</time>
      </trkpt>
      <trkpt lat="45.10562" lon="5.47402">
        <ele>819.619022</ele>
        <time>2022-07-24T02:43:54.475Z</time>
      </trkpt>
      <trkpt lat="45.10603" lon="5.47426">
        <ele>823.833297</ele>
        <time>2022-07-24T02:44:18.307Z</time>
      </trkpt>
      <trkpt lat="45.10653" lon="5.47432">
        <ele>828.604414</ele>
        <time>2022-07-24T02:44:48.449Z</time>
      </trkpt>
      <trkpt lat="45.10678" lon="5.47439">
        <ele>830.939489</ele>
        <time>2022-07-24T02:45:08.337Z</time>
      </trkpt>
      <trkpt lat="45.10697" lon="5.47448">
        <ele>832.908121</ele>
        <time>2022-07-24T02:45:25.159Z</time>
      </trkpt>
      <trkpt lat="45.10715" lon="5.47464">
        <ele>834.89398</ele>
        <time>2022-07-24T02:45:41.010Z</time>
      </trkpt>
      <trkpt lat="45.10766" lon="5.47525">
        <ele>842.142399</ele>
        <time>2022-07-24T02:46:30.979Z</time>
      </trkpt>
      <trkpt lat="45.10784" lon="5.47553">
        <ele>845.222508</ele>
        <time>2022-07-24T02:46:52.521Z</time>
      </trkpt>
      <trkpt lat="45.10798" lon="5.47576">
        <ele>847.627778</ele>
        <time>2022-07-24T02:47:11.411Z</time>
      </trkpt>
      <trkpt lat="45.10817" lon="5.47625">
        <ele>852.100092</ele>
        <time>2022-07-24T02:47:42.570Z</time>
      </trkpt>
      <trkpt lat="45.10832" lon="5.47642">
        <ele>854.216987</ele>
        <time>2022-07-24T02:47:54.433Z</time>
      </trkpt>
      <trkpt lat="45.10908" lon="5.47684">
        <ele>861.579331</ele>
        <time>2022-07-24T02:48:48.789Z</time>
      </trkpt>
      <trkpt lat="45.10912" lon="5.47691">
        <ele>862.093478</ele>
        <time>2022-07-24T02:48:55.080Z</time>
      </trkpt>
      <trkpt lat="45.10909" lon="5.47734">
        <ele>864.6243</ele>
        <time>2022-07-24T02:49:13.502Z</time>
      </trkpt>
      <trkpt lat="45.1098" lon="5.47744">
        <ele>870.518218</ele>
        <time>2022-07-24T02:50:04.396Z</time>
      </trkpt>
      <trkpt lat="45.10987" lon="5.47735">
        <ele>871.31456</ele>
        <time>2022-07-24T02:50:12.530Z</time>
      </trkpt>
      <trkpt lat="45.11004" lon="5.47665">
        <ele>875.230674</ele>
        <time>2022-07-24T02:50:46.192Z</time>
      </trkpt>
      <trkpt lat="45.11016" lon="5.47652">
        <ele>876.343637</ele>
        <time>2022-07-24T02:50:55.662Z</time>
      </trkpt>
      <trkpt lat="45.11043" lon="5.47646">
        <ele>878.398284</ele>
        <time>2022-07-24T02:51:13.771Z</time>
      </trkpt>
      <trkpt lat="45.11071" lon="5.47672">
        <ele>880.938376</ele>
        <time>2022-07-24T02:51:36.535Z</time>
      </trkpt>
      <trkpt lat="45.11103" lon="5.4772">
        <ele>884.448375</ele>
        <time>2022-07-24T02:52:09.214Z</time>
      </trkpt>
      <trkpt lat="45.11134" lon="5.47743">
        <ele>887.564701</ele>
        <time>2022-07-24T02:52:37.000Z</time>
      </trkpt>
      <trkpt lat="45.11145" lon="5.4777">
        <ele>889.541514</ele>
        <time>2022-07-24T02:52:55.118Z</time>
      </trkpt>
      <trkpt lat="45.11164" lon="5.47779">
        <ele>891.398105</ele>
        <time>2022-07-24T02:53:09.911Z</time>
      </trkpt>
      <trkpt lat="45.11203" lon="5.47774">
        <ele>894.940654</ele>
        <time>2022-07-24T02:53:36.131Z</time>
      </trkpt>
      <trkpt lat="45.11249" lon="5.47789">
        <ele>899.281759</ele>
        <time>2022-07-24T02:54:10.761Z</time>
      </trkpt>
      <trkpt lat="45.11249" lon="5.47789">
        <ele>899.281759</ele>
        <time>2022-07-24T02:54:11.128Z</time>
      </trkpt>
      <trkpt lat="45.11276" lon="5.47836">
        <ele>904.482792</ele>
        <time>2022-07-24T02:54:48.962Z</time>
      </trkpt>
      <trkpt lat="45.11324" lon="5.47906">
        <ele>914.65982</ele>
        <time>2022-07-24T02:55:59.818Z</time>
      </trkpt>
      <trkpt lat="45.11445" lon="5.48045">
        <ele>938.218211</ele>
        <time>2022-07-24T02:59:02.260Z</time>
      </trkpt>
      <trkpt lat="45.11476" lon="5.48058">
        <ele>943.238603</ele>
        <time>2022-07-24T02:59:41.555Z</time>
      </trkpt>
      <trkpt lat="45.11489" lon="5.48062">
        <ele>945.246191</ele>
        <time>2022-07-24T02:59:57.652Z</time>
      </trkpt>
      <trkpt lat="45.11528" lon="5.48067">
        <ele>951.341759</ele>
        <time>2022-07-24T03:00:40.517Z</time>
      </trkpt>
      <trkpt lat="45.11579" lon="5.48084">
        <ele>957.605531</ele>
        <time>2022-07-24T03:01:27.164Z</time>
      </trkpt>
      <trkpt lat="45.11622" lon="5.48089">
        <ele>960.924448</ele>
        <time>2022-07-24T03:01:58.362Z</time>
      </trkpt>
      <trkpt lat="45.1166" lon="5.48108">
        <ele>964.001817</ele>
        <time>2022-07-24T03:02:23.914Z</time>
      </trkpt>
      <trkpt lat="45.11682" lon="5.48107">
        <ele>965.682891</ele>
        <time>2022-07-24T03:02:36.166Z</time>
      </trkpt>
      <trkpt lat="45.11741" lon="5.48089">
        <ele>969.932765</ele>
        <time>2022-07-24T03:03:14.309Z</time>
      </trkpt>
      <trkpt lat="45.11788" lon="5.48064">
        <ele>972.22259</ele>
        <time>2022-07-24T03:03:43.156Z</time>
      </trkpt>
      <trkpt lat="45.11815" lon="5.48036">
        <ele>973.757843</ele>
        <time>2022-07-24T03:04:00.856Z</time>
      </trkpt>
      <trkpt lat="45.11849" lon="5.4804">
        <ele>975.277749</ele>
        <time>2022-07-24T03:04:14.823Z</time>
      </trkpt>
      <trkpt lat="45.11861" lon="5.48048">
        <ele>975.910408</ele>
        <time>2022-07-24T03:04:21.071Z</time>
      </trkpt>
      <trkpt lat="45.11872" lon="5.48061">
        <ele>976.519001</ele>
        <time>2022-07-24T03:04:26.969Z</time>
      </trkpt>
      <trkpt lat="45.11884" lon="5.48091">
        <ele>977.65976</ele>
        <time>2022-07-24T03:04:36.322Z</time>
      </trkpt>
      <trkpt lat="45.1189" lon="5.48126">
        <ele>978.097997</ele>
        <time>2022-07-24T03:04:44.540Z</time>
      </trkpt>
      <trkpt lat="45.11894" lon="5.48142">
        <ele>978.301058</ele>
        <time>2022-07-24T03:04:48.606Z</time>
      </trkpt>
      <trkpt lat="45.11904" lon="5.48159">
        <ele>978.570041</ele>
        <time>2022-07-24T03:04:53.207Z</time>
      </trkpt>
      <trkpt lat="45.11915" lon="5.48172">
        <ele>978.81385</ele>
        <time>2022-07-24T03:04:57.583Z</time>
      </trkpt>
      <trkpt lat="45.11935" lon="5.48187">
        <ele>979.190718</ele>
        <time>2022-07-24T03:05:04.313Z</time>
      </trkpt>
      <trkpt lat="45.11943" lon="5.4819">
        <ele>979.347807</ele>
        <time>2022-07-24T03:05:06.387Z</time>
      </trkpt>
      <trkpt lat="45.11963" lon="5.48187">
        <ele>979.68532</ele>
        <time>2022-07-24T03:05:10.282Z</time>
      </trkpt>
      <trkpt lat="45.1203" lon="5.48155">
        <ele>981.173965</ele>
        <time>2022-07-24T03:05:23.375Z</time>
      </trkpt>
      <trkpt lat="45.12091" lon="5.48115">
        <ele>984.381472</ele>
        <time>2022-07-24T03:05:46.526Z</time>
      </trkpt>
      <trkpt lat="45.1211" lon="5.48105">
        <ele>985.38433</ele>
        <time>2022-07-24T03:05:54.405Z</time>
      </trkpt>
      <trkpt lat="45.1213" lon="5.48103">
        <ele>986.329523</ele>
        <time>2022-07-24T03:06:02.095Z</time>
      </trkpt>
      <trkpt lat="45.12159" lon="5.48113">
        <ele>987.775683</ele>
        <time>2022-07-24T03:06:16.540Z</time>
      </trkpt>
      <trkpt lat="45.1217" lon="5.481">
        <ele>988.463694</ele>
        <time>2022-07-24T03:06:25.408Z</time>
      </trkpt>
      <trkpt lat="45.12196" lon="5.48088">
        <ele>990.459043</ele>
        <time>2022-07-24T03:06:48.179Z</time>
      </trkpt>
      <trkpt lat="45.12241" lon="5.48095">
        <ele>996.162796</ele>
        <time>2022-07-24T03:07:27.011Z</time>
      </trkpt>
      <trkpt lat="45.12284" lon="5.48096">
        <ele>1001.662928</ele>
        <time>2022-07-24T03:08:08.690Z</time>
      </trkpt>
      <trkpt lat="45.12332" lon="5.4811">
        <ele>1007.849851</ele>
        <time>2022-07-24T03:08:59.738Z</time>
      </trkpt>
      <trkpt lat="45.12365" lon="5.48135">
        <ele>1012.688145</ele>
        <time>2022-07-24T03:09:41.905Z</time>
      </trkpt>
      <trkpt lat="45.12395" lon="5.48136">
        <ele>1016.471184</ele>
        <time>2022-07-24T03:10:12.635Z</time>
      </trkpt>
      <trkpt lat="45.12421" lon="5.48141">
        <ele>1019.781963</ele>
        <time>2022-07-24T03:10:38.624Z</time>
      </trkpt>
      <trkpt lat="45.12453" lon="5.48141">
        <ele>1023.843172</ele>
        <time>2022-07-24T03:11:10.696Z</time>
      </trkpt>
      <trkpt lat="45.12498" lon="5.48162">
        <ele>1029.800439</ele>
        <time>2022-07-24T03:11:53.788Z</time>
      </trkpt>
      <trkpt lat="45.1251" lon="5.48163">
        <ele>1031.322422</ele>
        <time>2022-07-24T03:12:05.692Z</time>
      </trkpt>
      <trkpt lat="45.1255" lon="5.48178">
        <ele>1036.069231</ele>
        <time>2022-07-24T03:12:40.123Z</time>
      </trkpt>
      <trkpt lat="45.12602" lon="5.48179">
        <ele>1040.462265</ele>
        <time>2022-07-24T03:13:21.822Z</time>
      </trkpt>
      <trkpt lat="45.12641" lon="5.48186">
        <ele>1043.709383</ele>
        <time>2022-07-24T03:13:52.139Z</time>
      </trkpt>
      <trkpt lat="45.1268" lon="5.48158">
        <ele>1047.453019</ele>
        <time>2022-07-24T03:14:20.870Z</time>
      </trkpt>
      <trkpt lat="45.12692" lon="5.48157">
        <ele>1048.447339</ele>
        <time>2022-07-24T03:14:28.052Z</time>
      </trkpt>
      <trkpt lat="45.12713" lon="5.48176">
        <ele>1050.401176</ele>
        <time>2022-07-24T03:14:43.398Z</time>
      </trkpt>
      <trkpt lat="45.12742" lon="5.48195">
        <ele>1052.1912</ele>
        <time>2022-07-24T03:15:04.111Z</time>
      </trkpt>
      <trkpt lat="45.12775" lon="5.48228">
        <ele>1054.450774</ele>
        <time>2022-07-24T03:15:31.902Z</time>
      </trkpt>
      <trkpt lat="45.12825" lon="5.48254">
        <ele>1057.387862</ele>
        <time>2022-07-24T03:16:04.087Z</time>
      </trkpt>
      <trkpt lat="45.12862" lon="5.48266">
        <ele>1059.50706</ele>
        <time>2022-07-24T03:16:24.748Z</time>
      </trkpt>
      <trkpt lat="45.129" lon="5.48292">
        <ele>1060.293443</ele>
        <time>2022-07-24T03:16:45.146Z</time>
      </trkpt>
      <trkpt lat="45.1291" lon="5.4829">
        <ele>1060.323616</ele>
        <time>2022-07-24T03:16:49.821Z</time>
      </trkpt>
      <trkpt lat="45.1293" lon="5.48268">
        <ele>1060.401062</ele>
        <time>2022-07-24T03:16:59.776Z</time>
      </trkpt>
      <trkpt lat="45.12959" lon="5.48252">
        <ele>1060.493214</ele>
        <time>2022-07-24T03:17:09.744Z</time>
      </trkpt>
      <trkpt lat="45.13018" lon="5.48211">
        <ele>1060.693459</ele>
        <time>2022-07-24T03:17:28.666Z</time>
      </trkpt>
      <trkpt lat="45.13036" lon="5.48194">
        <ele>1060.703974</ele>
        <time>2022-07-24T03:17:34.502Z</time>
      </trkpt>
      <trkpt lat="45.13062" lon="5.48153">
        <ele>1060.254733</ele>
        <time>2022-07-24T03:17:44.574Z</time>
      </trkpt>
      <trkpt lat="45.13089" lon="5.48135">
        <ele>1059.921092</ele>
        <time>2022-07-24T03:17:52.273Z</time>
      </trkpt>
      <trkpt lat="45.13116" lon="5.48122">
        <ele>1059.587233</ele>
        <time>2022-07-24T03:18:00.656Z</time>
      </trkpt>
      <trkpt lat="45.13147" lon="5.48113">
        <ele>1059.231895</ele>
        <time>2022-07-24T03:18:09.944Z</time>
      </trkpt>
      <trkpt lat="45.13261" lon="5.48117">
        <ele>1059.513281</ele>
        <time>2022-07-24T03:18:49.649Z</time>
      </trkpt>
      <trkpt lat="45.1329" lon="5.48142">
        <ele>1059.924988</ele>
        <time>2022-07-24T03:19:03.074Z</time>
      </trkpt>
      <trkpt lat="45.13313" lon="5.48154">
        <ele>1060.234317</ele>
        <time>2022-07-24T03:19:12.771Z</time>
      </trkpt>
      <trkpt lat="45.13327" lon="5.48158">
        <ele>1060.404785</ele>
        <time>2022-07-24T03:19:18.426Z</time>
      </trkpt>
      <trkpt lat="45.13341" lon="5.48157">
        <ele>1060.580085</ele>
        <time>2022-07-24T03:19:24.184Z</time>
      </trkpt>
      <trkpt lat="45.13364" lon="5.48145">
        <ele>1060.87827</ele>
        <time>2022-07-24T03:19:33.918Z</time>
      </trkpt>
      <trkpt lat="45.1339" lon="5.48143">
        <ele>1061.674199</ele>
        <time>2022-07-24T03:19:44.614Z</time>
      </trkpt>
      <trkpt lat="45.13431" lon="5.48154">
        <ele>1062.978641</ele>
        <time>2022-07-24T03:20:01.900Z</time>
      </trkpt>
      <trkpt lat="45.13456" lon="5.48155">
        <ele>1063.783887</ele>
        <time>2022-07-24T03:20:12.612Z</time>
      </trkpt>
      <trkpt lat="45.1361" lon="5.48201">
        <ele>1071.066214</ele>
        <time>2022-07-24T03:21:37.389Z</time>
      </trkpt>
      <trkpt lat="45.13647" lon="5.48222">
        <ele>1073.660801</ele>
        <time>2022-07-24T03:22:05.609Z</time>
      </trkpt>
      <trkpt lat="45.13674" lon="5.48248">
        <ele>1075.787306</ele>
        <time>2022-07-24T03:22:28.102Z</time>
      </trkpt>
      <trkpt lat="45.13683" lon="5.48253">
        <ele>1076.378365</ele>
        <time>2022-07-24T03:22:35.523Z</time>
      </trkpt>
      <trkpt lat="45.13692" lon="5.4827">
        <ele>1077.373553</ele>
        <time>2022-07-24T03:22:47.377Z</time>
      </trkpt>
      <trkpt lat="45.13722" lon="5.48293">
        <ele>1079.382529</ele>
        <time>2022-07-24T03:23:11.470Z</time>
      </trkpt>
      <trkpt lat="45.1373" lon="5.48306">
        <ele>1080.059967</ele>
        <time>2022-07-24T03:23:18.348Z</time>
      </trkpt>
      <trkpt lat="45.1374" lon="5.4834">
        <ele>1081.493609</ele>
        <time>2022-07-24T03:23:38.433Z</time>
      </trkpt>
      <trkpt lat="45.13751" lon="5.48364">
        <ele>1082.612391</ele>
        <time>2022-07-24T03:23:51.257Z</time>
      </trkpt>
      <trkpt lat="45.13795" lon="5.48411">
        <ele>1085.632163</ele>
        <time>2022-07-24T03:24:27.502Z</time>
      </trkpt>
      <trkpt lat="45.13822" lon="5.48435">
        <ele>1087.369717</ele>
        <time>2022-07-24T03:24:40.060Z</time>
      </trkpt>
      <trkpt lat="45.13846" lon="5.48437">
        <ele>1088.313773</ele>
        <time>2022-07-24T03:24:48.827Z</time>
      </trkpt>
      <trkpt lat="45.13859" lon="5.48432">
        <ele>1088.527226</ele>
        <time>2022-07-24T03:24:53.738Z</time>
      </trkpt>
      <trkpt lat="45.13898" lon="5.4843">
        <ele>1089.119201</ele>
        <time>2022-07-24T03:25:06.382Z</time>
      </trkpt>
      <trkpt lat="45.13949" lon="5.48418">
        <ele>1089.894472</ele>
        <time>2022-07-24T03:25:23.392Z</time>
      </trkpt>
      <trkpt lat="45.13973" lon="5.48422">
        <ele>1090.267346</ele>
        <time>2022-07-24T03:25:32.321Z</time>
      </trkpt>
      <trkpt lat="45.13991" lon="5.48431">
        <ele>1090.54839</ele>
        <time>2022-07-24T03:25:40.580Z</time>
      </trkpt>
      <trkpt lat="45.1406" lon="5.48447">
        <ele>1093.772952</ele>
        <time>2022-07-24T03:26:15.687Z</time>
      </trkpt>
      <trkpt lat="45.14123" lon="5.48466">
        <ele>1097.683034</ele>
        <time>2022-07-24T03:26:52.571Z</time>
      </trkpt>
      <trkpt lat="45.14148" lon="5.48467">
        <ele>1099.233759</ele>
        <time>2022-07-24T03:27:10.887Z</time>
      </trkpt>
      <trkpt lat="45.14216" lon="5.4851">
        <ele>1104.729333</ele>
        <time>2022-07-24T03:28:08.946Z</time>
      </trkpt>
      <trkpt lat="45.14269" lon="5.48525">
        <ele>1109.729145</ele>
        <time>2022-07-24T03:28:54.784Z</time>
      </trkpt>
      <trkpt lat="45.14282" lon="5.48544">
        <ele>1111.463342</ele>
        <time>2022-07-24T03:29:12.229Z</time>
      </trkpt>
      <trkpt lat="45.14303" lon="5.48593">
        <ele>1115.210269</ele>
        <time>2022-07-24T03:29:43.673Z</time>
      </trkpt>
      <trkpt lat="45.14335" lon="5.48626">
        <ele>1118.58404</ele>
        <time>2022-07-24T03:30:11.828Z</time>
      </trkpt>
      <trkpt lat="45.14377" lon="5.48683">
        <ele>1119.334604</ele>
        <time>2022-07-24T03:30:48.440Z</time>
      </trkpt>
      <trkpt lat="45.14377" lon="5.48683">
        <ele>1119.334604</ele>
        <time>2022-07-24T03:30:48.799Z</time>
      </trkpt>
      <trkpt lat="45.144" lon="5.4873">
        <ele>1119.853273</ele>
        <time>2022-07-24T03:31:07.010Z</time>
      </trkpt>
      <trkpt lat="45.14418" lon="5.48761">
        <ele>1120.216905</ele>
        <time>2022-07-24T03:31:21.326Z</time>
      </trkpt>
      <trkpt lat="45.14416" lon="5.48746">
        <ele>1120.351062</ele>
        <time>2022-07-24T03:31:23.484Z</time>
      </trkpt>
      <trkpt lat="45.14417" lon="5.48718">
        <ele>1120.610952</ele>
        <time>2022-07-24T03:31:29.099Z</time>
      </trkpt>
      <trkpt lat="45.14447" lon="5.48621">
        <ele>1113.605196</ele>
        <time>2022-07-24T03:31:45.353Z</time>
      </trkpt>
      <trkpt lat="45.14451" lon="5.48568">
        <ele>1108.627688</ele>
        <time>2022-07-24T03:31:53.209Z</time>
      </trkpt>
      <trkpt lat="45.14459" lon="5.48532">
        <ele>1105.202706</ele>
        <time>2022-07-24T03:31:58.320Z</time>
      </trkpt>
      <trkpt lat="45.14468" lon="5.48526">
        <ele>1103.833034</ele>
        <time>2022-07-24T03:31:59.582Z</time>
      </trkpt>
      <trkpt lat="45.14469" lon="5.48513">
        <ele>1102.598826</ele>
        <time>2022-07-24T03:32:00.616Z</time>
      </trkpt>
      <trkpt lat="45.14457" lon="5.48449">
        <ele>1096.538357</ele>
        <time>2022-07-24T03:32:05.884Z</time>
      </trkpt>
      <trkpt lat="45.14456" lon="5.4833">
        <ele>1085.868631</ele>
        <time>2022-07-24T03:32:15.386Z</time>
      </trkpt>
      <trkpt lat="45.1446" lon="5.48202">
        <ele>1074.452875</ele>
        <time>2022-07-24T03:32:26.154Z</time>
      </trkpt>
      <trkpt lat="45.14471" lon="5.48151">
        <ele>1072.45128</ele>
        <time>2022-07-24T03:32:30.983Z</time>
      </trkpt>
      <trkpt lat="45.1448" lon="5.48141">
        <ele>1071.853366</ele>
        <time>2022-07-24T03:32:32.400Z</time>
      </trkpt>
      <trkpt lat="45.14485" lon="5.48129">
        <ele>1071.31688</ele>
        <time>2022-07-24T03:32:33.800Z</time>
      </trkpt>
      <trkpt lat="45.14506" lon="5.48065">
        <ele>1068.692287</ele>
        <time>2022-07-24T03:32:40.332Z</time>
      </trkpt>
      <trkpt lat="45.14513" lon="5.48021">
        <ele>1066.984897</ele>
        <time>2022-07-24T03:32:44.808Z</time>
      </trkpt>
      <trkpt lat="45.1452" lon="5.47996">
        <ele>1065.972692</ele>
        <time>2022-07-24T03:32:47.427Z</time>
      </trkpt>
      <trkpt lat="45.14522" lon="5.47973">
        <ele>1065.130325</ele>
        <time>2022-07-24T03:32:50.168Z</time>
      </trkpt>
      <trkpt lat="45.1457" lon="5.47983">
        <ele>1061.972551</ele>
        <time>2022-07-24T03:32:57.035Z</time>
      </trkpt>
      <trkpt lat="45.14599" lon="5.4799">
        <ele>1059.981993</ele>
        <time>2022-07-24T03:33:01.064Z</time>
      </trkpt>
      <trkpt lat="45.14688" lon="5.48002">
        <ele>1053.985744</ele>
        <time>2022-07-24T03:33:12.283Z</time>
      </trkpt>
      <trkpt lat="45.14723" lon="5.4801">
        <ele>1050.610282</ele>
        <time>2022-07-24T03:33:16.382Z</time>
      </trkpt>
      <trkpt lat="45.14896" lon="5.48086">
        <ele>1029.412887</ele>
        <time>2022-07-24T03:33:37.309Z</time>
      </trkpt>
      <trkpt lat="45.14977" lon="5.4813">
        <ele>1023.671864</ele>
        <time>2022-07-24T03:33:47.886Z</time>
      </trkpt>
      <trkpt lat="45.15112" lon="5.48203">
        <ele>1018.915012</ele>
        <time>2022-07-24T03:34:10.255Z</time>
      </trkpt>
      <trkpt lat="45.15192" lon="5.48238">
        <ele>1019.092063</ele>
        <time>2022-07-24T03:34:35.521Z</time>
      </trkpt>
      <trkpt lat="45.15217" lon="5.48245">
        <ele>1019.143623</ele>
        <time>2022-07-24T03:34:42.685Z</time>
      </trkpt>
      <trkpt lat="45.15284" lon="5.48274">
        <ele>1019.024304</ele>
        <time>2022-07-24T03:34:58.284Z</time>
      </trkpt>
      <trkpt lat="45.15368" lon="5.48316">
        <ele>1018.873382</ele>
        <time>2022-07-24T03:35:13.928Z</time>
      </trkpt>
      <trkpt lat="45.15448" lon="5.48362">
        <ele>1017.5095</ele>
        <time>2022-07-24T03:35:27.487Z</time>
      </trkpt>
      <trkpt lat="45.15512" lon="5.48392">
        <ele>1016.14169</ele>
        <time>2022-07-24T03:35:37.682Z</time>
      </trkpt>
      <trkpt lat="45.15603" lon="5.48423">
        <ele>1014.454256</ele>
        <time>2022-07-24T03:35:51.983Z</time>
      </trkpt>
      <trkpt lat="45.15729" lon="5.48461">
        <ele>1012.40836</ele>
        <time>2022-07-24T03:36:12.825Z</time>
      </trkpt>
      <trkpt lat="45.15926" lon="5.48547">
        <ele>1011.45349</ele>
        <time>2022-07-24T03:36:48.969Z</time>
      </trkpt>
      <trkpt lat="45.16004" lon="5.48571">
        <ele>1012.017464</ele>
        <time>2022-07-24T03:37:09.603Z</time>
      </trkpt>
      <trkpt lat="45.16083" lon="5.4859">
        <ele>1012.532769</ele>
        <time>2022-07-24T03:37:29.555Z</time>
      </trkpt>
      <trkpt lat="45.16123" lon="5.48617">
        <ele>1011.789648</ele>
        <time>2022-07-24T03:37:38.788Z</time>
      </trkpt>
      <trkpt lat="45.16228" lon="5.48677">
        <ele>1009.906402</ele>
        <time>2022-07-24T03:37:56.337Z</time>
      </trkpt>
      <trkpt lat="45.16316" lon="5.48718">
        <ele>1006.168345</ele>
        <time>2022-07-24T03:38:08.987Z</time>
      </trkpt>
      <trkpt lat="45.16568" lon="5.48826">
        <ele>993.246005</ele>
        <time>2022-07-24T03:38:43.846Z</time>
      </trkpt>
      <trkpt lat="45.16718" lon="5.4891">
        <ele>985.662052</ele>
        <time>2022-07-24T03:39:05.615Z</time>
      </trkpt>
      <trkpt lat="45.16812" lon="5.48962">
        <ele>979.937728</ele>
        <time>2022-07-24T03:39:19.430Z</time>
      </trkpt>
      <trkpt lat="45.16823" lon="5.48971">
        <ele>979.144639</ele>
        <time>2022-07-24T03:39:21.147Z</time>
      </trkpt>
      <trkpt lat="45.16956" lon="5.49098">
        <ele>966.548325</ele>
        <time>2022-07-24T03:39:41.069Z</time>
      </trkpt>
      <trkpt lat="45.17077" lon="5.49223">
        <ele>950.355008</ele>
        <time>2022-07-24T03:39:58.487Z</time>
      </trkpt>
      <trkpt lat="45.17202" lon="5.49339">
        <ele>934.399223</ele>
        <time>2022-07-24T03:40:16.180Z</time>
      </trkpt>
      <trkpt lat="45.17309" lon="5.49446">
        <ele>924.584749</ele>
        <time>2022-07-24T03:40:32.423Z</time>
      </trkpt>
      <trkpt lat="45.17707" lon="5.49795">
        <ele>904.71752</ele>
        <time>2022-07-24T03:41:34.553Z</time>
      </trkpt>
      <trkpt lat="45.17715" lon="5.49797">
        <ele>905.119225</ele>
        <time>2022-07-24T03:41:39.318Z</time>
      </trkpt>
      <trkpt lat="45.17739" lon="5.49794">
        <ele>906.321028</ele>
        <time>2022-07-24T03:41:50.598Z</time>
      </trkpt>
      <trkpt lat="45.17741" lon="5.49801">
        <ele>906.572873</ele>
        <time>2022-07-24T03:41:54.106Z</time>
      </trkpt>
      <trkpt lat="45.17741" lon="5.49821">
        <ele>907.28996</ele>
        <time>2022-07-24T03:42:04.268Z</time>
      </trkpt>
      <trkpt lat="45.17741" lon="5.49828">
        <ele>907.538218</ele>
        <time>2022-07-24T03:42:07.552Z</time>
      </trkpt>
      <trkpt lat="45.17834" lon="5.49879">
        <ele>913.991813</ele>
        <time>2022-07-24T03:43:31.295Z</time>
      </trkpt>
      <trkpt lat="45.17871" lon="5.49908">
        <ele>918.479336</ele>
        <time>2022-07-24T03:44:13.178Z</time>
      </trkpt>
      <trkpt lat="45.17902" lon="5.49915">
        <ele>921.864375</ele>
        <time>2022-07-24T03:44:42.576Z</time>
      </trkpt>
      <trkpt lat="45.17961" lon="5.49943">
        <ele>928.474403</ele>
        <time>2022-07-24T03:45:32.007Z</time>
      </trkpt>
      <trkpt lat="45.18008" lon="5.49975">
        <ele>933.488971</ele>
        <time>2022-07-24T03:46:09.069Z</time>
      </trkpt>
      <trkpt lat="45.18045" lon="5.50015">
        <ele>937.789719</ele>
        <time>2022-07-24T03:46:45.408Z</time>
      </trkpt>
      <trkpt lat="45.18062" lon="5.50028">
        <ele>939.579059</ele>
        <time>2022-07-24T03:46:57.156Z</time>
      </trkpt>
      <trkpt lat="45.18085" lon="5.50041">
        <ele>941.782649</ele>
        <time>2022-07-24T03:47:15.608Z</time>
      </trkpt>
      <trkpt lat="45.18131" lon="5.50055">
        <ele>946.091578</ele>
        <time>2022-07-24T03:47:55.947Z</time>
      </trkpt>
      <trkpt lat="45.18137" lon="5.50064">
        <ele>946.936374</ele>
        <time>2022-07-24T03:48:08.188Z</time>
      </trkpt>
      <trkpt lat="45.18135" lon="5.50079">
        <ele>948.145346</ele>
        <time>2022-07-24T03:48:15.268Z</time>
      </trkpt>
      <trkpt lat="45.18115" lon="5.50094">
        <ele>950.810403</ele>
        <time>2022-07-24T03:48:35.977Z</time>
      </trkpt>
      <trkpt lat="45.18097" lon="5.50099">
        <ele>952.919406</ele>
        <time>2022-07-24T03:48:47.692Z</time>
      </trkpt>
      <trkpt lat="45.18086" lon="5.50103">
        <ele>954.23762</ele>
        <time>2022-07-24T03:48:55.671Z</time>
      </trkpt>
      <trkpt lat="45.18064" lon="5.50112">
        <ele>956.919776</ele>
        <time>2022-07-24T03:49:14.864Z</time>
      </trkpt>
      <trkpt lat="45.18059" lon="5.50122">
        <ele>957.893812</ele>
        <time>2022-07-24T03:49:20.979Z</time>
      </trkpt>
      <trkpt lat="45.18063" lon="5.50137">
        <ele>959.188196</ele>
        <time>2022-07-24T03:49:36.840Z</time>
      </trkpt>
      <trkpt lat="45.18076" lon="5.50148">
        <ele>960.938199</ele>
        <time>2022-07-24T03:49:48.602Z</time>
      </trkpt>
      <trkpt lat="45.18103" lon="5.50153">
        <ele>963.991797</ele>
        <time>2022-07-24T03:50:19.277Z</time>
      </trkpt>
      <trkpt lat="45.18128" lon="5.50154">
        <ele>966.933524</ele>
        <time>2022-07-24T03:50:42.566Z</time>
      </trkpt>
      <trkpt lat="45.18155" lon="5.50164">
        <ele>969.344476</ele>
        <time>2022-07-24T03:51:06.094Z</time>
      </trkpt>
      <trkpt lat="45.18182" lon="5.50182">
        <ele>971.692366</ele>
        <time>2022-07-24T03:51:33.231Z</time>
      </trkpt>
      <trkpt lat="45.18219" lon="5.50199">
        <ele>974.805693</ele>
        <time>2022-07-24T03:52:05.234Z</time>
      </trkpt>
      <trkpt lat="45.1824" lon="5.50228">
        <ele>977.163792</ele>
        <time>2022-07-24T03:52:23.705Z</time>
      </trkpt>
      <trkpt lat="45.18253" lon="5.50265">
        <ele>979.461105</ele>
        <time>2022-07-24T03:52:39.940Z</time>
      </trkpt>
      <trkpt lat="45.18267" lon="5.50326">
        <ele>982.123024</ele>
        <time>2022-07-24T03:53:02.854Z</time>
      </trkpt>
      <trkpt lat="45.18279" lon="5.50322">
        <ele>982.321018</ele>
        <time>2022-07-24T03:53:07.511Z</time>
      </trkpt>
      <trkpt lat="45.18299" lon="5.50289">
        <ele>982.832899</ele>
        <time>2022-07-24T03:53:22.406Z</time>
      </trkpt>
      <trkpt lat="45.18313" lon="5.50255">
        <ele>983.293848</ele>
        <time>2022-07-24T03:53:32.572Z</time>
      </trkpt>
      <trkpt lat="45.18324" lon="5.50207">
        <ele>983.88242</ele>
        <time>2022-07-24T03:53:43.344Z</time>
      </trkpt>
      <trkpt lat="45.18326" lon="5.50176">
        <ele>984.247522</ele>
        <time>2022-07-24T03:53:50.619Z</time>
      </trkpt>
      <trkpt lat="45.18324" lon="5.50121">
        <ele>984.951361</ele>
        <time>2022-07-24T03:54:03.301Z</time>
      </trkpt>
      <trkpt lat="45.18325" lon="5.50118">
        <ele>985.049337</ele>
        <time>2022-07-24T03:54:04.048Z</time>
      </trkpt>
      <trkpt lat="45.18327" lon="5.50108">
        <ele>985.368431</ele>
        <time>2022-07-24T03:54:06.501Z</time>
      </trkpt>
      <trkpt lat="45.1834" lon="5.501">
        <ele>985.977505</ele>
        <time>2022-07-24T03:54:14.712Z</time>
      </trkpt>
      <trkpt lat="45.18352" lon="5.501">
        <ele>986.541818</ele>
        <time>2022-07-24T03:54:20.516Z</time>
      </trkpt>
      <trkpt lat="45.18392" lon="5.50118">
        <ele>988.405555</ele>
        <time>2022-07-24T03:54:41.832Z</time>
      </trkpt>
      <trkpt lat="45.18431" lon="5.50153">
        <ele>990.454467</ele>
        <time>2022-07-24T03:55:07.928Z</time>
      </trkpt>
      <trkpt lat="45.18481" lon="5.50187">
        <ele>992.887046</ele>
        <time>2022-07-24T03:55:46.415Z</time>
      </trkpt>
      <trkpt lat="45.18513" lon="5.50213">
        <ele>994.829479</ele>
        <time>2022-07-24T03:56:07.902Z</time>
      </trkpt>
      <trkpt lat="45.18528" lon="5.50228">
        <ele>995.752187</ele>
        <time>2022-07-24T03:56:17.300Z</time>
      </trkpt>
      <trkpt lat="45.18564" lon="5.50267">
        <ele>998.11869</ele>
        <time>2022-07-24T03:56:44.161Z</time>
      </trkpt>
      <trkpt lat="45.18607" lon="5.50324">
        <ele>1001.160231</ele>
        <time>2022-07-24T03:57:17.125Z</time>
      </trkpt>
      <trkpt lat="45.18661" lon="5.50376">
        <ele>1004.233431</ele>
        <time>2022-07-24T03:57:52.030Z</time>
      </trkpt>
      <trkpt lat="45.18735" lon="5.50457">
        <ele>1008.396905</ele>
        <time>2022-07-24T03:58:41.747Z</time>
      </trkpt>
      <trkpt lat="45.18787" lon="5.5053">
        <ele>1011.576745</ele>
        <time>2022-07-24T03:59:22.144Z</time>
      </trkpt>
      <trkpt lat="45.1882" lon="5.50562">
        <ele>1013.249342</ele>
        <time>2022-07-24T03:59:45.162Z</time>
      </trkpt>
      <trkpt lat="45.18875" lon="5.506">
        <ele>1015.772372</ele>
        <time>2022-07-24T04:00:15.980Z</time>
      </trkpt>
      <trkpt lat="45.18907" lon="5.50645">
        <ele>1017.63457</ele>
        <time>2022-07-24T04:00:37.269Z</time>
      </trkpt>
      <trkpt lat="45.18936" lon="5.50668">
        <ele>1019.421781</ele>
        <time>2022-07-24T04:00:53.822Z</time>
      </trkpt>
      <trkpt lat="45.19021" lon="5.50728">
        <ele>1024.672415</ele>
        <time>2022-07-24T04:01:49.559Z</time>
      </trkpt>
      <trkpt lat="45.19183" lon="5.50856">
        <ele>1036.773306</ele>
        <time>2022-07-24T04:03:54.950Z</time>
      </trkpt>
      <trkpt lat="45.19432" lon="5.51027">
        <ele>1055.929736</ele>
        <time>2022-07-24T04:06:53.966Z</time>
      </trkpt>
      <trkpt lat="45.19474" lon="5.51074">
        <ele>1060.124497</ele>
        <time>2022-07-24T04:07:32.931Z</time>
      </trkpt>
      <trkpt lat="45.19582" lon="5.51139">
        <ele>1070.33696</ele>
        <time>2022-07-24T04:08:59.506Z</time>
      </trkpt>
      <trkpt lat="45.19651" lon="5.51222">
        <ele>1079.480235</ele>
        <time>2022-07-24T04:10:17.933Z</time>
      </trkpt>
      <trkpt lat="45.19788" lon="5.5134">
        <ele>1094.027998</ele>
        <time>2022-07-24T04:12:33.828Z</time>
      </trkpt>
      <trkpt lat="45.19829" lon="5.51395">
        <ele>1098.893751</ele>
        <time>2022-07-24T04:13:11.012Z</time>
      </trkpt>
      <trkpt lat="45.19833" lon="5.51408">
        <ele>1099.700965</ele>
        <time>2022-07-24T04:13:17.084Z</time>
      </trkpt>
      <trkpt lat="45.19834" lon="5.51424">
        <ele>1099.913889</ele>
        <time>2022-07-24T04:13:24.264Z</time>
      </trkpt>
      <trkpt lat="45.19816" lon="5.51458">
        <ele>1100.0343</ele>
        <time>2022-07-24T04:13:38.061Z</time>
      </trkpt>
      <trkpt lat="45.19817" lon="5.51468">
        <ele>1100.063118</ele>
        <time>2022-07-24T04:13:41.606Z</time>
      </trkpt>
      <trkpt lat="45.19821" lon="5.51478">
        <ele>1100.095494</ele>
        <time>2022-07-24T04:13:43.633Z</time>
      </trkpt>
      <trkpt lat="45.1983" lon="5.51484">
        <ele>1100.136227</ele>
        <time>2022-07-24T04:13:47.768Z</time>
      </trkpt>
      <trkpt lat="45.19876" lon="5.51497">
        <ele>1100.325759</ele>
        <time>2022-07-24T04:14:02.158Z</time>
      </trkpt>
      <trkpt lat="45.19916" lon="5.51492">
        <ele>1100.48352</ele>
        <time>2022-07-24T04:14:13.688Z</time>
      </trkpt>
      <trkpt lat="45.19944" lon="5.51492">
        <ele>1100.583572</ele>
        <time>2022-07-24T04:14:21.397Z</time>
      </trkpt>
      <trkpt lat="45.19967" lon="5.51495">
        <ele>1099.80481</ele>
        <time>2022-07-24T04:14:26.962Z</time>
      </trkpt>
      <trkpt lat="45.19987" lon="5.51506">
        <ele>1099.052544</ele>
        <time>2022-07-24T04:14:32.536Z</time>
      </trkpt>
      <trkpt lat="45.20007" lon="5.51521">
        <ele>1098.284751</ele>
        <time>2022-07-24T04:14:38.221Z</time>
      </trkpt>
      <trkpt lat="45.20044" lon="5.51564">
        <ele>1096.634044</ele>
        <time>2022-07-24T04:14:50.789Z</time>
      </trkpt>
      <trkpt lat="45.20061" lon="5.51575">
        <ele>1095.980635</ele>
        <time>2022-07-24T04:14:55.315Z</time>
      </trkpt>
      <trkpt lat="45.20078" lon="5.51581">
        <ele>1095.372798</ele>
        <time>2022-07-24T04:14:59.825Z</time>
      </trkpt>
      <trkpt lat="45.20104" lon="5.51602">
        <ele>1094.374499</ele>
        <time>2022-07-24T04:15:06.925Z</time>
      </trkpt>
      <trkpt lat="45.20162" lon="5.51632">
        <ele>1092.848867</ele>
        <time>2022-07-24T04:15:22.649Z</time>
      </trkpt>
      <trkpt lat="45.20176" lon="5.51648">
        <ele>1092.414996</ele>
        <time>2022-07-24T04:15:27.452Z</time>
      </trkpt>
      <trkpt lat="45.20197" lon="5.51664">
        <ele>1091.835645</ele>
        <time>2022-07-24T04:15:33.251Z</time>
      </trkpt>
      <trkpt lat="45.2029" lon="5.51723">
        <ele>1090.840776</ele>
        <time>2022-07-24T04:16:03.130Z</time>
      </trkpt>
      <trkpt lat="45.20311" lon="5.51743">
        <ele>1091.629393</ele>
        <time>2022-07-24T04:16:12.159Z</time>
      </trkpt>
      <trkpt lat="45.20392" lon="5.51797">
        <ele>1094.421062</ele>
        <time>2022-07-24T04:16:56.303Z</time>
      </trkpt>
      <trkpt lat="45.20408" lon="5.51813">
        <ele>1095.034032</ele>
        <time>2022-07-24T04:17:09.559Z</time>
      </trkpt>
      <trkpt lat="45.20466" lon="5.51853">
        <ele>1099.012856</ele>
        <time>2022-07-24T04:17:51.314Z</time>
      </trkpt>
      <trkpt lat="45.20475" lon="5.51862">
        <ele>1099.836825</ele>
        <time>2022-07-24T04:17:59.272Z</time>
      </trkpt>
      <trkpt lat="45.20478" lon="5.51874">
        <ele>1100.498483</ele>
        <time>2022-07-24T04:18:04.627Z</time>
      </trkpt>
      <trkpt lat="45.20469" lon="5.51926">
        <ele>1103.302995</ele>
        <time>2022-07-24T04:18:28.839Z</time>
      </trkpt>
      <trkpt lat="45.20469" lon="5.51943">
        <ele>1104.161414</ele>
        <time>2022-07-24T04:18:36.830Z</time>
      </trkpt>
      <trkpt lat="45.20472" lon="5.51959">
        <ele>1105.036156</ele>
        <time>2022-07-24T04:18:45.465Z</time>
      </trkpt>
      <trkpt lat="45.20496" lon="5.52015">
        <ele>1108.456146</ele>
        <time>2022-07-24T04:19:19.723Z</time>
      </trkpt>
      <trkpt lat="45.20498" lon="5.52046">
        <ele>1110.669178</ele>
        <time>2022-07-24T04:19:37.116Z</time>
      </trkpt>
      <trkpt lat="45.20492" lon="5.52066">
        <ele>1112.453834</ele>
        <time>2022-07-24T04:19:49.384Z</time>
      </trkpt>
      <trkpt lat="45.20483" lon="5.52078">
        <ele>1113.838377</ele>
        <time>2022-07-24T04:19:59.215Z</time>
      </trkpt>
      <trkpt lat="45.20456" lon="5.52087">
        <ele>1116.990436</ele>
        <time>2022-07-24T04:20:22.530Z</time>
      </trkpt>
      <trkpt lat="45.2039" lon="5.52094">
        <ele>1124.553572</ele>
        <time>2022-07-24T04:21:22.107Z</time>
      </trkpt>
      <trkpt lat="45.20322" lon="5.5209">
        <ele>1132.671137</ele>
        <time>2022-07-24T04:22:30.393Z</time>
      </trkpt>
      <trkpt lat="45.20312" lon="5.52099">
        <ele>1134.168011</ele>
        <time>2022-07-24T04:22:44.050Z</time>
      </trkpt>
      <trkpt lat="45.20286" lon="5.52144">
        <ele>1139.323744</ele>
        <time>2022-07-24T04:23:26.746Z</time>
      </trkpt>
      <trkpt lat="45.20265" lon="5.52187">
        <ele>1144.039809</ele>
        <time>2022-07-24T04:24:03.280Z</time>
      </trkpt>
      <trkpt lat="45.20257" lon="5.52225">
        <ele>1147.556446</ele>
        <time>2022-07-24T04:24:29.025Z</time>
      </trkpt>
      <trkpt lat="45.20257" lon="5.52262">
        <ele>1150.845173</ele>
        <time>2022-07-24T04:24:51.526Z</time>
      </trkpt>
      <trkpt lat="45.20242" lon="5.52297">
        <ele>1153.97595</ele>
        <time>2022-07-24T04:25:16.687Z</time>
      </trkpt>
      <trkpt lat="45.20224" lon="5.5229">
        <ele>1155.864713</ele>
        <time>2022-07-24T04:25:29.191Z</time>
      </trkpt>
      <trkpt lat="45.20208" lon="5.52271">
        <ele>1157.975231</ele>
        <time>2022-07-24T04:25:44.490Z</time>
      </trkpt>
      <trkpt lat="45.20181" lon="5.52246">
        <ele>1161.214319</ele>
        <time>2022-07-24T04:26:04.444Z</time>
      </trkpt>
      <trkpt lat="45.20148" lon="5.5223">
        <ele>1164.690059</ele>
        <time>2022-07-24T04:26:27.039Z</time>
      </trkpt>
      <trkpt lat="45.2013" lon="5.52227">
        <ele>1166.503946</ele>
        <time>2022-07-24T04:26:48.555Z</time>
      </trkpt>
      <trkpt lat="45.20093" lon="5.52205">
        <ele>1170.738221</ele>
        <time>2022-07-24T04:27:26.609Z</time>
      </trkpt>
      <trkpt lat="45.20078" lon="5.52208">
        <ele>1172.984529</ele>
        <time>2022-07-24T04:27:40.887Z</time>
      </trkpt>
      <trkpt lat="45.20028" lon="5.52238">
        <ele>1181.463934</ele>
        <time>2022-07-24T04:28:39.612Z</time>
      </trkpt>
      <trkpt lat="45.20014" lon="5.52238">
        <ele>1183.595294</ele>
        <time>2022-07-24T04:28:50.833Z</time>
      </trkpt>
      <trkpt lat="45.19997" lon="5.5225">
        <ele>1186.527599</ele>
        <time>2022-07-24T04:29:15.217Z</time>
      </trkpt>
      <trkpt lat="45.19974" lon="5.52282">
        <ele>1191.473654</ele>
        <time>2022-07-24T04:29:47.091Z</time>
      </trkpt>
      <trkpt lat="45.19955" lon="5.52317">
        <ele>1196.272542</ele>
        <time>2022-07-24T04:30:19.925Z</time>
      </trkpt>
      <trkpt lat="45.1994" lon="5.52361">
        <ele>1201.889184</ele>
        <time>2022-07-24T04:31:07.942Z</time>
      </trkpt>
      <trkpt lat="45.19924" lon="5.52374">
        <ele>1204.935002</ele>
        <time>2022-07-24T04:31:33.327Z</time>
      </trkpt>
      <trkpt lat="45.1991" lon="5.52367">
        <ele>1207.463335</ele>
        <time>2022-07-24T04:31:55.701Z</time>
      </trkpt>
      <trkpt lat="45.19901" lon="5.52359">
        <ele>1209.201444</ele>
        <time>2022-07-24T04:32:11.114Z</time>
      </trkpt>
      <trkpt lat="45.19894" lon="5.5234">
        <ele>1211.691142</ele>
        <time>2022-07-24T04:32:28.367Z</time>
      </trkpt>
      <trkpt lat="45.19882" lon="5.52328">
        <ele>1214.152116</ele>
        <time>2022-07-24T04:32:43.413Z</time>
      </trkpt>
      <trkpt lat="45.19851" lon="5.52307">
        <ele>1219.837463</ele>
        <time>2022-07-24T04:33:17.727Z</time>
      </trkpt>
      <trkpt lat="45.19836" lon="5.52311">
        <ele>1222.325971</ele>
        <time>2022-07-24T04:33:31.548Z</time>
      </trkpt>
      <trkpt lat="45.1984" lon="5.52334">
        <ele>1225.067106</ele>
        <time>2022-07-24T04:33:50.527Z</time>
      </trkpt>
      <trkpt lat="45.19849" lon="5.52352">
        <ele>1227.618614</ele>
        <time>2022-07-24T04:34:03.734Z</time>
      </trkpt>
      <trkpt lat="45.19857" lon="5.5239">
        <ele>1231.045509</ele>
        <time>2022-07-24T04:34:32.442Z</time>
      </trkpt>
      <trkpt lat="45.19873" lon="5.52441">
        <ele>1235.755214</ele>
        <time>2022-07-24T04:35:12.201Z</time>
      </trkpt>
      <trkpt lat="45.19875" lon="5.52464">
        <ele>1237.733464</ele>
        <time>2022-07-24T04:35:30.281Z</time>
      </trkpt>
      <trkpt lat="45.19862" lon="5.52494">
        <ele>1240.650142</ele>
        <time>2022-07-24T04:35:54.516Z</time>
      </trkpt>
      <trkpt lat="45.19845" lon="5.52515">
        <ele>1243.293288</ele>
        <time>2022-07-24T04:36:18.595Z</time>
      </trkpt>
      <trkpt lat="45.19837" lon="5.52536">
        <ele>1245.278104</ele>
        <time>2022-07-24T04:36:30.114Z</time>
      </trkpt>
      <trkpt lat="45.19846" lon="5.52551">
        <ele>1246.981233</ele>
        <time>2022-07-24T04:36:40.603Z</time>
      </trkpt>
      <trkpt lat="45.19883" lon="5.52581">
        <ele>1250.980576</ele>
        <time>2022-07-24T04:37:08.610Z</time>
      </trkpt>
      <trkpt lat="45.19906" lon="5.52607">
        <ele>1253.162501</ele>
        <time>2022-07-24T04:37:27.248Z</time>
      </trkpt>
      <trkpt lat="45.19922" lon="5.52609">
        <ele>1254.321301</ele>
        <time>2022-07-24T04:37:36.597Z</time>
      </trkpt>
      <trkpt lat="45.19933" lon="5.52604">
        <ele>1255.221682</ele>
        <time>2022-07-24T04:37:44.395Z</time>
      </trkpt>
      <trkpt lat="45.19962" lon="5.52601">
        <ele>1257.30426</ele>
        <time>2022-07-24T04:38:03.003Z</time>
      </trkpt>
      <trkpt lat="45.19988" lon="5.52613">
        <ele>1259.334349</ele>
        <time>2022-07-24T04:38:21.958Z</time>
      </trkpt>
      <trkpt lat="45.20006" lon="5.52611">
        <ele>1260.658407</ele>
        <time>2022-07-24T04:38:34.563Z</time>
      </trkpt>
      <trkpt lat="45.20037" lon="5.52589">
        <ele>1263.252051</ele>
        <time>2022-07-24T04:38:59.353Z</time>
      </trkpt>
      <trkpt lat="45.20065" lon="5.52579">
        <ele>1265.768137</ele>
        <time>2022-07-24T04:39:20.955Z</time>
      </trkpt>
      <trkpt lat="45.20096" lon="5.52564">
        <ele>1268.582938</ele>
        <time>2022-07-24T04:39:46.454Z</time>
      </trkpt>
      <trkpt lat="45.20118" lon="5.52575">
        <ele>1270.523768</ele>
        <time>2022-07-24T04:40:05.087Z</time>
      </trkpt>
      <trkpt lat="45.2014" lon="5.52605">
        <ele>1273.13011</ele>
        <time>2022-07-24T04:40:28.321Z</time>
      </trkpt>
      <trkpt lat="45.20153" lon="5.52606">
        <ele>1274.205543</ele>
        <time>2022-07-24T04:40:36.947Z</time>
      </trkpt>
      <trkpt lat="45.20174" lon="5.52602">
        <ele>1276.061512</ele>
        <time>2022-07-24T04:40:53.514Z</time>
      </trkpt>
      <trkpt lat="45.20192" lon="5.52604">
        <ele>1277.572884</ele>
        <time>2022-07-24T04:41:06.198Z</time>
      </trkpt>
      <trkpt lat="45.20205" lon="5.52614">
        <ele>1278.539029</ele>
        <time>2022-07-24T04:41:17.317Z</time>
      </trkpt>
      <trkpt lat="45.20218" lon="5.52632">
        <ele>1279.680943</ele>
        <time>2022-07-24T04:41:29.871Z</time>
      </trkpt>
      <trkpt lat="45.20226" lon="5.52663">
        <ele>1281.078031</ele>
        <time>2022-07-24T04:41:46.220Z</time>
      </trkpt>
      <trkpt lat="45.20236" lon="5.52685">
        <ele>1282.215185</ele>
        <time>2022-07-24T04:41:58.744Z</time>
      </trkpt>
      <trkpt lat="45.20237" lon="5.52698">
        <ele>1282.804417</ele>
        <time>2022-07-24T04:42:05.782Z</time>
      </trkpt>
      <trkpt lat="45.20243" lon="5.52709">
        <ele>1283.401646</ele>
        <time>2022-07-24T04:42:12.082Z</time>
      </trkpt>
      <trkpt lat="45.20273" lon="5.52725">
        <ele>1285.312992</ele>
        <time>2022-07-24T04:42:31.593Z</time>
      </trkpt>
      <trkpt lat="45.20298" lon="5.52733">
        <ele>1286.874519</ele>
        <time>2022-07-24T04:42:46.051Z</time>
      </trkpt>
      <trkpt lat="45.20323" lon="5.52721">
        <ele>1288.474055</ele>
        <time>2022-07-24T04:42:59.336Z</time>
      </trkpt>
      <trkpt lat="45.20341" lon="5.52717">
        <ele>1289.041123</ele>
        <time>2022-07-24T04:43:08.238Z</time>
      </trkpt>
      <trkpt lat="45.20368" lon="5.52749">
        <ele>1289.553964</ele>
        <time>2022-07-24T04:43:23.983Z</time>
      </trkpt>
      <trkpt lat="45.20408" lon="5.52788">
        <ele>1290.268084</ele>
        <time>2022-07-24T04:43:44.126Z</time>
      </trkpt>
      <trkpt lat="45.20425" lon="5.52792">
        <ele>1290.517158</ele>
        <time>2022-07-24T04:43:50.861Z</time>
      </trkpt>
      <trkpt lat="45.20443" lon="5.52805">
        <ele>1290.824575</ele>
        <time>2022-07-24T04:43:57.589Z</time>
      </trkpt>
      <trkpt lat="45.2046" lon="5.52811">
        <ele>1291.079563</ele>
        <time>2022-07-24T04:44:03.398Z</time>
      </trkpt>
      <trkpt lat="45.2048" lon="5.52806">
        <ele>1291.37061</ele>
        <time>2022-07-24T04:44:09.566Z</time>
      </trkpt>
      <trkpt lat="45.20498" lon="5.52809">
        <ele>1291.439501</ele>
        <time>2022-07-24T04:44:15.151Z</time>
      </trkpt>
      <trkpt lat="45.20516" lon="5.52802">
        <ele>1291.303642</ele>
        <time>2022-07-24T04:44:20.714Z</time>
      </trkpt>
      <trkpt lat="45.2053" lon="5.52794">
        <ele>1291.197008</ele>
        <time>2022-07-24T04:44:25.109Z</time>
      </trkpt>
      <trkpt lat="45.20547" lon="5.5279">
        <ele>1291.074579</ele>
        <time>2022-07-24T04:44:29.855Z</time>
      </trkpt>
      <trkpt lat="45.20559" lon="5.52791">
        <ele>1290.99198</ele>
        <time>2022-07-24T04:44:33.073Z</time>
      </trkpt>
      <trkpt lat="45.20563" lon="5.5278">
        <ele>1290.931231</ele>
        <time>2022-07-24T04:44:35.391Z</time>
      </trkpt>
      <trkpt lat="45.20545" lon="5.5275">
        <ele>1290.73238</ele>
        <time>2022-07-24T04:44:42.864Z</time>
      </trkpt>
      <trkpt lat="45.20538" lon="5.52725">
        <ele>1290.60205</ele>
        <time>2022-07-24T04:44:47.814Z</time>
      </trkpt>
      <trkpt lat="45.20519" lon="5.52686">
        <ele>1290.36469</ele>
        <time>2022-07-24T04:44:58.256Z</time>
      </trkpt>
      <trkpt lat="45.20506" lon="5.52647">
        <ele>1290.736455</ele>
        <time>2022-07-24T04:45:09.490Z</time>
      </trkpt>
      <trkpt lat="45.20494" lon="5.52598">
        <ele>1292.469948</ele>
        <time>2022-07-24T04:45:24.960Z</time>
      </trkpt>
      <trkpt lat="45.20476" lon="5.52542">
        <ele>1294.53022</ele>
        <time>2022-07-24T04:45:47.478Z</time>
      </trkpt>
      <trkpt lat="45.20478" lon="5.52527">
        <ele>1295.030402</ele>
        <time>2022-07-24T04:45:53.753Z</time>
      </trkpt>
      <trkpt lat="45.20488" lon="5.52521">
        <ele>1295.569433</ele>
        <time>2022-07-24T04:46:01.987Z</time>
      </trkpt>
      <trkpt lat="45.20502" lon="5.52526">
        <ele>1296.222103</ele>
        <time>2022-07-24T04:46:10.127Z</time>
      </trkpt>
      <trkpt lat="45.20549" lon="5.52553">
        <ele>1298.624442</ele>
        <time>2022-07-24T04:46:43.758Z</time>
      </trkpt>
      <trkpt lat="45.20618" lon="5.52558">
        <ele>1305.056176</ele>
        <time>2022-07-24T04:47:36.413Z</time>
      </trkpt>
      <trkpt lat="45.20638" lon="5.52555">
        <ele>1306.954095</ele>
        <time>2022-07-24T04:47:54.902Z</time>
      </trkpt>
      <trkpt lat="45.20653" lon="5.52544">
        <ele>1308.474896</ele>
        <time>2022-07-24T04:48:08.156Z</time>
      </trkpt>
      <trkpt lat="45.20691" lon="5.52538">
        <ele>1312.110974</ele>
        <time>2022-07-24T04:48:41.207Z</time>
      </trkpt>
      <trkpt lat="45.20717" lon="5.52526">
        <ele>1314.626461</ele>
        <time>2022-07-24T04:49:03.211Z</time>
      </trkpt>
      <trkpt lat="45.20787" lon="5.52531">
        <ele>1320.671151</ele>
        <time>2022-07-24T04:49:56.343Z</time>
      </trkpt>
      <trkpt lat="45.20813" lon="5.52538">
        <ele>1322.956755</ele>
        <time>2022-07-24T04:50:15.823Z</time>
      </trkpt>
      <trkpt lat="45.20886" lon="5.52535">
        <ele>1329.126462</ele>
        <time>2022-07-24T04:51:08.083Z</time>
      </trkpt>
      <trkpt lat="45.20904" lon="5.52541">
        <ele>1330.667754</ele>
        <time>2022-07-24T04:51:21.246Z</time>
      </trkpt>
      <trkpt lat="45.2097" lon="5.52543">
        <ele>1336.85449</ele>
        <time>2022-07-24T04:52:10.301Z</time>
      </trkpt>
      <trkpt lat="45.20989" lon="5.52541">
        <ele>1338.652594</ele>
        <time>2022-07-24T04:52:24.321Z</time>
      </trkpt>
      <trkpt lat="45.21089" lon="5.52547">
        <ele>1347.965906</ele>
        <time>2022-07-24T04:53:45.112Z</time>
      </trkpt>
      <trkpt lat="45.21103" lon="5.52552">
        <ele>1349.660622</ele>
        <time>2022-07-24T04:53:58.203Z</time>
      </trkpt>
      <trkpt lat="45.21137" lon="5.52575">
        <ele>1353.999394</ele>
        <time>2022-07-24T04:54:32.469Z</time>
      </trkpt>
      <trkpt lat="45.21169" lon="5.52602">
        <ele>1358.244384</ele>
        <time>2022-07-24T04:55:06.971Z</time>
      </trkpt>
      <trkpt lat="45.212" lon="5.52619">
        <ele>1362.02261</ele>
        <time>2022-07-24T04:55:37.309Z</time>
      </trkpt>
      <trkpt lat="45.21222" lon="5.52636">
        <ele>1364.820808</ele>
        <time>2022-07-24T04:55:59.047Z</time>
      </trkpt>
      <trkpt lat="45.21234" lon="5.52638">
        <ele>1366.18898</ele>
        <time>2022-07-24T04:56:10.064Z</time>
      </trkpt>
      <trkpt lat="45.21251" lon="5.52627">
        <ele>1368.347773</ele>
        <time>2022-07-24T04:56:25.643Z</time>
      </trkpt>
      <trkpt lat="45.21273" lon="5.52626">
        <ele>1371.067668</ele>
        <time>2022-07-24T04:56:44.054Z</time>
      </trkpt>
      <trkpt lat="45.21313" lon="5.52647">
        <ele>1376.29894</ele>
        <time>2022-07-24T04:57:24.077Z</time>
      </trkpt>
      <trkpt lat="45.21336" lon="5.52654">
        <ele>1379.28778</ele>
        <time>2022-07-24T04:57:46.857Z</time>
      </trkpt>
      <trkpt lat="45.21372" lon="5.5267">
        <ele>1383.808123</ele>
        <time>2022-07-24T04:58:20.701Z</time>
      </trkpt>
      <trkpt lat="45.2139" lon="5.52669">
        <ele>1386.049156</ele>
        <time>2022-07-24T04:58:38.918Z</time>
      </trkpt>
      <trkpt lat="45.21411" lon="5.52672">
        <ele>1388.695053</ele>
        <time>2022-07-24T04:58:58.685Z</time>
      </trkpt>
      <trkpt lat="45.21431" lon="5.52684">
        <ele>1391.371517</ele>
        <time>2022-07-24T04:59:22.265Z</time>
      </trkpt>
      <trkpt lat="45.21464" lon="5.52712">
        <ele>1395.945275</ele>
        <time>2022-07-24T05:00:00.054Z</time>
      </trkpt>
      <trkpt lat="45.21475" lon="5.52728">
        <ele>1397.821957</ele>
        <time>2022-07-24T05:00:14.416Z</time>
      </trkpt>
      <trkpt lat="45.21487" lon="5.52754">
        <ele>1400.508669</ele>
        <time>2022-07-24T05:00:35.713Z</time>
      </trkpt>
      <trkpt lat="45.21495" lon="5.52784">
        <ele>1403.174383</ele>
        <time>2022-07-24T05:00:56.777Z</time>
      </trkpt>
      <trkpt lat="45.21512" lon="5.52827">
        <ele>1407.284016</ele>
        <time>2022-07-24T05:01:27.601Z</time>
      </trkpt>
      <trkpt lat="45.21534" lon="5.52862">
        <ele>1411.21627</ele>
        <time>2022-07-24T05:01:58.037Z</time>
      </trkpt>
      <trkpt lat="45.21541" lon="5.52866">
        <ele>1412.134123</ele>
        <time>2022-07-24T05:02:03.975Z</time>
      </trkpt>
      <trkpt lat="45.21559" lon="5.52868">
        <ele>1413.919788</ele>
        <time>2022-07-24T05:02:17.310Z</time>
      </trkpt>
      <trkpt lat="45.21584" lon="5.52886">
        <ele>1416.720449</ele>
        <time>2022-07-24T05:02:36.784Z</time>
      </trkpt>
      <trkpt lat="45.21619" lon="5.52921">
        <ele>1421.11473</ele>
        <time>2022-07-24T05:03:07.967Z</time>
      </trkpt>
      <trkpt lat="45.21625" lon="5.52938">
        <ele>1422.439643</ele>
        <time>2022-07-24T05:03:17.427Z</time>
      </trkpt>
      <trkpt lat="45.21625" lon="5.52967">
        <ele>1424.485645</ele>
        <time>2022-07-24T05:03:30.640Z</time>
      </trkpt>
      <trkpt lat="45.21627" lon="5.52979">
        <ele>1425.360204</ele>
        <time>2022-07-24T05:03:38.707Z</time>
      </trkpt>
      <trkpt lat="45.21637" lon="5.52996">
        <ele>1426.926124</ele>
        <time>2022-07-24T05:03:48.544Z</time>
      </trkpt>
      <trkpt lat="45.2165" lon="5.53003">
        <ele>1428.307885</ele>
        <time>2022-07-24T05:04:01.458Z</time>
      </trkpt>
      <trkpt lat="45.21621" lon="5.52992">
        <ele>1432.562899</ele>
        <time>2022-07-24T05:04:33.157Z</time>
      </trkpt>
      <trkpt lat="45.21581" lon="5.52961">
        <ele>1441.672746</ele>
        <time>2022-07-24T05:05:28.887Z</time>
      </trkpt>
      <trkpt lat="45.21566" lon="5.52961">
        <ele>1444.737234</ele>
        <time>2022-07-24T05:05:49.271Z</time>
      </trkpt>
      <trkpt lat="45.21556" lon="5.52965">
        <ele>1446.686</ele>
        <time>2022-07-24T05:05:59.774Z</time>
      </trkpt>
      <trkpt lat="45.2154" lon="5.53012">
        <ele>1453.999394</ele>
        <time>2022-07-24T05:06:48.683Z</time>
      </trkpt>
      <trkpt lat="45.21523" lon="5.53041">
        <ele>1459.249994</ele>
        <time>2022-07-24T05:07:27.245Z</time>
      </trkpt>
      <trkpt lat="45.21489" lon="5.5308">
        <ele>1469.010066</ele>
        <time>2022-07-24T05:08:30.208Z</time>
      </trkpt>
      <trkpt lat="45.21406" lon="5.53124">
        <ele>1495.452389</ele>
        <time>2022-07-24T05:10:42.207Z</time>
      </trkpt>
      <trkpt lat="45.21401" lon="5.53132">
        <ele>1497.753724</ele>
        <time>2022-07-24T05:10:54.040Z</time>
      </trkpt>
      <trkpt lat="45.21382" lon="5.53143">
        <ele>1504.011642</ele>
        <time>2022-07-24T05:11:25.037Z</time>
      </trkpt>
      <trkpt lat="45.21361" lon="5.53144">
        <ele>1510.087263</ele>
        <time>2022-07-24T05:11:55.166Z</time>
      </trkpt>
      <trkpt lat="45.21332" lon="5.53172">
        <ele>1520.561145</ele>
        <time>2022-07-24T05:12:47.863Z</time>
      </trkpt>
      <trkpt lat="45.21243" lon="5.53206">
        <ele>1545.371572</ele>
        <time>2022-07-24T05:15:04.054Z</time>
      </trkpt>
      <trkpt lat="45.21215" lon="5.5322">
        <ele>1553.400057</ele>
        <time>2022-07-24T05:15:47.808Z</time>
      </trkpt>
      <trkpt lat="45.21146" lon="5.53228">
        <ele>1569.493398</ele>
        <time>2022-07-24T05:17:26.913Z</time>
      </trkpt>
      <trkpt lat="45.21146" lon="5.53228">
        <ele>1569.493398</ele>
        <time>2022-07-24T05:17:27.103Z</time>
      </trkpt>
      <trkpt lat="45.21109" lon="5.5324">
        <ele>1573.366578</ele>
        <time>2022-07-24T05:18:08.391Z</time>
      </trkpt>
      <trkpt lat="45.21066" lon="5.53249">
        <ele>1577.793102</ele>
        <time>2022-07-24T05:18:46.815Z</time>
      </trkpt>
      <trkpt lat="45.21045" lon="5.53242">
        <ele>1580.015176</ele>
        <time>2022-07-24T05:19:03.497Z</time>
      </trkpt>
      <trkpt lat="45.21038" lon="5.53249">
        <ele>1580.948239</ele>
        <time>2022-07-24T05:19:09.484Z</time>
      </trkpt>
      <trkpt lat="45.21041" lon="5.53261">
        <ele>1581.873679</ele>
        <time>2022-07-24T05:19:15.171Z</time>
      </trkpt>
      <trkpt lat="45.21103" lon="5.53292">
        <ele>1584.805742</ele>
        <time>2022-07-24T05:19:40.110Z</time>
      </trkpt>
      <trkpt lat="45.21131" lon="5.53318">
        <ele>1582.649088</ele>
        <time>2022-07-24T05:19:48.791Z</time>
      </trkpt>
      <trkpt lat="45.21141" lon="5.53336">
        <ele>1581.572552</ele>
        <time>2022-07-24T05:19:53.139Z</time>
      </trkpt>
      <trkpt lat="45.21144" lon="5.53344">
        <ele>1581.159392</ele>
        <time>2022-07-24T05:19:54.473Z</time>
      </trkpt>
      <trkpt lat="45.2117" lon="5.53373">
        <ele>1579.020208</ele>
        <time>2022-07-24T05:20:01.711Z</time>
      </trkpt>
      <trkpt lat="45.21193" lon="5.53385">
        <ele>1577.48302</ele>
        <time>2022-07-24T05:20:06.777Z</time>
      </trkpt>
      <trkpt lat="45.21225" lon="5.53423">
        <ele>1574.75674</ele>
        <time>2022-07-24T05:20:15.769Z</time>
      </trkpt>
      <trkpt lat="45.21251" lon="5.53464">
        <ele>1569.423642</ele>
        <time>2022-07-24T05:20:23.820Z</time>
      </trkpt>
      <trkpt lat="45.21267" lon="5.53502">
        <ele>1564.830793</ele>
        <time>2022-07-24T05:20:30.305Z</time>
      </trkpt>
      <trkpt lat="45.21277" lon="5.53537">
        <ele>1561.027868</ele>
        <time>2022-07-24T05:20:35.728Z</time>
      </trkpt>
      <trkpt lat="45.21285" lon="5.53548">
        <ele>1559.436492</ele>
        <time>2022-07-24T05:20:37.937Z</time>
      </trkpt>
      <trkpt lat="45.21374" lon="5.53616">
        <ele>1544.441763</ele>
        <time>2022-07-24T05:20:58.069Z</time>
      </trkpt>
      <trkpt lat="45.21399" lon="5.53627">
        <ele>1540.192397</ele>
        <time>2022-07-24T05:21:03.442Z</time>
      </trkpt>
      <trkpt lat="45.21422" lon="5.53646">
        <ele>1535.869992</ele>
        <time>2022-07-24T05:21:08.839Z</time>
      </trkpt>
      <trkpt lat="45.21475" lon="5.53685">
        <ele>1526.258596</ele>
        <time>2022-07-24T05:21:20.733Z</time>
      </trkpt>
      <trkpt lat="45.21488" lon="5.53701">
        <ele>1523.506105</ele>
        <time>2022-07-24T05:21:24.189Z</time>
      </trkpt>
      <trkpt lat="45.21496" lon="5.53718">
        <ele>1521.203031</ele>
        <time>2022-07-24T05:21:26.987Z</time>
      </trkpt>
      <trkpt lat="45.21426" lon="5.53727">
        <ele>1511.282429</ele>
        <time>2022-07-24T05:21:40.959Z</time>
      </trkpt>
      <trkpt lat="45.21322" lon="5.53734">
        <ele>1496.860105</ele>
        <time>2022-07-24T05:22:02.368Z</time>
      </trkpt>
      <trkpt lat="45.21238" lon="5.53729">
        <ele>1488.191652</ele>
        <time>2022-07-24T05:22:20.562Z</time>
      </trkpt>
      <trkpt lat="45.21167" lon="5.53708">
        <ele>1481.220707</ele>
        <time>2022-07-24T05:22:37.011Z</time>
      </trkpt>
      <trkpt lat="45.21128" lon="5.5369">
        <ele>1477.205586</ele>
        <time>2022-07-24T05:22:45.599Z</time>
      </trkpt>
      <trkpt lat="45.21066" lon="5.53677">
        <ele>1469.273266</ele>
        <time>2022-07-24T05:22:58.752Z</time>
      </trkpt>
      <trkpt lat="45.21026" lon="5.53658">
        <ele>1464.019205</ele>
        <time>2022-07-24T05:23:07.537Z</time>
      </trkpt>
      <trkpt lat="45.21014" lon="5.5366">
        <ele>1462.53737</ele>
        <time>2022-07-24T05:23:09.827Z</time>
      </trkpt>
      <trkpt lat="45.20975" lon="5.53679">
        <ele>1457.277101</ele>
        <time>2022-07-24T05:23:18.666Z</time>
      </trkpt>
      <trkpt lat="45.2096" lon="5.53683">
        <ele>1455.396138</ele>
        <time>2022-07-24T05:23:21.965Z</time>
      </trkpt>
      <trkpt lat="45.20946" lon="5.53681">
        <ele>1453.789707</ele>
        <time>2022-07-24T05:23:24.697Z</time>
      </trkpt>
      <trkpt lat="45.20902" lon="5.53661">
        <ele>1448.767319</ele>
        <time>2022-07-24T05:23:34.260Z</time>
      </trkpt>
      <trkpt lat="45.20866" lon="5.53659">
        <ele>1444.88454</ele>
        <time>2022-07-24T05:23:41.603Z</time>
      </trkpt>
      <trkpt lat="45.20847" lon="5.53651">
        <ele>1442.730142</ele>
        <time>2022-07-24T05:23:45.911Z</time>
      </trkpt>
      <trkpt lat="45.20826" lon="5.53637">
        <ele>1440.210523</ele>
        <time>2022-07-24T05:23:51.310Z</time>
      </trkpt>
      <trkpt lat="45.20809" lon="5.53631">
        <ele>1438.283598</ele>
        <time>2022-07-24T05:23:55.085Z</time>
      </trkpt>
      <trkpt lat="45.20697" lon="5.53565">
        <ele>1428.611386</ele>
        <time>2022-07-24T05:24:22.328Z</time>
      </trkpt>
      <trkpt lat="45.2063" lon="5.53546">
        <ele>1423.765191</ele>
        <time>2022-07-24T05:24:37.754Z</time>
      </trkpt>
      <trkpt lat="45.20582" lon="5.53524">
        <ele>1421.068527</ele>
        <time>2022-07-24T05:24:49.637Z</time>
      </trkpt>
      <trkpt lat="45.20484" lon="5.53465">
        <ele>1416.336699</ele>
        <time>2022-07-24T05:25:15.995Z</time>
      </trkpt>
      <trkpt lat="45.20417" lon="5.53415">
        <ele>1412.777579</ele>
        <time>2022-07-24T05:25:35.620Z</time>
      </trkpt>
      <trkpt lat="45.20358" lon="5.53375">
        <ele>1409.460557</ele>
        <time>2022-07-24T05:25:52.169Z</time>
      </trkpt>
      <trkpt lat="45.20308" lon="5.53354">
        <ele>1406.851248</ele>
        <time>2022-07-24T05:26:04.401Z</time>
      </trkpt>
      <trkpt lat="45.20267" lon="5.53343">
        <ele>1404.097664</ele>
        <time>2022-07-24T05:26:13.889Z</time>
      </trkpt>
      <trkpt lat="45.20115" lon="5.53265">
        <ele>1389.101836</ele>
        <time>2022-07-24T05:26:48.660Z</time>
      </trkpt>
      <trkpt lat="45.20051" lon="5.53239">
        <ele>1381.882109</ele>
        <time>2022-07-24T05:27:02.957Z</time>
      </trkpt>
      <trkpt lat="45.20018" lon="5.53233">
        <ele>1378.240212</ele>
        <time>2022-07-24T05:27:09.970Z</time>
      </trkpt>
      <trkpt lat="45.19992" lon="5.53223">
        <ele>1375.339838</ele>
        <time>2022-07-24T05:27:15.562Z</time>
      </trkpt>
      <trkpt lat="45.19916" lon="5.53204">
        <ele>1366.652851</ele>
        <time>2022-07-24T05:27:31.997Z</time>
      </trkpt>
      <trkpt lat="45.1989" lon="5.53201">
        <ele>1363.535316</ele>
        <time>2022-07-24T05:27:37.388Z</time>
      </trkpt>
      <trkpt lat="45.19853" lon="5.5319">
        <ele>1358.878606</ele>
        <time>2022-07-24T05:27:45.637Z</time>
      </trkpt>
      <trkpt lat="45.19768" lon="5.53183">
        <ele>1348.501492</ele>
        <time>2022-07-24T05:28:03.076Z</time>
      </trkpt>
      <trkpt lat="45.19743" lon="5.53177">
        <ele>1345.054934</ele>
        <time>2022-07-24T05:28:08.252Z</time>
      </trkpt>
      <trkpt lat="45.19727" lon="5.53181">
        <ele>1342.614782</ele>
        <time>2022-07-24T05:28:11.601Z</time>
      </trkpt>
      <trkpt lat="45.19704" lon="5.53177">
        <ele>1339.226279</ele>
        <time>2022-07-24T05:28:16.430Z</time>
      </trkpt>
      <trkpt lat="45.19672" lon="5.53166">
        <ele>1334.466535</ele>
        <time>2022-07-24T05:28:23.039Z</time>
      </trkpt>
      <trkpt lat="45.19657" lon="5.53163">
        <ele>1332.253428</ele>
        <time>2022-07-24T05:28:26.031Z</time>
      </trkpt>
      <trkpt lat="45.1965" lon="5.53165">
        <ele>1331.142079</ele>
        <time>2022-07-24T05:28:27.583Z</time>
      </trkpt>
      <trkpt lat="45.19651" lon="5.53173">
        <ele>1330.217229</ele>
        <time>2022-07-24T05:28:28.862Z</time>
      </trkpt>
      <trkpt lat="45.19663" lon="5.53186">
        <ele>1327.993347</ele>
        <time>2022-07-24T05:28:31.933Z</time>
      </trkpt>
      <trkpt lat="45.19667" lon="5.5321">
        <ele>1325.530271</ele>
        <time>2022-07-24T05:28:35.325Z</time>
      </trkpt>
      <trkpt lat="45.19685" lon="5.53219">
        <ele>1322.671356</ele>
        <time>2022-07-24T05:28:39.276Z</time>
      </trkpt>
      <trkpt lat="45.19698" lon="5.53231">
        <ele>1320.565941</ele>
        <time>2022-07-24T05:28:42.268Z</time>
      </trkpt>
      <trkpt lat="45.1973" lon="5.53268">
        <ele>1315.601365</ele>
        <time>2022-07-24T05:28:50.562Z</time>
      </trkpt>
      <trkpt lat="45.19742" lon="5.53291">
        <ele>1313.159206</ele>
        <time>2022-07-24T05:28:54.656Z</time>
      </trkpt>
      <trkpt lat="45.19755" lon="5.53334">
        <ele>1309.130313</ele>
        <time>2022-07-24T05:29:01.785Z</time>
      </trkpt>
      <trkpt lat="45.19769" lon="5.53359">
        <ele>1306.448272</ele>
        <time>2022-07-24T05:29:06.645Z</time>
      </trkpt>
      <trkpt lat="45.19771" lon="5.5337">
        <ele>1305.47702</ele>
        <time>2022-07-24T05:29:08.354Z</time>
      </trkpt>
      <trkpt lat="45.19771" lon="5.5339">
        <ele>1303.765883</ele>
        <time>2022-07-24T05:29:11.330Z</time>
      </trkpt>
      <trkpt lat="45.19764" lon="5.53404">
        <ele>1302.291559</ele>
        <time>2022-07-24T05:29:13.890Z</time>
      </trkpt>
      <trkpt lat="45.19749" lon="5.5341">
        <ele>1300.445888</ele>
        <time>2022-07-24T05:29:17.104Z</time>
      </trkpt>
      <trkpt lat="45.1972" lon="5.53409">
        <ele>1297.167472</ele>
        <time>2022-07-24T05:29:23.444Z</time>
      </trkpt>
      <trkpt lat="45.19676" lon="5.53396">
        <ele>1292.457308</ele>
        <time>2022-07-24T05:29:33.153Z</time>
      </trkpt>
      <trkpt lat="45.19652" lon="5.53387">
        <ele>1289.849737</ele>
        <time>2022-07-24T05:29:38.782Z</time>
      </trkpt>
      <trkpt lat="45.19632" lon="5.53375">
        <ele>1287.521431</ele>
        <time>2022-07-24T05:29:43.569Z</time>
      </trkpt>
      <trkpt lat="45.1961" lon="5.53369">
        <ele>1285.121681</ele>
        <time>2022-07-24T05:29:48.445Z</time>
      </trkpt>
      <trkpt lat="45.19594" lon="5.53373">
        <ele>1283.457658</ele>
        <time>2022-07-24T05:29:51.817Z</time>
      </trkpt>
      <trkpt lat="45.19574" lon="5.53383">
        <ele>1281.201925</ele>
        <time>2022-07-24T05:29:56.269Z</time>
      </trkpt>
      <trkpt lat="45.19555" lon="5.53384">
        <ele>1278.617519</ele>
        <time>2022-07-24T05:30:00.090Z</time>
      </trkpt>
      <trkpt lat="45.1954" lon="5.5338">
        <ele>1275.911987</ele>
        <time>2022-07-24T05:30:03.247Z</time>
      </trkpt>
      <trkpt lat="45.19518" lon="5.53387">
        <ele>1272.112948</ele>
        <time>2022-07-24T05:30:07.663Z</time>
      </trkpt>
      <trkpt lat="45.19504" lon="5.53387">
        <ele>1269.777337</ele>
        <time>2022-07-24T05:30:10.374Z</time>
      </trkpt>
      <trkpt lat="45.1949" lon="5.53381">
        <ele>1267.169635</ele>
        <time>2022-07-24T05:30:13.368Z</time>
      </trkpt>
      <trkpt lat="45.19441" lon="5.53392">
        <ele>1258.680122</ele>
        <time>2022-07-24T05:30:23.185Z</time>
      </trkpt>
      <trkpt lat="45.19434" lon="5.53394">
        <ele>1257.542795</ele>
        <time>2022-07-24T05:30:24.521Z</time>
      </trkpt>
      <trkpt lat="45.19407" lon="5.5341">
        <ele>1252.506694</ele>
        <time>2022-07-24T05:30:30.289Z</time>
      </trkpt>
      <trkpt lat="45.19331" lon="5.53419">
        <ele>1238.930983</ele>
        <time>2022-07-24T05:30:45.288Z</time>
      </trkpt>
      <trkpt lat="45.19299" lon="5.53432">
        <ele>1232.935526</ele>
        <time>2022-07-24T05:30:51.850Z</time>
      </trkpt>
      <trkpt lat="45.19271" lon="5.53431">
        <ele>1227.994835</ele>
        <time>2022-07-24T05:30:57.323Z</time>
      </trkpt>
      <trkpt lat="45.19217" lon="5.53423">
        <ele>1218.221558</ele>
        <time>2022-07-24T05:31:08.358Z</time>
      </trkpt>
      <trkpt lat="45.19194" lon="5.53416">
        <ele>1214.465518</ele>
        <time>2022-07-24T05:31:12.943Z</time>
      </trkpt>
      <trkpt lat="45.19174" lon="5.53403">
        <ele>1210.996472</ele>
        <time>2022-07-24T05:31:17.369Z</time>
      </trkpt>
      <trkpt lat="45.19152" lon="5.53396">
        <ele>1207.389129</ele>
        <time>2022-07-24T05:31:21.947Z</time>
      </trkpt>
      <trkpt lat="45.19117" lon="5.53364">
        <ele>1200.780901</ele>
        <time>2022-07-24T05:31:30.473Z</time>
      </trkpt>
      <trkpt lat="45.1909" lon="5.53359">
        <ele>1196.555059</ele>
        <time>2022-07-24T05:31:35.819Z</time>
      </trkpt>
      <trkpt lat="45.19022" lon="5.53379">
        <ele>1184.588501</ele>
        <time>2022-07-24T05:31:49.913Z</time>
      </trkpt>
      <trkpt lat="45.18998" lon="5.53372">
        <ele>1179.699029</ele>
        <time>2022-07-24T05:31:54.874Z</time>
      </trkpt>
      <trkpt lat="45.18954" lon="5.53371">
        <ele>1170.994545</ele>
        <time>2022-07-24T05:32:03.410Z</time>
      </trkpt>
      <trkpt lat="45.18922" lon="5.53384">
        <ele>1164.4488</ele>
        <time>2022-07-24T05:32:09.789Z</time>
      </trkpt>
      <trkpt lat="45.189" lon="5.53401">
        <ele>1159.443866</ele>
        <time>2022-07-24T05:32:14.649Z</time>
      </trkpt>
      <trkpt lat="45.18884" lon="5.5342">
        <ele>1155.285164</ele>
        <time>2022-07-24T05:32:18.722Z</time>
      </trkpt>
      <trkpt lat="45.18874" lon="5.53433">
        <ele>1152.747318</ele>
        <time>2022-07-24T05:32:21.261Z</time>
      </trkpt>
      <trkpt lat="45.18874" lon="5.53433">
        <ele>1152.747318</ele>
        <time>2022-07-24T05:32:21.276Z</time>
      </trkpt>
      <trkpt lat="45.18861" lon="5.53457">
        <ele>1149.737973</ele>
        <time>2022-07-24T05:32:25.554Z</time>
      </trkpt>
      <trkpt lat="45.1886" lon="5.53483">
        <ele>1147.181655</ele>
        <time>2022-07-24T05:32:29.130Z</time>
      </trkpt>
      <trkpt lat="45.18852" lon="5.53486">
        <ele>1146.125716</ele>
        <time>2022-07-24T05:32:30.046Z</time>
      </trkpt>
      <trkpt lat="45.18839" lon="5.53504">
        <ele>1143.596528</ele>
        <time>2022-07-24T05:32:32.252Z</time>
      </trkpt>
      <trkpt lat="45.18814" lon="5.53542">
        <ele>1138.486136</ele>
        <time>2022-07-24T05:32:36.781Z</time>
      </trkpt>
      <trkpt lat="45.18785" lon="5.53557">
        <ele>1134.285306</ele>
        <time>2022-07-24T05:32:40.617Z</time>
      </trkpt>
      <trkpt lat="45.1882" lon="5.5358">
        <ele>1129.030542</ele>
        <time>2022-07-24T05:32:48.697Z</time>
      </trkpt>
      <trkpt lat="45.18842" lon="5.53603">
        <ele>1127.242734</ele>
        <time>2022-07-24T05:32:54.819Z</time>
      </trkpt>
      <trkpt lat="45.18864" lon="5.53619">
        <ele>1126.342044</ele>
        <time>2022-07-24T05:33:00.712Z</time>
      </trkpt>
      <trkpt lat="45.18898" lon="5.53634">
        <ele>1124.989654</ele>
        <time>2022-07-24T05:33:10.305Z</time>
      </trkpt>
      <trkpt lat="45.18916" lon="5.53647">
        <ele>1124.235171</ele>
        <time>2022-07-24T05:33:16.370Z</time>
      </trkpt>
      <trkpt lat="45.18934" lon="5.53667">
        <ele>1123.386369</ele>
        <time>2022-07-24T05:33:23.472Z</time>
      </trkpt>
      <trkpt lat="45.18949" lon="5.53711">
        <ele>1122.09706</ele>
        <time>2022-07-24T05:33:33.999Z</time>
      </trkpt>
      <trkpt lat="45.18952" lon="5.53735">
        <ele>1121.436012</ele>
        <time>2022-07-24T05:33:39.245Z</time>
      </trkpt>
      <trkpt lat="45.18956" lon="5.53763">
        <ele>1120.171097</ele>
        <time>2022-07-24T05:33:43.734Z</time>
      </trkpt>
      <trkpt lat="45.18958" lon="5.53845">
        <ele>1115.992284</ele>
        <time>2022-07-24T05:33:57.503Z</time>
      </trkpt>
      <trkpt lat="45.18956" lon="5.53859">
        <ele>1115.275383</ele>
        <time>2022-07-24T05:33:59.611Z</time>
      </trkpt>
      <trkpt lat="45.18951" lon="5.53866">
        <ele>1114.792345</ele>
        <time>2022-07-24T05:34:01.042Z</time>
      </trkpt>
      <trkpt lat="45.18922" lon="5.53881">
        <ele>1112.624822</ele>
        <time>2022-07-24T05:34:07.770Z</time>
      </trkpt>
      <trkpt lat="45.18883" lon="5.53872">
        <ele>1109.75743</ele>
        <time>2022-07-24T05:34:16.427Z</time>
      </trkpt>
      <trkpt lat="45.18852" lon="5.5387">
        <ele>1107.441972</ele>
        <time>2022-07-24T05:34:23.344Z</time>
      </trkpt>
      <trkpt lat="45.18838" lon="5.53874">
        <ele>1106.347984</ele>
        <time>2022-07-24T05:34:26.305Z</time>
      </trkpt>
      <trkpt lat="45.18813" lon="5.5388">
        <ele>1104.334731</ele>
        <time>2022-07-24T05:34:31.807Z</time>
      </trkpt>
      <trkpt lat="45.18766" lon="5.53878">
        <ele>1100.590438</ele>
        <time>2022-07-24T05:34:42.189Z</time>
      </trkpt>
      <trkpt lat="45.18717" lon="5.53857">
        <ele>1096.526248</ele>
        <time>2022-07-24T05:34:53.797Z</time>
      </trkpt>
      <trkpt lat="45.18685" lon="5.5383">
        <ele>1093.669765</ele>
        <time>2022-07-24T05:35:02.338Z</time>
      </trkpt>
      <trkpt lat="45.1865" lon="5.53819">
        <ele>1091.526636</ele>
        <time>2022-07-24T05:35:10.713Z</time>
      </trkpt>
      <trkpt lat="45.18616" lon="5.53831">
        <ele>1089.367858</ele>
        <time>2022-07-24T05:35:19.240Z</time>
      </trkpt>
      <trkpt lat="45.18594" lon="5.53821">
        <ele>1087.930073</ele>
        <time>2022-07-24T05:35:24.855Z</time>
      </trkpt>
      <trkpt lat="45.18565" lon="5.53823">
        <ele>1086.159234</ele>
        <time>2022-07-24T05:35:31.704Z</time>
      </trkpt>
      <trkpt lat="45.18519" lon="5.53812">
        <ele>1083.300669</ele>
        <time>2022-07-24T05:35:42.184Z</time>
      </trkpt>
      <trkpt lat="45.18469" lon="5.53785">
        <ele>1079.80207</ele>
        <time>2022-07-24T05:35:54.360Z</time>
      </trkpt>
      <trkpt lat="45.18439" lon="5.53747">
        <ele>1077.153456</ele>
        <time>2022-07-24T05:36:03.505Z</time>
      </trkpt>
      <trkpt lat="45.18411" lon="5.53727">
        <ele>1075.059039</ele>
        <time>2022-07-24T05:36:10.821Z</time>
      </trkpt>
      <trkpt lat="45.1841" lon="5.53708">
        <ele>1074.157079</ele>
        <time>2022-07-24T05:36:13.821Z</time>
      </trkpt>
      <trkpt lat="45.1839" lon="5.53684">
        <ele>1072.451995</ele>
        <time>2022-07-24T05:36:20.007Z</time>
      </trkpt>
      <trkpt lat="45.18384" lon="5.53661">
        <ele>1071.316622</ele>
        <time>2022-07-24T05:36:23.902Z</time>
      </trkpt>
      <trkpt lat="45.18371" lon="5.53644">
        <ele>1070.364627</ele>
        <time>2022-07-24T05:36:28.148Z</time>
      </trkpt>
      <trkpt lat="45.18346" lon="5.53639">
        <ele>1069.05126</ele>
        <time>2022-07-24T05:36:33.855Z</time>
      </trkpt>
      <trkpt lat="45.18307" lon="5.53587">
        <ele>1066.22946</ele>
        <time>2022-07-24T05:36:46.387Z</time>
      </trkpt>
      <trkpt lat="45.18304" lon="5.53567">
        <ele>1065.465476</ele>
        <time>2022-07-24T05:36:49.866Z</time>
      </trkpt>
      <trkpt lat="45.18313" lon="5.53544">
        <ele>1064.486665</ele>
        <time>2022-07-24T05:36:54.642Z</time>
      </trkpt>
      <trkpt lat="45.18318" lon="5.53512">
        <ele>1063.299738</ele>
        <time>2022-07-24T05:37:00.244Z</time>
      </trkpt>
      <trkpt lat="45.18308" lon="5.53474">
        <ele>1061.762692</ele>
        <time>2022-07-24T05:37:07.426Z</time>
      </trkpt>
      <trkpt lat="45.18296" lon="5.5341">
        <ele>1059.565685</ele>
        <time>2022-07-24T05:37:18.917Z</time>
      </trkpt>
      <trkpt lat="45.18282" lon="5.53384">
        <ele>1058.486612</ele>
        <time>2022-07-24T05:37:24.488Z</time>
      </trkpt>
      <trkpt lat="45.18249" lon="5.53341">
        <ele>1056.404346</ele>
        <time>2022-07-24T05:37:35.304Z</time>
      </trkpt>
      <trkpt lat="45.18234" lon="5.53329">
        <ele>1055.585833</ele>
        <time>2022-07-24T05:37:39.577Z</time>
      </trkpt>
      <trkpt lat="45.1822" lon="5.53325">
        <ele>1054.903288</ele>
        <time>2022-07-24T05:37:43.047Z</time>
      </trkpt>
      <trkpt lat="45.18191" lon="5.53334">
        <ele>1053.514906</ele>
        <time>2022-07-24T05:37:50.109Z</time>
      </trkpt>
      <trkpt lat="45.18162" lon="5.53331">
        <ele>1052.152289</ele>
        <time>2022-07-24T05:37:56.978Z</time>
      </trkpt>
      <trkpt lat="45.18128" lon="5.53337">
        <ele>1050.531041</ele>
        <time>2022-07-24T05:38:05.203Z</time>
      </trkpt>
      <trkpt lat="45.18103" lon="5.53336">
        <ele>1049.35942</ele>
        <time>2022-07-24T05:38:11.190Z</time>
      </trkpt>
      <trkpt lat="45.18063" lon="5.53349">
        <ele>1047.422169</ele>
        <time>2022-07-24T05:38:21.400Z</time>
      </trkpt>
      <trkpt lat="45.18036" lon="5.53349">
        <ele>1046.157917</ele>
        <time>2022-07-24T05:38:27.995Z</time>
      </trkpt>
      <trkpt lat="45.17998" lon="5.53337">
        <ele>1044.538525</ele>
        <time>2022-07-24T05:38:37.706Z</time>
      </trkpt>
      <trkpt lat="45.1797" lon="5.53346">
        <ele>1043.749861</ele>
        <time>2022-07-24T05:38:44.809Z</time>
      </trkpt>
      <trkpt lat="45.17955" lon="5.53344">
        <ele>1043.341597</ele>
        <time>2022-07-24T05:38:48.572Z</time>
      </trkpt>
      <trkpt lat="45.17937" lon="5.53336">
        <ele>1042.82342</ele>
        <time>2022-07-24T05:38:53.224Z</time>
      </trkpt>
      <trkpt lat="45.1791" lon="5.53312">
        <ele>1041.967968</ele>
        <time>2022-07-24T05:39:01.250Z</time>
      </trkpt>
      <trkpt lat="45.17882" lon="5.53299">
        <ele>1041.169055</ele>
        <time>2022-07-24T05:39:09.179Z</time>
      </trkpt>
      <trkpt lat="45.1782" lon="5.53278">
        <ele>1040.080036</ele>
        <time>2022-07-24T05:39:28.291Z</time>
      </trkpt>
      <trkpt lat="45.17723" lon="5.53524">
        <ele>1041.453156</ele>
        <time>2022-07-24T05:40:20.965Z</time>
      </trkpt>
      <trkpt lat="45.17681" lon="5.53616">
        <ele>1041.599319</ele>
        <time>2022-07-24T05:40:38.876Z</time>
      </trkpt>
      <trkpt lat="45.17669" lon="5.5365">
        <ele>1041.648473</ele>
        <time>2022-07-24T05:40:43.789Z</time>
      </trkpt>
      <trkpt lat="45.1767" lon="5.5366">
        <ele>1041.661817</ele>
        <time>2022-07-24T05:40:44.999Z</time>
      </trkpt>
      <trkpt lat="45.1767" lon="5.53668">
        <ele>1041.672889</ele>
        <time>2022-07-24T05:40:46.059Z</time>
      </trkpt>
      <trkpt lat="45.17671" lon="5.53687">
        <ele>1041.697242</ele>
        <time>2022-07-24T05:40:48.507Z</time>
      </trkpt>
      <trkpt lat="45.17645" lon="5.5376">
        <ele>1041.153239</ele>
        <time>2022-07-24T05:41:01.600Z</time>
      </trkpt>
      <trkpt lat="45.17643" lon="5.53811">
        <ele>1040.703989</ele>
        <time>2022-07-24T05:41:09.450Z</time>
      </trkpt>
      <trkpt lat="45.17638" lon="5.53833">
        <ele>1040.498529</ele>
        <time>2022-07-24T05:41:12.972Z</time>
      </trkpt>
      <trkpt lat="45.17629" lon="5.53851">
        <ele>1040.309856</ele>
        <time>2022-07-24T05:41:16.008Z</time>
      </trkpt>
      <trkpt lat="45.17589" lon="5.53975">
        <ele>1039.64892</ele>
        <time>2022-07-24T05:41:33.185Z</time>
      </trkpt>
      <trkpt lat="45.17548" lon="5.5395">
        <ele>1039.894757</ele>
        <time>2022-07-24T05:41:43.650Z</time>
      </trkpt>
      <trkpt lat="45.17546" lon="5.53955">
        <ele>1039.916154</ele>
        <time>2022-07-24T05:41:45.038Z</time>
      </trkpt>
      <trkpt lat="45.17519" lon="5.54037">
        <ele>1040.270278</ele>
        <time>2022-07-24T05:42:10.369Z</time>
      </trkpt>
      <trkpt lat="45.17517" lon="5.54042">
        <ele>1040.29193</ele>
        <time>2022-07-24T05:42:11.762Z</time>
      </trkpt>
      <trkpt lat="45.17508" lon="5.54068">
        <ele>1040.407019</ele>
        <time>2022-07-24T05:42:19.330Z</time>
      </trkpt>
    </trkseg>
  </trk>
</gpx>